<?xml version="1.0" encoding="UTF-8" standalone="no" ?>
<gpx xmlns="http://www.topografix.com/GPX/1/1" xmlns:xsi="http://www.w3.org/2001/XMLSchema-instance" xsi:schemaLocation="http://www.topografix.com/GPX/1/1 http://www.topografix.com/GPX/1/1/gpx.xsd" version="1.1" creator="VisuGPX - https://www.visugpx.com">
  <metadata>
    <name>Morbihan - Sarzaux</name>
    <desc><![CDATA[Départ de Sarzaux puis le tour de la presqu'ile de Rhuys]]></desc>
  </metadata>
  <trk>
    <name><![CDATA[ACTIVE LOG]]></name>
    <trkseg>
      <trkpt lat="47.51564" lon="-2.7705">
        <ele>7.8278809</ele>
        <time>2009-09-30T12:48:12Z</time>
      </trkpt>
      <trkpt lat="47.51564" lon="-2.77051">
        <ele>7.8278809</ele>
        <time>2009-09-30T12:48:22Z</time>
      </trkpt>
      <trkpt lat="47.51553" lon="-2.7707">
        <ele>8.7891846</ele>
        <time>2009-09-30T12:48:29Z</time>
      </trkpt>
      <trkpt lat="47.51539" lon="-2.77101">
        <ele>8.3085938</ele>
        <time>2009-09-30T12:48:35Z</time>
      </trkpt>
      <trkpt lat="47.51534" lon="-2.77113">
        <ele>7.8278809</ele>
        <time>2009-09-30T12:48:37Z</time>
      </trkpt>
      <trkpt lat="47.51526" lon="-2.77179">
        <ele>8.7891846</ele>
        <time>2009-09-30T12:48:46Z</time>
      </trkpt>
      <trkpt lat="47.51526" lon="-2.77225">
        <ele>10.2312012</ele>
        <time>2009-09-30T12:48:52Z</time>
      </trkpt>
      <trkpt lat="47.51529" lon="-2.77314">
        <ele>13.1151123</ele>
        <time>2009-09-30T12:49:04Z</time>
      </trkpt>
      <trkpt lat="47.51529" lon="-2.77322">
        <ele>13.5958252</ele>
        <time>2009-09-30T12:49:05Z</time>
      </trkpt>
      <trkpt lat="47.51543" lon="-2.77391">
        <ele>14.076416</ele>
        <time>2009-09-30T12:49:15Z</time>
      </trkpt>
      <trkpt lat="47.51563" lon="-2.77444">
        <ele>12.6343994</ele>
        <time>2009-09-30T12:49:23Z</time>
      </trkpt>
      <trkpt lat="47.51579" lon="-2.77499">
        <ele>11.6732178</ele>
        <time>2009-09-30T12:49:31Z</time>
      </trkpt>
      <trkpt lat="47.51592" lon="-2.77554">
        <ele>12.1538086</ele>
        <time>2009-09-30T12:49:40Z</time>
      </trkpt>
      <trkpt lat="47.51599" lon="-2.77577">
        <ele>12.1538086</ele>
        <time>2009-09-30T12:49:44Z</time>
      </trkpt>
      <trkpt lat="47.51593" lon="-2.77595">
        <ele>11.1925049</ele>
        <time>2009-09-30T12:49:49Z</time>
      </trkpt>
      <trkpt lat="47.51589" lon="-2.77597">
        <ele>11.1925049</ele>
        <time>2009-09-30T12:49:50Z</time>
      </trkpt>
      <trkpt lat="47.5157" lon="-2.77613">
        <ele>11.6732178</ele>
        <time>2009-09-30T12:49:56Z</time>
      </trkpt>
      <trkpt lat="47.5156" lon="-2.77623">
        <ele>12.6343994</ele>
        <time>2009-09-30T12:50:00Z</time>
      </trkpt>
      <trkpt lat="47.51545" lon="-2.77636">
        <ele>11.6732178</ele>
        <time>2009-09-30T12:50:05Z</time>
      </trkpt>
      <trkpt lat="47.5153" lon="-2.77648">
        <ele>8.7891846</ele>
        <time>2009-09-30T12:50:10Z</time>
      </trkpt>
      <trkpt lat="47.51512" lon="-2.7766">
        <ele>11.6732178</ele>
        <time>2009-09-30T12:50:16Z</time>
      </trkpt>
      <trkpt lat="47.51495" lon="-2.77672">
        <ele>13.1151123</ele>
        <time>2009-09-30T12:50:21Z</time>
      </trkpt>
      <trkpt lat="47.51474" lon="-2.77691">
        <ele>14.076416</ele>
        <time>2009-09-30T12:50:27Z</time>
      </trkpt>
      <trkpt lat="47.51454" lon="-2.77711">
        <ele>13.1151123</ele>
        <time>2009-09-30T12:50:33Z</time>
      </trkpt>
      <trkpt lat="47.51438" lon="-2.77723">
        <ele>14.076416</ele>
        <time>2009-09-30T12:50:37Z</time>
      </trkpt>
      <trkpt lat="47.51426" lon="-2.77736">
        <ele>14.076416</ele>
        <time>2009-09-30T12:50:40Z</time>
      </trkpt>
      <trkpt lat="47.51413" lon="-2.77749">
        <ele>13.5958252</ele>
        <time>2009-09-30T12:50:44Z</time>
      </trkpt>
      <trkpt lat="47.51396" lon="-2.77755">
        <ele>14.5570068</ele>
        <time>2009-09-30T12:50:48Z</time>
      </trkpt>
      <trkpt lat="47.51382" lon="-2.77778">
        <ele>15.0377197</ele>
        <time>2009-09-30T12:50:52Z</time>
      </trkpt>
      <trkpt lat="47.51367" lon="-2.77814">
        <ele>14.5570068</ele>
        <time>2009-09-30T12:50:59Z</time>
      </trkpt>
      <trkpt lat="47.5136" lon="-2.77822">
        <ele>15.9990234</ele>
        <time>2009-09-30T12:52:40Z</time>
      </trkpt>
      <trkpt lat="47.51346" lon="-2.77844">
        <ele>14.5570068</ele>
        <time>2009-09-30T12:52:47Z</time>
      </trkpt>
      <trkpt lat="47.51345" lon="-2.77848">
        <ele>14.5570068</ele>
        <time>2009-09-30T12:52:49Z</time>
      </trkpt>
      <trkpt lat="47.5134" lon="-2.77852">
        <ele>12.6343994</ele>
        <time>2009-09-30T12:52:52Z</time>
      </trkpt>
      <trkpt lat="47.51329" lon="-2.77856">
        <ele>11.6732178</ele>
        <time>2009-09-30T12:52:57Z</time>
      </trkpt>
      <trkpt lat="47.51326" lon="-2.77883">
        <ele>10.2312012</ele>
        <time>2009-09-30T12:53:04Z</time>
      </trkpt>
      <trkpt lat="47.51319" lon="-2.77935">
        <ele>13.5958252</ele>
        <time>2009-09-30T12:53:14Z</time>
      </trkpt>
      <trkpt lat="47.51315" lon="-2.77977">
        <ele>15.9990234</ele>
        <time>2009-09-30T12:53:22Z</time>
      </trkpt>
      <trkpt lat="47.51314" lon="-2.77999">
        <ele>15.9990234</ele>
        <time>2009-09-30T12:53:26Z</time>
      </trkpt>
      <trkpt lat="47.51322" lon="-2.78014">
        <ele>15.9990234</ele>
        <time>2009-09-30T12:53:31Z</time>
      </trkpt>
      <trkpt lat="47.51328" lon="-2.78014">
        <ele>16.4797363</ele>
        <time>2009-09-30T12:53:33Z</time>
      </trkpt>
      <trkpt lat="47.51347" lon="-2.78005">
        <ele>19.8443604</ele>
        <time>2009-09-30T12:53:38Z</time>
      </trkpt>
      <trkpt lat="47.51376" lon="-2.77995">
        <ele>21.286377</ele>
        <time>2009-09-30T12:53:44Z</time>
      </trkpt>
      <trkpt lat="47.51396" lon="-2.77989">
        <ele>23.2089844</ele>
        <time>2009-09-30T12:53:48Z</time>
      </trkpt>
      <trkpt lat="47.51421" lon="-2.77982">
        <ele>23.6895752</ele>
        <time>2009-09-30T12:53:54Z</time>
      </trkpt>
      <trkpt lat="47.51455" lon="-2.77977">
        <ele>24.1702881</ele>
        <time>2009-09-30T12:54:02Z</time>
      </trkpt>
      <trkpt lat="47.5146" lon="-2.77976">
        <ele>24.1702881</ele>
        <time>2009-09-30T12:54:03Z</time>
      </trkpt>
      <trkpt lat="47.51495" lon="-2.77952">
        <ele>22.2475586</ele>
        <time>2009-09-30T12:54:11Z</time>
      </trkpt>
      <trkpt lat="47.51523" lon="-2.77928">
        <ele>21.7669678</ele>
        <time>2009-09-30T12:54:18Z</time>
      </trkpt>
      <trkpt lat="47.51542" lon="-2.77934">
        <ele>23.2089844</ele>
        <time>2009-09-30T12:54:23Z</time>
      </trkpt>
      <trkpt lat="47.51551" lon="-2.77952">
        <ele>23.6895752</ele>
        <time>2009-09-30T12:54:26Z</time>
      </trkpt>
      <trkpt lat="47.51556" lon="-2.77964">
        <ele>23.6895752</ele>
        <time>2009-09-30T12:54:28Z</time>
      </trkpt>
      <trkpt lat="47.51594" lon="-2.78035">
        <ele>24.1702881</ele>
        <time>2009-09-30T12:54:40Z</time>
      </trkpt>
      <trkpt lat="47.51631" lon="-2.78106">
        <ele>24.1702881</ele>
        <time>2009-09-30T12:54:52Z</time>
      </trkpt>
      <trkpt lat="47.51651" lon="-2.78143">
        <ele>25.1317139</ele>
        <time>2009-09-30T12:55:00Z</time>
      </trkpt>
      <trkpt lat="47.51663" lon="-2.78165">
        <ele>25.6123047</ele>
        <time>2009-09-30T12:55:06Z</time>
      </trkpt>
      <trkpt lat="47.51659" lon="-2.78177">
        <ele>25.1317139</ele>
        <time>2009-09-30T12:55:10Z</time>
      </trkpt>
      <trkpt lat="47.51639" lon="-2.78198">
        <ele>25.1317139</ele>
        <time>2009-09-30T12:55:15Z</time>
      </trkpt>
      <trkpt lat="47.51591" lon="-2.78231">
        <ele>22.7282715</ele>
        <time>2009-09-30T12:55:23Z</time>
      </trkpt>
      <trkpt lat="47.5152" lon="-2.78272">
        <ele>19.8443604</ele>
        <time>2009-09-30T12:55:32Z</time>
      </trkpt>
      <trkpt lat="47.51455" lon="-2.78309">
        <ele>18.4023438</ele>
        <time>2009-09-30T12:55:40Z</time>
      </trkpt>
      <trkpt lat="47.51382" lon="-2.78352">
        <ele>14.5570068</ele>
        <time>2009-09-30T12:55:48Z</time>
      </trkpt>
      <trkpt lat="47.51346" lon="-2.78373">
        <ele>13.5958252</ele>
        <time>2009-09-30T12:55:52Z</time>
      </trkpt>
      <trkpt lat="47.51277" lon="-2.78439">
        <ele>14.5570068</ele>
        <time>2009-09-30T12:56:01Z</time>
      </trkpt>
      <trkpt lat="47.51254" lon="-2.78468">
        <ele>15.5184326</ele>
        <time>2009-09-30T12:56:05Z</time>
      </trkpt>
      <trkpt lat="47.51233" lon="-2.78515">
        <ele>15.5184326</ele>
        <time>2009-09-30T12:56:10Z</time>
      </trkpt>
      <trkpt lat="47.51231" lon="-2.78526">
        <ele>15.5184326</ele>
        <time>2009-09-30T12:56:11Z</time>
      </trkpt>
      <trkpt lat="47.51226" lon="-2.78569">
        <ele>14.5570068</ele>
        <time>2009-09-30T12:56:15Z</time>
      </trkpt>
      <trkpt lat="47.51208" lon="-2.78612">
        <ele>13.5958252</ele>
        <time>2009-09-30T12:56:20Z</time>
      </trkpt>
      <trkpt lat="47.51195" lon="-2.78622">
        <ele>13.1151123</ele>
        <time>2009-09-30T12:56:22Z</time>
      </trkpt>
      <trkpt lat="47.51164" lon="-2.78634">
        <ele>11.6732178</ele>
        <time>2009-09-30T12:56:26Z</time>
      </trkpt>
      <trkpt lat="47.51128" lon="-2.78665">
        <ele>11.6732178</ele>
        <time>2009-09-30T12:56:31Z</time>
      </trkpt>
      <trkpt lat="47.51084" lon="-2.78712">
        <ele>11.1925049</ele>
        <time>2009-09-30T12:56:38Z</time>
      </trkpt>
      <trkpt lat="47.51039" lon="-2.78751">
        <ele>11.6732178</ele>
        <time>2009-09-30T12:56:46Z</time>
      </trkpt>
      <trkpt lat="47.5102" lon="-2.78769">
        <ele>11.6732178</ele>
        <time>2009-09-30T12:56:52Z</time>
      </trkpt>
      <trkpt lat="47.51016" lon="-2.78773">
        <ele>11.6732178</ele>
        <time>2009-09-30T12:56:55Z</time>
      </trkpt>
      <trkpt lat="47.51015" lon="-2.78766">
        <ele>11.6732178</ele>
        <time>2009-09-30T12:57:00Z</time>
      </trkpt>
      <trkpt lat="47.51021" lon="-2.78761">
        <ele>11.6732178</ele>
        <time>2009-09-30T12:57:02Z</time>
      </trkpt>
      <trkpt lat="47.51027" lon="-2.78756">
        <ele>11.6732178</ele>
        <time>2009-09-30T12:57:04Z</time>
      </trkpt>
      <trkpt lat="47.51043" lon="-2.78739">
        <ele>10.711792</ele>
        <time>2009-09-30T12:57:08Z</time>
      </trkpt>
      <trkpt lat="47.51044" lon="-2.7872">
        <ele>10.2312012</ele>
        <time>2009-09-30T12:57:12Z</time>
      </trkpt>
      <trkpt lat="47.5104" lon="-2.78716">
        <ele>10.2312012</ele>
        <time>2009-09-30T12:57:13Z</time>
      </trkpt>
      <trkpt lat="47.51008" lon="-2.78689">
        <ele>10.2312012</ele>
        <time>2009-09-30T12:57:20Z</time>
      </trkpt>
      <trkpt lat="47.50984" lon="-2.78668">
        <ele>9.7506104</ele>
        <time>2009-09-30T12:57:25Z</time>
      </trkpt>
      <trkpt lat="47.50953" lon="-2.78645">
        <ele>9.7506104</ele>
        <time>2009-09-30T12:57:31Z</time>
      </trkpt>
      <trkpt lat="47.50932" lon="-2.78626">
        <ele>8.3085938</ele>
        <time>2009-09-30T12:57:36Z</time>
      </trkpt>
      <trkpt lat="47.50928" lon="-2.78618">
        <ele>7.8278809</ele>
        <time>2009-09-30T12:57:38Z</time>
      </trkpt>
      <trkpt lat="47.50902" lon="-2.78602">
        <ele>5.9052734</ele>
        <time>2009-09-30T12:57:43Z</time>
      </trkpt>
      <trkpt lat="47.50887" lon="-2.78589">
        <ele>5.4245605</ele>
        <time>2009-09-30T12:57:46Z</time>
      </trkpt>
      <trkpt lat="47.50866" lon="-2.78581">
        <ele>6.3858643</ele>
        <time>2009-09-30T12:57:50Z</time>
      </trkpt>
      <trkpt lat="47.50856" lon="-2.78584">
        <ele>6.3858643</ele>
        <time>2009-09-30T12:57:52Z</time>
      </trkpt>
      <trkpt lat="47.5082" lon="-2.78575">
        <ele>6.8664551</ele>
        <time>2009-09-30T12:57:59Z</time>
      </trkpt>
      <trkpt lat="47.50782" lon="-2.78571">
        <ele>7.347168</ele>
        <time>2009-09-30T12:58:05Z</time>
      </trkpt>
      <trkpt lat="47.50748" lon="-2.78569">
        <ele>8.7891846</ele>
        <time>2009-09-30T12:58:11Z</time>
      </trkpt>
      <trkpt lat="47.50721" lon="-2.78575">
        <ele>9.7506104</ele>
        <time>2009-09-30T12:58:16Z</time>
      </trkpt>
      <trkpt lat="47.50695" lon="-2.78583">
        <ele>11.1925049</ele>
        <time>2009-09-30T12:58:22Z</time>
      </trkpt>
      <trkpt lat="47.50676" lon="-2.78586">
        <ele>10.711792</ele>
        <time>2009-09-30T12:58:28Z</time>
      </trkpt>
      <trkpt lat="47.50644" lon="-2.7858">
        <ele>12.6343994</ele>
        <time>2009-09-30T12:58:35Z</time>
      </trkpt>
      <trkpt lat="47.50628" lon="-2.78576">
        <ele>12.6343994</ele>
        <time>2009-09-30T12:58:39Z</time>
      </trkpt>
      <trkpt lat="47.50603" lon="-2.78587">
        <ele>13.5958252</ele>
        <time>2009-09-30T12:58:45Z</time>
      </trkpt>
      <trkpt lat="47.50584" lon="-2.78595">
        <ele>13.1151123</ele>
        <time>2009-09-30T12:58:49Z</time>
      </trkpt>
      <trkpt lat="47.50565" lon="-2.78606">
        <ele>14.076416</ele>
        <time>2009-09-30T12:58:54Z</time>
      </trkpt>
      <trkpt lat="47.50539" lon="-2.78616">
        <ele>14.5570068</ele>
        <time>2009-09-30T12:59:00Z</time>
      </trkpt>
      <trkpt lat="47.50517" lon="-2.78625">
        <ele>14.5570068</ele>
        <time>2009-09-30T12:59:07Z</time>
      </trkpt>
      <trkpt lat="47.50506" lon="-2.78631">
        <ele>15.0377197</ele>
        <time>2009-09-30T12:59:11Z</time>
      </trkpt>
      <trkpt lat="47.505" lon="-2.78635">
        <ele>14.5570068</ele>
        <time>2009-09-30T12:59:14Z</time>
      </trkpt>
      <trkpt lat="47.50473" lon="-2.78646">
        <ele>12.6343994</ele>
        <time>2009-09-30T12:59:23Z</time>
      </trkpt>
      <trkpt lat="47.50454" lon="-2.78652">
        <ele>10.2312012</ele>
        <time>2009-09-30T12:59:29Z</time>
      </trkpt>
      <trkpt lat="47.50433" lon="-2.78657">
        <ele>9.2698975</ele>
        <time>2009-09-30T12:59:35Z</time>
      </trkpt>
      <trkpt lat="47.50421" lon="-2.78659">
        <ele>7.8278809</ele>
        <time>2009-09-30T12:59:41Z</time>
      </trkpt>
      <trkpt lat="47.50402" lon="-2.78661">
        <ele>7.347168</ele>
        <time>2009-09-30T12:59:47Z</time>
      </trkpt>
      <trkpt lat="47.50374" lon="-2.78663">
        <ele>9.7506104</ele>
        <time>2009-09-30T12:59:53Z</time>
      </trkpt>
      <trkpt lat="47.50352" lon="-2.78672">
        <ele>12.6343994</ele>
        <time>2009-09-30T13:00:01Z</time>
      </trkpt>
      <trkpt lat="47.50341" lon="-2.78676">
        <ele>13.5958252</ele>
        <time>2009-09-30T13:00:06Z</time>
      </trkpt>
      <trkpt lat="47.50325" lon="-2.78679">
        <ele>14.076416</ele>
        <time>2009-09-30T13:00:12Z</time>
      </trkpt>
      <trkpt lat="47.50296" lon="-2.7869">
        <ele>15.5184326</ele>
        <time>2009-09-30T13:00:19Z</time>
      </trkpt>
      <trkpt lat="47.50274" lon="-2.78693">
        <ele>14.5570068</ele>
        <time>2009-09-30T13:00:24Z</time>
      </trkpt>
      <trkpt lat="47.50253" lon="-2.78697">
        <ele>15.0377197</ele>
        <time>2009-09-30T13:00:29Z</time>
      </trkpt>
      <trkpt lat="47.50226" lon="-2.78699">
        <ele>14.5570068</ele>
        <time>2009-09-30T13:00:35Z</time>
      </trkpt>
      <trkpt lat="47.50199" lon="-2.78704">
        <ele>17.4411621</ele>
        <time>2009-09-30T13:00:41Z</time>
      </trkpt>
      <trkpt lat="47.50168" lon="-2.78715">
        <ele>19.3637695</ele>
        <time>2009-09-30T13:00:48Z</time>
      </trkpt>
      <trkpt lat="47.50131" lon="-2.78724">
        <ele>18.4023438</ele>
        <time>2009-09-30T13:00:56Z</time>
      </trkpt>
      <trkpt lat="47.50115" lon="-2.78726">
        <ele>17.9217529</ele>
        <time>2009-09-30T13:01:01Z</time>
      </trkpt>
      <trkpt lat="47.501" lon="-2.78728">
        <ele>17.4411621</ele>
        <time>2009-09-30T13:01:06Z</time>
      </trkpt>
      <trkpt lat="47.50081" lon="-2.7873">
        <ele>15.5184326</ele>
        <time>2009-09-30T13:01:12Z</time>
      </trkpt>
      <trkpt lat="47.50063" lon="-2.7873">
        <ele>14.076416</ele>
        <time>2009-09-30T13:01:17Z</time>
      </trkpt>
      <trkpt lat="47.50051" lon="-2.78727">
        <ele>16.4797363</ele>
        <time>2009-09-30T13:01:20Z</time>
      </trkpt>
      <trkpt lat="47.50041" lon="-2.78727">
        <ele>16.4797363</ele>
        <time>2009-09-30T13:01:22Z</time>
      </trkpt>
      <trkpt lat="47.50018" lon="-2.78724">
        <ele>15.5184326</ele>
        <time>2009-09-30T13:01:26Z</time>
      </trkpt>
      <trkpt lat="47.49987" lon="-2.78727">
        <ele>13.1151123</ele>
        <time>2009-09-30T13:01:31Z</time>
      </trkpt>
      <trkpt lat="47.49965" lon="-2.78723">
        <ele>12.6343994</ele>
        <time>2009-09-30T13:01:34Z</time>
      </trkpt>
      <trkpt lat="47.49946" lon="-2.78722">
        <ele>12.6343994</ele>
        <time>2009-09-30T13:01:37Z</time>
      </trkpt>
      <trkpt lat="47.49918" lon="-2.78713">
        <ele>12.1538086</ele>
        <time>2009-09-30T13:01:42Z</time>
      </trkpt>
      <trkpt lat="47.4991" lon="-2.78711">
        <ele>11.6732178</ele>
        <time>2009-09-30T13:01:45Z</time>
      </trkpt>
      <trkpt lat="47.49903" lon="-2.78721">
        <ele>10.711792</ele>
        <time>2009-09-30T13:01:50Z</time>
      </trkpt>
      <trkpt lat="47.49879" lon="-2.78732">
        <ele>8.3085938</ele>
        <time>2009-09-30T13:01:56Z</time>
      </trkpt>
      <trkpt lat="47.49841" lon="-2.78733">
        <ele>5.4245605</ele>
        <time>2009-09-30T13:02:03Z</time>
      </trkpt>
      <trkpt lat="47.4983" lon="-2.78731">
        <ele>7.347168</ele>
        <time>2009-09-30T13:02:07Z</time>
      </trkpt>
      <trkpt lat="47.4983" lon="-2.78731">
        <ele>7.8278809</ele>
        <time>2009-09-30T13:02:12Z</time>
      </trkpt>
      <trkpt lat="47.49825" lon="-2.7875">
        <ele>8.7891846</ele>
        <time>2009-09-30T13:02:18Z</time>
      </trkpt>
      <trkpt lat="47.49809" lon="-2.78803">
        <ele>9.7506104</ele>
        <time>2009-09-30T13:02:27Z</time>
      </trkpt>
      <trkpt lat="47.49802" lon="-2.7882">
        <ele>9.7506104</ele>
        <time>2009-09-30T13:02:30Z</time>
      </trkpt>
      <trkpt lat="47.49798" lon="-2.78833">
        <ele>9.7506104</ele>
        <time>2009-09-30T13:02:32Z</time>
      </trkpt>
      <trkpt lat="47.49779" lon="-2.78864">
        <ele>10.2312012</ele>
        <time>2009-09-30T13:02:38Z</time>
      </trkpt>
      <trkpt lat="47.49774" lon="-2.78868">
        <ele>9.7506104</ele>
        <time>2009-09-30T13:02:39Z</time>
      </trkpt>
      <trkpt lat="47.49747" lon="-2.78887">
        <ele>8.3085938</ele>
        <time>2009-09-30T13:02:44Z</time>
      </trkpt>
      <trkpt lat="47.49741" lon="-2.78913">
        <ele>8.7891846</ele>
        <time>2009-09-30T13:02:48Z</time>
      </trkpt>
      <trkpt lat="47.49743" lon="-2.78918">
        <ele>9.2698975</ele>
        <time>2009-09-30T13:02:49Z</time>
      </trkpt>
      <trkpt lat="47.4976" lon="-2.7895">
        <ele>11.6732178</ele>
        <time>2009-09-30T13:02:58Z</time>
      </trkpt>
      <trkpt lat="47.49778" lon="-2.78975">
        <ele>10.2312012</ele>
        <time>2009-09-30T13:03:05Z</time>
      </trkpt>
      <trkpt lat="47.49818" lon="-2.79024">
        <ele>10.711792</ele>
        <time>2009-09-30T13:03:17Z</time>
      </trkpt>
      <trkpt lat="47.49844" lon="-2.79049">
        <ele>12.6343994</ele>
        <time>2009-09-30T13:03:25Z</time>
      </trkpt>
      <trkpt lat="47.49854" lon="-2.7906">
        <ele>13.1151123</ele>
        <time>2009-09-30T13:03:28Z</time>
      </trkpt>
      <trkpt lat="47.49883" lon="-2.79104">
        <ele>14.5570068</ele>
        <time>2009-09-30T13:03:37Z</time>
      </trkpt>
      <trkpt lat="47.49903" lon="-2.7915">
        <ele>15.9990234</ele>
        <time>2009-09-30T13:03:45Z</time>
      </trkpt>
      <trkpt lat="47.49926" lon="-2.7922">
        <ele>18.8830566</ele>
        <time>2009-09-30T13:03:57Z</time>
      </trkpt>
      <trkpt lat="47.4994" lon="-2.79271">
        <ele>20.8056641</ele>
        <time>2009-09-30T13:04:07Z</time>
      </trkpt>
      <trkpt lat="47.4995" lon="-2.79305">
        <ele>21.286377</ele>
        <time>2009-09-30T13:04:15Z</time>
      </trkpt>
      <trkpt lat="47.49953" lon="-2.79317">
        <ele>20.3249512</ele>
        <time>2009-09-30T13:04:18Z</time>
      </trkpt>
      <trkpt lat="47.49947" lon="-2.79331">
        <ele>20.3249512</ele>
        <time>2009-09-30T13:04:22Z</time>
      </trkpt>
      <trkpt lat="47.49914" lon="-2.79346">
        <ele>17.9217529</ele>
        <time>2009-09-30T13:04:29Z</time>
      </trkpt>
      <trkpt lat="47.49882" lon="-2.79357">
        <ele>16.4797363</ele>
        <time>2009-09-30T13:04:34Z</time>
      </trkpt>
      <trkpt lat="47.4986" lon="-2.7936">
        <ele>16.9604492</ele>
        <time>2009-09-30T13:04:37Z</time>
      </trkpt>
      <trkpt lat="47.49796" lon="-2.79379">
        <ele>16.9604492</ele>
        <time>2009-09-30T13:04:47Z</time>
      </trkpt>
      <trkpt lat="47.49783" lon="-2.79383">
        <ele>17.4411621</ele>
        <time>2009-09-30T13:04:49Z</time>
      </trkpt>
      <trkpt lat="47.49749" lon="-2.7939">
        <ele>16.4797363</ele>
        <time>2009-09-30T13:04:55Z</time>
      </trkpt>
      <trkpt lat="47.49733" lon="-2.79407">
        <ele>16.4797363</ele>
        <time>2009-09-30T13:04:59Z</time>
      </trkpt>
      <trkpt lat="47.49732" lon="-2.79429">
        <ele>16.9604492</ele>
        <time>2009-09-30T13:05:02Z</time>
      </trkpt>
      <trkpt lat="47.49736" lon="-2.79529">
        <ele>21.7669678</ele>
        <time>2009-09-30T13:05:16Z</time>
      </trkpt>
      <trkpt lat="47.49737" lon="-2.79572">
        <ele>24.1702881</ele>
        <time>2009-09-30T13:05:22Z</time>
      </trkpt>
      <trkpt lat="47.49744" lon="-2.79622">
        <ele>25.1317139</ele>
        <time>2009-09-30T13:05:30Z</time>
      </trkpt>
      <trkpt lat="47.49757" lon="-2.79681">
        <ele>26.0928955</ele>
        <time>2009-09-30T13:05:40Z</time>
      </trkpt>
      <trkpt lat="47.49773" lon="-2.7975">
        <ele>27.0543213</ele>
        <time>2009-09-30T13:05:52Z</time>
      </trkpt>
      <trkpt lat="47.49781" lon="-2.79777">
        <ele>27.0543213</ele>
        <time>2009-09-30T13:05:57Z</time>
      </trkpt>
      <trkpt lat="47.49797" lon="-2.79783">
        <ele>27.5349121</ele>
        <time>2009-09-30T13:06:02Z</time>
      </trkpt>
      <trkpt lat="47.49801" lon="-2.79781">
        <ele>27.0543213</ele>
        <time>2009-09-30T13:06:03Z</time>
      </trkpt>
      <trkpt lat="47.49852" lon="-2.79767">
        <ele>27.5349121</ele>
        <time>2009-09-30T13:06:15Z</time>
      </trkpt>
      <trkpt lat="47.49871" lon="-2.79761">
        <ele>27.5349121</ele>
        <time>2009-09-30T13:06:19Z</time>
      </trkpt>
      <trkpt lat="47.49926" lon="-2.79726">
        <ele>28.0155029</ele>
        <time>2009-09-30T13:06:32Z</time>
      </trkpt>
      <trkpt lat="47.49964" lon="-2.79718">
        <ele>26.0928955</ele>
        <time>2009-09-30T13:06:40Z</time>
      </trkpt>
      <trkpt lat="47.4999" lon="-2.79733">
        <ele>27.0543213</ele>
        <time>2009-09-30T13:06:46Z</time>
      </trkpt>
      <trkpt lat="47.50037" lon="-2.79778">
        <ele>28.0155029</ele>
        <time>2009-09-30T13:06:57Z</time>
      </trkpt>
      <trkpt lat="47.50095" lon="-2.79808">
        <ele>29.4575195</ele>
        <time>2009-09-30T13:07:09Z</time>
      </trkpt>
      <trkpt lat="47.50125" lon="-2.79818">
        <ele>30.4188232</ele>
        <time>2009-09-30T13:07:15Z</time>
      </trkpt>
      <trkpt lat="47.50187" lon="-2.79824">
        <ele>31.380127</ele>
        <time>2009-09-30T13:07:27Z</time>
      </trkpt>
      <trkpt lat="47.50192" lon="-2.79824">
        <ele>31.380127</ele>
        <time>2009-09-30T13:07:28Z</time>
      </trkpt>
      <trkpt lat="47.50247" lon="-2.7983">
        <ele>31.380127</ele>
        <time>2009-09-30T13:07:39Z</time>
      </trkpt>
      <trkpt lat="47.50266" lon="-2.7983">
        <ele>32.8222656</ele>
        <time>2009-09-30T13:07:43Z</time>
      </trkpt>
      <trkpt lat="47.50328" lon="-2.79849">
        <ele>35.2254639</ele>
        <time>2009-09-30T13:07:56Z</time>
      </trkpt>
      <trkpt lat="47.50352" lon="-2.79858">
        <ele>35.7060547</ele>
        <time>2009-09-30T13:08:01Z</time>
      </trkpt>
      <trkpt lat="47.50366" lon="-2.79859">
        <ele>36.1867676</ele>
        <time>2009-09-30T13:08:04Z</time>
      </trkpt>
      <trkpt lat="47.50403" lon="-2.79852">
        <ele>36.6674805</ele>
        <time>2009-09-30T13:08:14Z</time>
      </trkpt>
      <trkpt lat="47.50418" lon="-2.79847">
        <ele>36.1867676</ele>
        <time>2009-09-30T13:08:18Z</time>
      </trkpt>
      <trkpt lat="47.50422" lon="-2.79825">
        <ele>35.2254639</ele>
        <time>2009-09-30T13:08:22Z</time>
      </trkpt>
      <trkpt lat="47.50416" lon="-2.79782">
        <ele>34.2641602</ele>
        <time>2009-09-30T13:08:28Z</time>
      </trkpt>
      <trkpt lat="47.50417" lon="-2.79728">
        <ele>33.7834473</ele>
        <time>2009-09-30T13:08:35Z</time>
      </trkpt>
      <trkpt lat="47.50417" lon="-2.79707">
        <ele>33.3028564</ele>
        <time>2009-09-30T13:08:38Z</time>
      </trkpt>
      <trkpt lat="47.50428" lon="-2.79688">
        <ele>32.8222656</ele>
        <time>2009-09-30T13:08:42Z</time>
      </trkpt>
      <trkpt lat="47.50433" lon="-2.79688">
        <ele>32.8222656</ele>
        <time>2009-09-30T13:08:43Z</time>
      </trkpt>
      <trkpt lat="47.50456" lon="-2.7969">
        <ele>32.8222656</ele>
        <time>2009-09-30T13:08:48Z</time>
      </trkpt>
      <trkpt lat="47.50493" lon="-2.79677">
        <ele>33.7834473</ele>
        <time>2009-09-30T13:08:56Z</time>
      </trkpt>
      <trkpt lat="47.50527" lon="-2.79663">
        <ele>33.3028564</ele>
        <time>2009-09-30T13:09:03Z</time>
      </trkpt>
      <trkpt lat="47.50572" lon="-2.79666">
        <ele>34.744873</ele>
        <time>2009-09-30T13:09:12Z</time>
      </trkpt>
      <trkpt lat="47.50603" lon="-2.7967">
        <ele>34.744873</ele>
        <time>2009-09-30T13:09:18Z</time>
      </trkpt>
      <trkpt lat="47.50639" lon="-2.79663">
        <ele>35.2254639</ele>
        <time>2009-09-30T13:09:25Z</time>
      </trkpt>
      <trkpt lat="47.50679" lon="-2.79669">
        <ele>35.7060547</ele>
        <time>2009-09-30T13:09:33Z</time>
      </trkpt>
      <trkpt lat="47.50684" lon="-2.79672">
        <ele>35.7060547</ele>
        <time>2009-09-30T13:09:34Z</time>
      </trkpt>
      <trkpt lat="47.50748" lon="-2.79725">
        <ele>36.1867676</ele>
        <time>2009-09-30T13:09:49Z</time>
      </trkpt>
      <trkpt lat="47.50779" lon="-2.79749">
        <ele>37.6286621</ele>
        <time>2009-09-30T13:09:56Z</time>
      </trkpt>
      <trkpt lat="47.508" lon="-2.79765">
        <ele>38.109375</ele>
        <time>2009-09-30T13:10:01Z</time>
      </trkpt>
      <trkpt lat="47.50839" lon="-2.79797">
        <ele>37.6286621</ele>
        <time>2009-09-30T13:10:10Z</time>
      </trkpt>
      <trkpt lat="47.50886" lon="-2.7984">
        <ele>35.2254639</ele>
        <time>2009-09-30T13:10:20Z</time>
      </trkpt>
      <trkpt lat="47.5093" lon="-2.79876">
        <ele>36.1867676</ele>
        <time>2009-09-30T13:10:30Z</time>
      </trkpt>
      <trkpt lat="47.5098" lon="-2.79902">
        <ele>35.7060547</ele>
        <time>2009-09-30T13:10:40Z</time>
      </trkpt>
      <trkpt lat="47.51" lon="-2.79911">
        <ele>35.7060547</ele>
        <time>2009-09-30T13:10:44Z</time>
      </trkpt>
      <trkpt lat="47.51037" lon="-2.79947">
        <ele>34.2641602</ele>
        <time>2009-09-30T13:10:52Z</time>
      </trkpt>
      <trkpt lat="47.51067" lon="-2.7999">
        <ele>33.3028564</ele>
        <time>2009-09-30T13:10:59Z</time>
      </trkpt>
      <trkpt lat="47.51099" lon="-2.80061">
        <ele>31.8607178</ele>
        <time>2009-09-30T13:11:09Z</time>
      </trkpt>
      <trkpt lat="47.51105" lon="-2.80076">
        <ele>31.380127</ele>
        <time>2009-09-30T13:11:11Z</time>
      </trkpt>
      <trkpt lat="47.51124" lon="-2.80118">
        <ele>31.8607178</ele>
        <time>2009-09-30T13:11:17Z</time>
      </trkpt>
      <trkpt lat="47.51133" lon="-2.8014">
        <ele>31.380127</ele>
        <time>2009-09-30T13:11:20Z</time>
      </trkpt>
      <trkpt lat="47.51158" lon="-2.80202">
        <ele>32.3415527</ele>
        <time>2009-09-30T13:11:29Z</time>
      </trkpt>
      <trkpt lat="47.51185" lon="-2.8027">
        <ele>30.8995361</ele>
        <time>2009-09-30T13:11:40Z</time>
      </trkpt>
      <trkpt lat="47.5119" lon="-2.80284">
        <ele>32.8222656</ele>
        <time>2009-09-30T13:11:43Z</time>
      </trkpt>
      <trkpt lat="47.51198" lon="-2.80281">
        <ele>33.7834473</ele>
        <time>2009-09-30T13:11:48Z</time>
      </trkpt>
      <trkpt lat="47.51199" lon="-2.80278">
        <ele>33.3028564</ele>
        <time>2009-09-30T13:11:49Z</time>
      </trkpt>
      <trkpt lat="47.51221" lon="-2.80232">
        <ele>34.2641602</ele>
        <time>2009-09-30T13:11:59Z</time>
      </trkpt>
      <trkpt lat="47.5124" lon="-2.80196">
        <ele>35.7060547</ele>
        <time>2009-09-30T13:12:06Z</time>
      </trkpt>
      <trkpt lat="47.51259" lon="-2.80192">
        <ele>36.1867676</ele>
        <time>2009-09-30T13:12:11Z</time>
      </trkpt>
      <trkpt lat="47.51295" lon="-2.80231">
        <ele>38.109375</ele>
        <time>2009-09-30T13:12:20Z</time>
      </trkpt>
      <trkpt lat="47.51316" lon="-2.80247">
        <ele>38.5900879</ele>
        <time>2009-09-30T13:12:25Z</time>
      </trkpt>
      <trkpt lat="47.51359" lon="-2.80267">
        <ele>39.5512695</ele>
        <time>2009-09-30T13:12:34Z</time>
      </trkpt>
      <trkpt lat="47.51409" lon="-2.80293">
        <ele>40.0321045</ele>
        <time>2009-09-30T13:12:45Z</time>
      </trkpt>
      <trkpt lat="47.51445" lon="-2.80315">
        <ele>39.5512695</ele>
        <time>2009-09-30T13:12:54Z</time>
      </trkpt>
      <trkpt lat="47.51467" lon="-2.80322">
        <ele>39.5512695</ele>
        <time>2009-09-30T13:12:59Z</time>
      </trkpt>
      <trkpt lat="47.51496" lon="-2.80338">
        <ele>39.0706787</ele>
        <time>2009-09-30T13:13:06Z</time>
      </trkpt>
      <trkpt lat="47.51505" lon="-2.80344">
        <ele>38.5900879</ele>
        <time>2009-09-30T13:13:08Z</time>
      </trkpt>
      <trkpt lat="47.5152" lon="-2.80366">
        <ele>37.6286621</ele>
        <time>2009-09-30T13:13:13Z</time>
      </trkpt>
      <trkpt lat="47.51534" lon="-2.8038">
        <ele>38.5900879</ele>
        <time>2009-09-30T13:13:17Z</time>
      </trkpt>
      <trkpt lat="47.51543" lon="-2.80384">
        <ele>38.5900879</ele>
        <time>2009-09-30T13:13:19Z</time>
      </trkpt>
      <trkpt lat="47.51551" lon="-2.80391">
        <ele>38.109375</ele>
        <time>2009-09-30T13:13:21Z</time>
      </trkpt>
      <trkpt lat="47.51563" lon="-2.80411">
        <ele>37.1480713</ele>
        <time>2009-09-30T13:13:25Z</time>
      </trkpt>
      <trkpt lat="47.51569" lon="-2.80435">
        <ele>36.6674805</ele>
        <time>2009-09-30T13:13:29Z</time>
      </trkpt>
      <trkpt lat="47.51586" lon="-2.80459">
        <ele>36.1867676</ele>
        <time>2009-09-30T13:13:35Z</time>
      </trkpt>
      <trkpt lat="47.51602" lon="-2.80484">
        <ele>36.6674805</ele>
        <time>2009-09-30T13:13:41Z</time>
      </trkpt>
      <trkpt lat="47.51618" lon="-2.80502">
        <ele>35.7060547</ele>
        <time>2009-09-30T13:13:46Z</time>
      </trkpt>
      <trkpt lat="47.51624" lon="-2.8052">
        <ele>35.7060547</ele>
        <time>2009-09-30T13:13:51Z</time>
      </trkpt>
      <trkpt lat="47.51633" lon="-2.80546">
        <ele>33.7834473</ele>
        <time>2009-09-30T13:13:58Z</time>
      </trkpt>
      <trkpt lat="47.5164" lon="-2.80562">
        <ele>32.8222656</ele>
        <time>2009-09-30T13:14:02Z</time>
      </trkpt>
      <trkpt lat="47.51657" lon="-2.8058">
        <ele>34.2641602</ele>
        <time>2009-09-30T13:14:10Z</time>
      </trkpt>
      <trkpt lat="47.5166" lon="-2.80581">
        <ele>33.7834473</ele>
        <time>2009-09-30T13:14:15Z</time>
      </trkpt>
      <trkpt lat="47.51659" lon="-2.80581">
        <ele>33.3028564</ele>
        <time>2009-09-30T13:14:24Z</time>
      </trkpt>
      <trkpt lat="47.51649" lon="-2.80572">
        <ele>33.7834473</ele>
        <time>2009-09-30T13:14:33Z</time>
      </trkpt>
      <trkpt lat="47.51648" lon="-2.80571">
        <ele>34.2641602</ele>
        <time>2009-09-30T13:14:34Z</time>
      </trkpt>
      <trkpt lat="47.51646" lon="-2.8057">
        <ele>34.744873</ele>
        <time>2009-09-30T13:14:36Z</time>
      </trkpt>
      <trkpt lat="47.51642" lon="-2.80573">
        <ele>32.3415527</ele>
        <time>2009-09-30T13:14:40Z</time>
      </trkpt>
      <trkpt lat="47.51623" lon="-2.80582">
        <ele>31.8607178</ele>
        <time>2009-09-30T13:14:47Z</time>
      </trkpt>
      <trkpt lat="47.51607" lon="-2.806">
        <ele>31.380127</ele>
        <time>2009-09-30T13:14:53Z</time>
      </trkpt>
      <trkpt lat="47.51605" lon="-2.80615">
        <ele>31.8607178</ele>
        <time>2009-09-30T13:14:58Z</time>
      </trkpt>
      <trkpt lat="47.51602" lon="-2.80645">
        <ele>31.8607178</ele>
        <time>2009-09-30T13:15:06Z</time>
      </trkpt>
      <trkpt lat="47.51602" lon="-2.80649">
        <ele>31.8607178</ele>
        <time>2009-09-30T13:15:07Z</time>
      </trkpt>
      <trkpt lat="47.516" lon="-2.80655">
        <ele>32.8222656</ele>
        <time>2009-09-30T13:15:09Z</time>
      </trkpt>
      <trkpt lat="47.51603" lon="-2.80687">
        <ele>36.1867676</ele>
        <time>2009-09-30T13:15:18Z</time>
      </trkpt>
      <trkpt lat="47.51601" lon="-2.80693">
        <ele>36.6674805</ele>
        <time>2009-09-30T13:15:20Z</time>
      </trkpt>
      <trkpt lat="47.51604" lon="-2.80716">
        <ele>38.109375</ele>
        <time>2009-09-30T13:15:26Z</time>
      </trkpt>
      <trkpt lat="47.51605" lon="-2.80721">
        <ele>38.5900879</ele>
        <time>2009-09-30T13:15:27Z</time>
      </trkpt>
      <trkpt lat="47.5161" lon="-2.80758">
        <ele>39.5512695</ele>
        <time>2009-09-30T13:15:34Z</time>
      </trkpt>
      <trkpt lat="47.51619" lon="-2.80797">
        <ele>40.9934082</ele>
        <time>2009-09-30T13:15:41Z</time>
      </trkpt>
      <trkpt lat="47.51616" lon="-2.80838">
        <ele>39.5512695</ele>
        <time>2009-09-30T13:15:46Z</time>
      </trkpt>
      <trkpt lat="47.51616" lon="-2.80845">
        <ele>39.5512695</ele>
        <time>2009-09-30T13:15:47Z</time>
      </trkpt>
      <trkpt lat="47.51614" lon="-2.8087">
        <ele>38.5900879</ele>
        <time>2009-09-30T13:15:50Z</time>
      </trkpt>
      <trkpt lat="47.51613" lon="-2.80894">
        <ele>38.5900879</ele>
        <time>2009-09-30T13:15:53Z</time>
      </trkpt>
      <trkpt lat="47.51613" lon="-2.80918">
        <ele>38.109375</ele>
        <time>2009-09-30T13:15:56Z</time>
      </trkpt>
      <trkpt lat="47.5161" lon="-2.80952">
        <ele>37.1480713</ele>
        <time>2009-09-30T13:16:00Z</time>
      </trkpt>
      <trkpt lat="47.51606" lon="-2.8098">
        <ele>37.1480713</ele>
        <time>2009-09-30T13:16:04Z</time>
      </trkpt>
      <trkpt lat="47.51602" lon="-2.80999">
        <ele>36.1867676</ele>
        <time>2009-09-30T13:16:07Z</time>
      </trkpt>
      <trkpt lat="47.51597" lon="-2.81043">
        <ele>35.7060547</ele>
        <time>2009-09-30T13:16:13Z</time>
      </trkpt>
      <trkpt lat="47.51595" lon="-2.81065">
        <ele>35.2254639</ele>
        <time>2009-09-30T13:16:16Z</time>
      </trkpt>
      <trkpt lat="47.51581" lon="-2.81143">
        <ele>34.744873</ele>
        <time>2009-09-30T13:16:28Z</time>
      </trkpt>
      <trkpt lat="47.51572" lon="-2.81196">
        <ele>36.6674805</ele>
        <time>2009-09-30T13:16:38Z</time>
      </trkpt>
      <trkpt lat="47.51563" lon="-2.81248">
        <ele>36.1867676</ele>
        <time>2009-09-30T13:16:47Z</time>
      </trkpt>
      <trkpt lat="47.51562" lon="-2.8126">
        <ele>36.6674805</ele>
        <time>2009-09-30T13:16:49Z</time>
      </trkpt>
      <trkpt lat="47.51556" lon="-2.81305">
        <ele>37.6286621</ele>
        <time>2009-09-30T13:16:55Z</time>
      </trkpt>
      <trkpt lat="47.51552" lon="-2.81322">
        <ele>37.6286621</ele>
        <time>2009-09-30T13:16:57Z</time>
      </trkpt>
      <trkpt lat="47.51557" lon="-2.81393">
        <ele>36.6674805</ele>
        <time>2009-09-30T13:17:05Z</time>
      </trkpt>
      <trkpt lat="47.51558" lon="-2.81402">
        <ele>36.6674805</ele>
        <time>2009-09-30T13:17:06Z</time>
      </trkpt>
      <trkpt lat="47.51554" lon="-2.81457">
        <ele>35.7060547</ele>
        <time>2009-09-30T13:17:12Z</time>
      </trkpt>
      <trkpt lat="47.51551" lon="-2.81511">
        <ele>35.2254639</ele>
        <time>2009-09-30T13:17:18Z</time>
      </trkpt>
      <trkpt lat="47.51548" lon="-2.81555">
        <ele>33.7834473</ele>
        <time>2009-09-30T13:17:24Z</time>
      </trkpt>
      <trkpt lat="47.5155" lon="-2.81559">
        <ele>33.7834473</ele>
        <time>2009-09-30T13:17:25Z</time>
      </trkpt>
      <trkpt lat="47.51573" lon="-2.81571">
        <ele>34.2641602</ele>
        <time>2009-09-30T13:17:31Z</time>
      </trkpt>
      <trkpt lat="47.51594" lon="-2.81583">
        <ele>33.3028564</ele>
        <time>2009-09-30T13:17:35Z</time>
      </trkpt>
      <trkpt lat="47.5162" lon="-2.81616">
        <ele>30.8995361</ele>
        <time>2009-09-30T13:17:40Z</time>
      </trkpt>
      <trkpt lat="47.51628" lon="-2.81647">
        <ele>29.9381104</ele>
        <time>2009-09-30T13:17:43Z</time>
      </trkpt>
      <trkpt lat="47.51638" lon="-2.8177">
        <ele>26.0928955</ele>
        <time>2009-09-30T13:17:53Z</time>
      </trkpt>
      <trkpt lat="47.51641" lon="-2.81795">
        <ele>26.0928955</ele>
        <time>2009-09-30T13:17:55Z</time>
      </trkpt>
      <trkpt lat="47.51663" lon="-2.81852">
        <ele>23.6895752</ele>
        <time>2009-09-30T13:18:00Z</time>
      </trkpt>
      <trkpt lat="47.51692" lon="-2.81876">
        <ele>22.7282715</ele>
        <time>2009-09-30T13:18:04Z</time>
      </trkpt>
      <trkpt lat="47.51701" lon="-2.81879">
        <ele>22.7282715</ele>
        <time>2009-09-30T13:18:05Z</time>
      </trkpt>
      <trkpt lat="47.51746" lon="-2.81899">
        <ele>21.7669678</ele>
        <time>2009-09-30T13:18:11Z</time>
      </trkpt>
      <trkpt lat="47.51789" lon="-2.81932">
        <ele>21.286377</ele>
        <time>2009-09-30T13:18:17Z</time>
      </trkpt>
      <trkpt lat="47.51827" lon="-2.81977">
        <ele>19.3637695</ele>
        <time>2009-09-30T13:18:23Z</time>
      </trkpt>
      <trkpt lat="47.5187" lon="-2.82055">
        <ele>16.4797363</ele>
        <time>2009-09-30T13:18:31Z</time>
      </trkpt>
      <trkpt lat="47.51896" lon="-2.82107">
        <ele>15.0377197</ele>
        <time>2009-09-30T13:18:37Z</time>
      </trkpt>
      <trkpt lat="47.51901" lon="-2.82116">
        <ele>15.0377197</ele>
        <time>2009-09-30T13:18:38Z</time>
      </trkpt>
      <trkpt lat="47.5192" lon="-2.82194">
        <ele>15.9990234</ele>
        <time>2009-09-30T13:18:46Z</time>
      </trkpt>
      <trkpt lat="47.51936" lon="-2.82292">
        <ele>17.4411621</ele>
        <time>2009-09-30T13:18:57Z</time>
      </trkpt>
      <trkpt lat="47.5195" lon="-2.82384">
        <ele>19.8443604</ele>
        <time>2009-09-30T13:19:08Z</time>
      </trkpt>
      <trkpt lat="47.51967" lon="-2.8248">
        <ele>19.8443604</ele>
        <time>2009-09-30T13:19:19Z</time>
      </trkpt>
      <trkpt lat="47.51973" lon="-2.82514">
        <ele>20.3249512</ele>
        <time>2009-09-30T13:19:23Z</time>
      </trkpt>
      <trkpt lat="47.51985" lon="-2.82564">
        <ele>19.8443604</ele>
        <time>2009-09-30T13:19:29Z</time>
      </trkpt>
      <trkpt lat="47.52016" lon="-2.82636">
        <ele>17.4411621</ele>
        <time>2009-09-30T13:19:38Z</time>
      </trkpt>
      <trkpt lat="47.52031" lon="-2.82709">
        <ele>15.5184326</ele>
        <time>2009-09-30T13:19:45Z</time>
      </trkpt>
      <trkpt lat="47.52033" lon="-2.8272">
        <ele>15.0377197</ele>
        <time>2009-09-30T13:19:46Z</time>
      </trkpt>
      <trkpt lat="47.52061" lon="-2.82786">
        <ele>11.6732178</ele>
        <time>2009-09-30T13:19:52Z</time>
      </trkpt>
      <trkpt lat="47.52099" lon="-2.82872">
        <ele>8.7891846</ele>
        <time>2009-09-30T13:20:00Z</time>
      </trkpt>
      <trkpt lat="47.5211" lon="-2.82893">
        <ele>7.8278809</ele>
        <time>2009-09-30T13:20:02Z</time>
      </trkpt>
      <trkpt lat="47.5215" lon="-2.82926">
        <ele>4.9438477</ele>
        <time>2009-09-30T13:20:07Z</time>
      </trkpt>
      <trkpt lat="47.52201" lon="-2.82962">
        <ele>3.0212402</ele>
        <time>2009-09-30T13:20:13Z</time>
      </trkpt>
      <trkpt lat="47.5226" lon="-2.83017">
        <ele>0.1374512</ele>
        <time>2009-09-30T13:20:21Z</time>
      </trkpt>
      <trkpt lat="47.52283" lon="-2.83068">
        <ele>-0.3433838</ele>
        <time>2009-09-30T13:20:26Z</time>
      </trkpt>
      <trkpt lat="47.52286" lon="-2.83082">
        <ele>-0.3433838</ele>
        <time>2009-09-30T13:20:27Z</time>
      </trkpt>
      <trkpt lat="47.52303" lon="-2.83223">
        <ele>-1.3046875</ele>
        <time>2009-09-30T13:20:38Z</time>
      </trkpt>
      <trkpt lat="47.52308" lon="-2.8327">
        <ele>-1.3046875</ele>
        <time>2009-09-30T13:20:42Z</time>
      </trkpt>
      <trkpt lat="47.52314" lon="-2.83303">
        <ele>-0.8240967</ele>
        <time>2009-09-30T13:20:45Z</time>
      </trkpt>
      <trkpt lat="47.52319" lon="-2.83332">
        <ele>-0.8240967</ele>
        <time>2009-09-30T13:20:48Z</time>
      </trkpt>
      <trkpt lat="47.52348" lon="-2.83377">
        <ele>-1.3046875</ele>
        <time>2009-09-30T13:20:54Z</time>
      </trkpt>
      <trkpt lat="47.52354" lon="-2.83384">
        <ele>-1.7852783</ele>
        <time>2009-09-30T13:20:55Z</time>
      </trkpt>
      <trkpt lat="47.52377" lon="-2.83434">
        <ele>-0.3433838</ele>
        <time>2009-09-30T13:21:01Z</time>
      </trkpt>
      <trkpt lat="47.52392" lon="-2.83479">
        <ele>-0.3433838</ele>
        <time>2009-09-30T13:21:07Z</time>
      </trkpt>
      <trkpt lat="47.52388" lon="-2.83498">
        <ele>-0.8240967</ele>
        <time>2009-09-30T13:21:11Z</time>
      </trkpt>
      <trkpt lat="47.5238" lon="-2.83494">
        <ele>-1.3046875</ele>
        <time>2009-09-30T13:21:13Z</time>
      </trkpt>
      <trkpt lat="47.52332" lon="-2.83467">
        <ele>-0.8240967</ele>
        <time>2009-09-30T13:21:23Z</time>
      </trkpt>
      <trkpt lat="47.52276" lon="-2.83444">
        <ele>-0.8240967</ele>
        <time>2009-09-30T13:21:33Z</time>
      </trkpt>
      <trkpt lat="47.52237" lon="-2.83436">
        <ele>-0.8240967</ele>
        <time>2009-09-30T13:21:39Z</time>
      </trkpt>
      <trkpt lat="47.52197" lon="-2.83433">
        <ele>-1.3046875</ele>
        <time>2009-09-30T13:21:45Z</time>
      </trkpt>
      <trkpt lat="47.52123" lon="-2.8344">
        <ele>0.618042</ele>
        <time>2009-09-30T13:21:56Z</time>
      </trkpt>
      <trkpt lat="47.52071" lon="-2.83457">
        <ele>0.618042</ele>
        <time>2009-09-30T13:22:04Z</time>
      </trkpt>
      <trkpt lat="47.52033" lon="-2.83475">
        <ele>1.0986328</ele>
        <time>2009-09-30T13:22:10Z</time>
      </trkpt>
      <trkpt lat="47.51987" lon="-2.83507">
        <ele>1.5793457</ele>
        <time>2009-09-30T13:22:18Z</time>
      </trkpt>
      <trkpt lat="47.51981" lon="-2.83511">
        <ele>1.5793457</ele>
        <time>2009-09-30T13:22:19Z</time>
      </trkpt>
      <trkpt lat="47.51921" lon="-2.83571">
        <ele>2.5406494</ele>
        <time>2009-09-30T13:22:31Z</time>
      </trkpt>
      <trkpt lat="47.51871" lon="-2.83632">
        <ele>2.0600586</ele>
        <time>2009-09-30T13:22:42Z</time>
      </trkpt>
      <trkpt lat="47.51843" lon="-2.83678">
        <ele>2.5406494</ele>
        <time>2009-09-30T13:22:49Z</time>
      </trkpt>
      <trkpt lat="47.51829" lon="-2.83703">
        <ele>3.0212402</ele>
        <time>2009-09-30T13:22:53Z</time>
      </trkpt>
      <trkpt lat="47.51804" lon="-2.83759">
        <ele>3.982666</ele>
        <time>2009-09-30T13:23:02Z</time>
      </trkpt>
      <trkpt lat="47.5177" lon="-2.83835">
        <ele>5.4245605</ele>
        <time>2009-09-30T13:23:15Z</time>
      </trkpt>
      <trkpt lat="47.51751" lon="-2.83882">
        <ele>6.3858643</ele>
        <time>2009-09-30T13:23:23Z</time>
      </trkpt>
      <trkpt lat="47.51737" lon="-2.8391">
        <ele>6.8664551</ele>
        <time>2009-09-30T13:23:28Z</time>
      </trkpt>
      <trkpt lat="47.51728" lon="-2.83927">
        <ele>7.347168</ele>
        <time>2009-09-30T13:23:31Z</time>
      </trkpt>
      <trkpt lat="47.51694" lon="-2.84004">
        <ele>9.7506104</ele>
        <time>2009-09-30T13:23:44Z</time>
      </trkpt>
      <trkpt lat="47.51678" lon="-2.84039">
        <ele>10.2312012</ele>
        <time>2009-09-30T13:23:50Z</time>
      </trkpt>
      <trkpt lat="47.5167" lon="-2.84055">
        <ele>10.711792</ele>
        <time>2009-09-30T13:23:53Z</time>
      </trkpt>
      <trkpt lat="47.51643" lon="-2.841">
        <ele>12.1538086</ele>
        <time>2009-09-30T13:24:03Z</time>
      </trkpt>
      <trkpt lat="47.51625" lon="-2.8412">
        <ele>12.1538086</ele>
        <time>2009-09-30T13:24:09Z</time>
      </trkpt>
      <trkpt lat="47.51615" lon="-2.8413">
        <ele>12.6343994</ele>
        <time>2009-09-30T13:24:12Z</time>
      </trkpt>
      <trkpt lat="47.5159" lon="-2.84159">
        <ele>13.1151123</ele>
        <time>2009-09-30T13:24:20Z</time>
      </trkpt>
      <trkpt lat="47.51587" lon="-2.8416">
        <ele>12.6343994</ele>
        <time>2009-09-30T13:24:21Z</time>
      </trkpt>
      <trkpt lat="47.51581" lon="-2.84181">
        <ele>12.1538086</ele>
        <time>2009-09-30T13:24:26Z</time>
      </trkpt>
      <trkpt lat="47.51589" lon="-2.8424">
        <ele>10.711792</ele>
        <time>2009-09-30T13:24:35Z</time>
      </trkpt>
      <trkpt lat="47.51591" lon="-2.84254">
        <ele>10.2312012</ele>
        <time>2009-09-30T13:24:37Z</time>
      </trkpt>
      <trkpt lat="47.51605" lon="-2.8427">
        <ele>7.347168</ele>
        <time>2009-09-30T13:24:41Z</time>
      </trkpt>
      <trkpt lat="47.51622" lon="-2.84272">
        <ele>5.9052734</ele>
        <time>2009-09-30T13:24:44Z</time>
      </trkpt>
      <trkpt lat="47.51634" lon="-2.84269">
        <ele>5.4245605</ele>
        <time>2009-09-30T13:24:46Z</time>
      </trkpt>
      <trkpt lat="47.51657" lon="-2.84286">
        <ele>2.5406494</ele>
        <time>2009-09-30T13:24:50Z</time>
      </trkpt>
      <trkpt lat="47.51661" lon="-2.84305">
        <ele>1.0986328</ele>
        <time>2009-09-30T13:24:52Z</time>
      </trkpt>
      <trkpt lat="47.51665" lon="-2.84344">
        <ele>-0.8240967</ele>
        <time>2009-09-30T13:24:56Z</time>
      </trkpt>
      <trkpt lat="47.51662" lon="-2.84381">
        <ele>-2.7467041</ele>
        <time>2009-09-30T13:25:00Z</time>
      </trkpt>
      <trkpt lat="47.51655" lon="-2.84405">
        <ele>-3.2272949</ele>
        <time>2009-09-30T13:25:06Z</time>
      </trkpt>
      <trkpt lat="47.51655" lon="-2.84405">
        <ele>-3.2272949</ele>
        <time>2009-09-30T13:25:12Z</time>
      </trkpt>
      <trkpt lat="47.51653" lon="-2.84412">
        <ele>-2.2659912</ele>
        <time>2009-09-30T13:25:26Z</time>
      </trkpt>
      <trkpt lat="47.51652" lon="-2.84415">
        <ele>-1.7852783</ele>
        <time>2009-09-30T13:25:28Z</time>
      </trkpt>
      <trkpt lat="47.51651" lon="-2.84437">
        <ele>-1.7852783</ele>
        <time>2009-09-30T13:25:34Z</time>
      </trkpt>
      <trkpt lat="47.5165" lon="-2.84482">
        <ele>-0.8240967</ele>
        <time>2009-09-30T13:25:42Z</time>
      </trkpt>
      <trkpt lat="47.51649" lon="-2.84487">
        <ele>-0.8240967</ele>
        <time>2009-09-30T13:25:43Z</time>
      </trkpt>
      <trkpt lat="47.51658" lon="-2.84497">
        <ele>-0.3433838</ele>
        <time>2009-09-30T13:25:47Z</time>
      </trkpt>
      <trkpt lat="47.51671" lon="-2.84499">
        <ele>0.1374512</ele>
        <time>2009-09-30T13:25:50Z</time>
      </trkpt>
      <trkpt lat="47.51714" lon="-2.84515">
        <ele>1.5793457</ele>
        <time>2009-09-30T13:25:59Z</time>
      </trkpt>
      <trkpt lat="47.51754" lon="-2.84529">
        <ele>3.982666</ele>
        <time>2009-09-30T13:26:07Z</time>
      </trkpt>
      <trkpt lat="47.51782" lon="-2.84559">
        <ele>4.4632568</ele>
        <time>2009-09-30T13:26:14Z</time>
      </trkpt>
      <trkpt lat="47.51803" lon="-2.84588">
        <ele>3.0212402</ele>
        <time>2009-09-30T13:26:20Z</time>
      </trkpt>
      <trkpt lat="47.51819" lon="-2.84603">
        <ele>3.5019531</ele>
        <time>2009-09-30T13:26:24Z</time>
      </trkpt>
      <trkpt lat="47.5185" lon="-2.84659">
        <ele>2.5406494</ele>
        <time>2009-09-30T13:26:33Z</time>
      </trkpt>
      <trkpt lat="47.51879" lon="-2.84696">
        <ele>-0.8240967</ele>
        <time>2009-09-30T13:26:39Z</time>
      </trkpt>
      <trkpt lat="47.51918" lon="-2.84714">
        <ele>-1.7852783</ele>
        <time>2009-09-30T13:26:44Z</time>
      </trkpt>
      <trkpt lat="47.51984" lon="-2.84719">
        <ele>0.618042</ele>
        <time>2009-09-30T13:26:53Z</time>
      </trkpt>
      <trkpt lat="47.52004" lon="-2.84724">
        <ele>2.0600586</ele>
        <time>2009-09-30T13:26:58Z</time>
      </trkpt>
      <trkpt lat="47.52" lon="-2.84728">
        <ele>1.5793457</ele>
        <time>2009-09-30T13:27:02Z</time>
      </trkpt>
      <trkpt lat="47.51998" lon="-2.84726">
        <ele>1.5793457</ele>
        <time>2009-09-30T13:27:03Z</time>
      </trkpt>
      <trkpt lat="47.51991" lon="-2.84721">
        <ele>1.0986328</ele>
        <time>2009-09-30T13:27:05Z</time>
      </trkpt>
      <trkpt lat="47.51976" lon="-2.84719">
        <ele>-0.3433838</ele>
        <time>2009-09-30T13:27:09Z</time>
      </trkpt>
      <trkpt lat="47.51976" lon="-2.84736">
        <ele>-0.3433838</ele>
        <time>2009-09-30T13:27:13Z</time>
      </trkpt>
      <trkpt lat="47.51982" lon="-2.84741">
        <ele>0.618042</ele>
        <time>2009-09-30T13:27:15Z</time>
      </trkpt>
      <trkpt lat="47.52015" lon="-2.84774">
        <ele>3.5019531</ele>
        <time>2009-09-30T13:27:25Z</time>
      </trkpt>
      <trkpt lat="47.52027" lon="-2.84783">
        <ele>3.5019531</ele>
        <time>2009-09-30T13:27:28Z</time>
      </trkpt>
      <trkpt lat="47.52062" lon="-2.84821">
        <ele>3.982666</ele>
        <time>2009-09-30T13:27:37Z</time>
      </trkpt>
      <trkpt lat="47.52104" lon="-2.84862">
        <ele>3.0212402</ele>
        <time>2009-09-30T13:27:46Z</time>
      </trkpt>
      <trkpt lat="47.52125" lon="-2.84885">
        <ele>3.982666</ele>
        <time>2009-09-30T13:27:51Z</time>
      </trkpt>
      <trkpt lat="47.52179" lon="-2.84922">
        <ele>4.9438477</ele>
        <time>2009-09-30T13:28:02Z</time>
      </trkpt>
      <trkpt lat="47.52224" lon="-2.8496">
        <ele>4.4632568</ele>
        <time>2009-09-30T13:28:12Z</time>
      </trkpt>
      <trkpt lat="47.52237" lon="-2.84976">
        <ele>3.5019531</ele>
        <time>2009-09-30T13:28:15Z</time>
      </trkpt>
      <trkpt lat="47.5226" lon="-2.85005">
        <ele>2.0600586</ele>
        <time>2009-09-30T13:28:20Z</time>
      </trkpt>
      <trkpt lat="47.52281" lon="-2.85058">
        <ele>1.0986328</ele>
        <time>2009-09-30T13:28:27Z</time>
      </trkpt>
      <trkpt lat="47.52302" lon="-2.85132">
        <ele>0.618042</ele>
        <time>2009-09-30T13:28:36Z</time>
      </trkpt>
      <trkpt lat="47.52316" lon="-2.852">
        <ele>0.618042</ele>
        <time>2009-09-30T13:28:44Z</time>
      </trkpt>
      <trkpt lat="47.52328" lon="-2.85227">
        <ele>0.618042</ele>
        <time>2009-09-30T13:28:48Z</time>
      </trkpt>
      <trkpt lat="47.52363" lon="-2.85271">
        <ele>0.1374512</ele>
        <time>2009-09-30T13:28:57Z</time>
      </trkpt>
      <trkpt lat="47.52396" lon="-2.85301">
        <ele>0.618042</ele>
        <time>2009-09-30T13:29:05Z</time>
      </trkpt>
      <trkpt lat="47.52403" lon="-2.85311">
        <ele>0.618042</ele>
        <time>2009-09-30T13:29:07Z</time>
      </trkpt>
      <trkpt lat="47.52423" lon="-2.85342">
        <ele>0.1374512</ele>
        <time>2009-09-30T13:29:13Z</time>
      </trkpt>
      <trkpt lat="47.5244" lon="-2.85363">
        <ele>0.1374512</ele>
        <time>2009-09-30T13:29:17Z</time>
      </trkpt>
      <trkpt lat="47.52476" lon="-2.85425">
        <ele>-0.3433838</ele>
        <time>2009-09-30T13:29:27Z</time>
      </trkpt>
      <trkpt lat="47.52503" lon="-2.85472">
        <ele>-1.3046875</ele>
        <time>2009-09-30T13:29:34Z</time>
      </trkpt>
      <trkpt lat="47.52547" lon="-2.85517">
        <ele>-0.8240967</ele>
        <time>2009-09-30T13:29:43Z</time>
      </trkpt>
      <trkpt lat="47.52593" lon="-2.85555">
        <ele>-0.3433838</ele>
        <time>2009-09-30T13:29:51Z</time>
      </trkpt>
      <trkpt lat="47.52648" lon="-2.85604">
        <ele>0.1374512</ele>
        <time>2009-09-30T13:30:00Z</time>
      </trkpt>
      <trkpt lat="47.52705" lon="-2.85648">
        <ele>0.1374512</ele>
        <time>2009-09-30T13:30:09Z</time>
      </trkpt>
      <trkpt lat="47.52711" lon="-2.85654">
        <ele>0.1374512</ele>
        <time>2009-09-30T13:30:10Z</time>
      </trkpt>
      <trkpt lat="47.52736" lon="-2.85686">
        <ele>-2.2659912</ele>
        <time>2009-09-30T13:30:14Z</time>
      </trkpt>
      <trkpt lat="47.52759" lon="-2.85737">
        <ele>-4.1885986</ele>
        <time>2009-09-30T13:30:20Z</time>
      </trkpt>
      <trkpt lat="47.52764" lon="-2.85749">
        <ele>-4.6693115</ele>
        <time>2009-09-30T13:30:24Z</time>
      </trkpt>
      <trkpt lat="47.52773" lon="-2.85733">
        <ele>-4.6693115</ele>
        <time>2009-09-30T13:30:31Z</time>
      </trkpt>
      <trkpt lat="47.52773" lon="-2.85716">
        <ele>-5.1499023</ele>
        <time>2009-09-30T13:30:34Z</time>
      </trkpt>
      <trkpt lat="47.52771" lon="-2.85696">
        <ele>-3.7078857</ele>
        <time>2009-09-30T13:30:37Z</time>
      </trkpt>
      <trkpt lat="47.5277" lon="-2.85671">
        <ele>-1.7852783</ele>
        <time>2009-09-30T13:30:41Z</time>
      </trkpt>
      <trkpt lat="47.52767" lon="-2.85628">
        <ele>-0.8240967</ele>
        <time>2009-09-30T13:30:46Z</time>
      </trkpt>
      <trkpt lat="47.52772" lon="-2.8557">
        <ele>2.5406494</ele>
        <time>2009-09-30T13:30:53Z</time>
      </trkpt>
      <trkpt lat="47.52777" lon="-2.85547">
        <ele>3.982666</ele>
        <time>2009-09-30T13:30:56Z</time>
      </trkpt>
      <trkpt lat="47.52802" lon="-2.85512">
        <ele>1.0986328</ele>
        <time>2009-09-30T13:31:02Z</time>
      </trkpt>
      <trkpt lat="47.52825" lon="-2.85486">
        <ele>-0.8240967</ele>
        <time>2009-09-30T13:31:07Z</time>
      </trkpt>
      <trkpt lat="47.52839" lon="-2.85474">
        <ele>0.1374512</ele>
        <time>2009-09-30T13:31:10Z</time>
      </trkpt>
      <trkpt lat="47.52853" lon="-2.85446">
        <ele>-0.8240967</ele>
        <time>2009-09-30T13:31:14Z</time>
      </trkpt>
      <trkpt lat="47.5287" lon="-2.85407">
        <ele>-2.7467041</ele>
        <time>2009-09-30T13:31:19Z</time>
      </trkpt>
      <trkpt lat="47.52877" lon="-2.85358">
        <ele>-3.7078857</ele>
        <time>2009-09-30T13:31:25Z</time>
      </trkpt>
      <trkpt lat="47.52874" lon="-2.85333">
        <ele>-4.1885986</ele>
        <time>2009-09-30T13:31:28Z</time>
      </trkpt>
      <trkpt lat="47.5286" lon="-2.85292">
        <ele>-4.6693115</ele>
        <time>2009-09-30T13:31:34Z</time>
      </trkpt>
      <trkpt lat="47.52836" lon="-2.85275">
        <ele>-4.6693115</ele>
        <time>2009-09-30T13:31:39Z</time>
      </trkpt>
      <trkpt lat="47.5283" lon="-2.85277">
        <ele>-4.6693115</ele>
        <time>2009-09-30T13:31:40Z</time>
      </trkpt>
      <trkpt lat="47.52819" lon="-2.8528">
        <ele>-4.1885986</ele>
        <time>2009-09-30T13:31:42Z</time>
      </trkpt>
      <trkpt lat="47.52799" lon="-2.85269">
        <ele>-4.1885986</ele>
        <time>2009-09-30T13:31:46Z</time>
      </trkpt>
      <trkpt lat="47.52793" lon="-2.85257">
        <ele>-4.1885986</ele>
        <time>2009-09-30T13:31:48Z</time>
      </trkpt>
      <trkpt lat="47.52798" lon="-2.8521">
        <ele>-3.7078857</ele>
        <time>2009-09-30T13:31:54Z</time>
      </trkpt>
      <trkpt lat="47.52799" lon="-2.85202">
        <ele>-3.7078857</ele>
        <time>2009-09-30T13:31:55Z</time>
      </trkpt>
      <trkpt lat="47.52796" lon="-2.85161">
        <ele>-3.7078857</ele>
        <time>2009-09-30T13:32:00Z</time>
      </trkpt>
      <trkpt lat="47.52797" lon="-2.85135">
        <ele>-3.2272949</ele>
        <time>2009-09-30T13:32:05Z</time>
      </trkpt>
      <trkpt lat="47.52797" lon="-2.85138">
        <ele>-2.7467041</ele>
        <time>2009-09-30T13:32:14Z</time>
      </trkpt>
      <trkpt lat="47.52797" lon="-2.85148">
        <ele>-5.1499023</ele>
        <time>2009-09-30T13:32:18Z</time>
      </trkpt>
      <trkpt lat="47.52804" lon="-2.85152">
        <ele>-5.1499023</ele>
        <time>2009-09-30T13:32:22Z</time>
      </trkpt>
      <trkpt lat="47.52829" lon="-2.85154">
        <ele>-4.1885986</ele>
        <time>2009-09-30T13:32:29Z</time>
      </trkpt>
      <trkpt lat="47.52851" lon="-2.85159">
        <ele>-2.7467041</ele>
        <time>2009-09-30T13:32:34Z</time>
      </trkpt>
      <trkpt lat="47.5287" lon="-2.85155">
        <ele>-1.3046875</ele>
        <time>2009-09-30T13:32:38Z</time>
      </trkpt>
      <trkpt lat="47.52898" lon="-2.8513">
        <ele>-2.7467041</ele>
        <time>2009-09-30T13:32:45Z</time>
      </trkpt>
      <trkpt lat="47.52909" lon="-2.85118">
        <ele>-3.2272949</ele>
        <time>2009-09-30T13:32:48Z</time>
      </trkpt>
      <trkpt lat="47.52928" lon="-2.85094">
        <ele>-3.7078857</ele>
        <time>2009-09-30T13:32:54Z</time>
      </trkpt>
      <trkpt lat="47.52968" lon="-2.85098">
        <ele>-1.7852783</ele>
        <time>2009-09-30T13:33:04Z</time>
      </trkpt>
      <trkpt lat="47.52985" lon="-2.85094">
        <ele>-2.7467041</ele>
        <time>2009-09-30T13:33:10Z</time>
      </trkpt>
      <trkpt lat="47.53012" lon="-2.85089">
        <ele>-1.3046875</ele>
        <time>2009-09-30T13:33:18Z</time>
      </trkpt>
      <trkpt lat="47.53038" lon="-2.85088">
        <ele>-0.8240967</ele>
        <time>2009-09-30T13:33:27Z</time>
      </trkpt>
      <trkpt lat="47.53059" lon="-2.8509">
        <ele>0.618042</ele>
        <time>2009-09-30T13:33:33Z</time>
      </trkpt>
      <trkpt lat="47.53082" lon="-2.85086">
        <ele>0.1374512</ele>
        <time>2009-09-30T13:33:40Z</time>
      </trkpt>
      <trkpt lat="47.53113" lon="-2.85081">
        <ele>2.0600586</ele>
        <time>2009-09-30T13:33:49Z</time>
      </trkpt>
      <trkpt lat="47.53117" lon="-2.85081">
        <ele>2.0600586</ele>
        <time>2009-09-30T13:33:50Z</time>
      </trkpt>
      <trkpt lat="47.53149" lon="-2.85076">
        <ele>2.5406494</ele>
        <time>2009-09-30T13:33:58Z</time>
      </trkpt>
      <trkpt lat="47.53187" lon="-2.85073">
        <ele>1.5793457</ele>
        <time>2009-09-30T13:34:09Z</time>
      </trkpt>
      <trkpt lat="47.5321" lon="-2.8507">
        <ele>1.5793457</ele>
        <time>2009-09-30T13:34:17Z</time>
      </trkpt>
      <trkpt lat="47.53237" lon="-2.85073">
        <ele>3.5019531</ele>
        <time>2009-09-30T13:34:26Z</time>
      </trkpt>
      <trkpt lat="47.53253" lon="-2.85076">
        <ele>2.5406494</ele>
        <time>2009-09-30T13:34:34Z</time>
      </trkpt>
      <trkpt lat="47.53264" lon="-2.85108">
        <ele>0.618042</ele>
        <time>2009-09-30T13:34:40Z</time>
      </trkpt>
      <trkpt lat="47.53265" lon="-2.85121">
        <ele>0.618042</ele>
        <time>2009-09-30T13:34:42Z</time>
      </trkpt>
      <trkpt lat="47.5329" lon="-2.85213">
        <ele>-1.7852783</ele>
        <time>2009-09-30T13:34:56Z</time>
      </trkpt>
      <trkpt lat="47.53318" lon="-2.85301">
        <ele>-1.3046875</ele>
        <time>2009-09-30T13:35:09Z</time>
      </trkpt>
      <trkpt lat="47.5332" lon="-2.85308">
        <ele>-1.7852783</ele>
        <time>2009-09-30T13:35:10Z</time>
      </trkpt>
      <trkpt lat="47.53354" lon="-2.85363">
        <ele>-3.2272949</ele>
        <time>2009-09-30T13:35:21Z</time>
      </trkpt>
      <trkpt lat="47.53363" lon="-2.85369">
        <ele>-3.2272949</ele>
        <time>2009-09-30T13:35:24Z</time>
      </trkpt>
      <trkpt lat="47.53378" lon="-2.85412">
        <ele>-2.7467041</ele>
        <time>2009-09-30T13:35:33Z</time>
      </trkpt>
      <trkpt lat="47.53381" lon="-2.85422">
        <ele>-2.7467041</ele>
        <time>2009-09-30T13:35:35Z</time>
      </trkpt>
      <trkpt lat="47.53369" lon="-2.85447">
        <ele>-3.2272949</ele>
        <time>2009-09-30T13:35:40Z</time>
      </trkpt>
      <trkpt lat="47.53338" lon="-2.85484">
        <ele>-4.6693115</ele>
        <time>2009-09-30T13:35:48Z</time>
      </trkpt>
      <trkpt lat="47.53311" lon="-2.85512">
        <ele>-6.1112061</ele>
        <time>2009-09-30T13:35:54Z</time>
      </trkpt>
      <trkpt lat="47.53298" lon="-2.85528">
        <ele>-6.1112061</ele>
        <time>2009-09-30T13:35:57Z</time>
      </trkpt>
      <trkpt lat="47.53285" lon="-2.85554">
        <ele>-5.1499023</ele>
        <time>2009-09-30T13:36:01Z</time>
      </trkpt>
      <trkpt lat="47.53276" lon="-2.8559">
        <ele>-5.1499023</ele>
        <time>2009-09-30T13:36:06Z</time>
      </trkpt>
      <trkpt lat="47.53269" lon="-2.8561">
        <ele>-5.1499023</ele>
        <time>2009-09-30T13:36:09Z</time>
      </trkpt>
      <trkpt lat="47.5325" lon="-2.85642">
        <ele>-5.1499023</ele>
        <time>2009-09-30T13:36:15Z</time>
      </trkpt>
      <trkpt lat="47.53234" lon="-2.85692">
        <ele>-4.6693115</ele>
        <time>2009-09-30T13:36:23Z</time>
      </trkpt>
      <trkpt lat="47.53219" lon="-2.8572">
        <ele>-5.6304932</ele>
        <time>2009-09-30T13:36:28Z</time>
      </trkpt>
      <trkpt lat="47.53186" lon="-2.85749">
        <ele>-5.1499023</ele>
        <time>2009-09-30T13:36:36Z</time>
      </trkpt>
      <trkpt lat="47.53164" lon="-2.85759">
        <ele>-5.1499023</ele>
        <time>2009-09-30T13:36:41Z</time>
      </trkpt>
      <trkpt lat="47.53149" lon="-2.85773">
        <ele>-4.6693115</ele>
        <time>2009-09-30T13:36:46Z</time>
      </trkpt>
      <trkpt lat="47.53137" lon="-2.85783">
        <ele>-3.7078857</ele>
        <time>2009-09-30T13:36:50Z</time>
      </trkpt>
      <trkpt lat="47.53119" lon="-2.85822">
        <ele>-4.1885986</ele>
        <time>2009-09-30T13:36:57Z</time>
      </trkpt>
      <trkpt lat="47.53117" lon="-2.85828">
        <ele>-4.1885986</ele>
        <time>2009-09-30T13:36:58Z</time>
      </trkpt>
      <trkpt lat="47.5311" lon="-2.85843">
        <ele>-3.7078857</ele>
        <time>2009-09-30T13:37:01Z</time>
      </trkpt>
      <trkpt lat="47.53094" lon="-2.85873">
        <ele>-4.1885986</ele>
        <time>2009-09-30T13:37:07Z</time>
      </trkpt>
      <trkpt lat="47.53091" lon="-2.85898">
        <ele>-4.1885986</ele>
        <time>2009-09-30T13:37:11Z</time>
      </trkpt>
      <trkpt lat="47.53093" lon="-2.85912">
        <ele>-4.1885986</ele>
        <time>2009-09-30T13:37:13Z</time>
      </trkpt>
      <trkpt lat="47.53085" lon="-2.85971">
        <ele>-5.1499023</ele>
        <time>2009-09-30T13:37:21Z</time>
      </trkpt>
      <trkpt lat="47.53083" lon="-2.85988">
        <ele>-5.1499023</ele>
        <time>2009-09-30T13:37:23Z</time>
      </trkpt>
      <trkpt lat="47.53089" lon="-2.86024">
        <ele>-4.6693115</ele>
        <time>2009-09-30T13:37:28Z</time>
      </trkpt>
      <trkpt lat="47.53117" lon="-2.86074">
        <ele>-4.6693115</ele>
        <time>2009-09-30T13:37:37Z</time>
      </trkpt>
      <trkpt lat="47.53153" lon="-2.86115">
        <ele>-3.7078857</ele>
        <time>2009-09-30T13:37:47Z</time>
      </trkpt>
      <trkpt lat="47.53167" lon="-2.86126">
        <ele>-3.2272949</ele>
        <time>2009-09-30T13:37:51Z</time>
      </trkpt>
      <trkpt lat="47.53206" lon="-2.86141">
        <ele>-3.2272949</ele>
        <time>2009-09-30T13:38:00Z</time>
      </trkpt>
      <trkpt lat="47.53237" lon="-2.86149">
        <ele>-2.2659912</ele>
        <time>2009-09-30T13:38:07Z</time>
      </trkpt>
      <trkpt lat="47.53263" lon="-2.86148">
        <ele>-2.7467041</ele>
        <time>2009-09-30T13:38:13Z</time>
      </trkpt>
      <trkpt lat="47.53281" lon="-2.86154">
        <ele>-3.2272949</ele>
        <time>2009-09-30T13:38:17Z</time>
      </trkpt>
      <trkpt lat="47.53299" lon="-2.86163">
        <ele>-2.7467041</ele>
        <time>2009-09-30T13:38:21Z</time>
      </trkpt>
      <trkpt lat="47.53312" lon="-2.86168">
        <ele>-2.2659912</ele>
        <time>2009-09-30T13:38:24Z</time>
      </trkpt>
      <trkpt lat="47.53328" lon="-2.86179">
        <ele>-3.2272949</ele>
        <time>2009-09-30T13:38:28Z</time>
      </trkpt>
      <trkpt lat="47.53344" lon="-2.86194">
        <ele>-3.2272949</ele>
        <time>2009-09-30T13:38:32Z</time>
      </trkpt>
      <trkpt lat="47.53368" lon="-2.86205">
        <ele>-3.2272949</ele>
        <time>2009-09-30T13:38:37Z</time>
      </trkpt>
      <trkpt lat="47.53386" lon="-2.86216">
        <ele>-3.2272949</ele>
        <time>2009-09-30T13:38:41Z</time>
      </trkpt>
      <trkpt lat="47.53421" lon="-2.86242">
        <ele>-2.2659912</ele>
        <time>2009-09-30T13:38:49Z</time>
      </trkpt>
      <trkpt lat="47.53434" lon="-2.86251">
        <ele>-2.2659912</ele>
        <time>2009-09-30T13:38:53Z</time>
      </trkpt>
      <trkpt lat="47.53446" lon="-2.86262">
        <ele>-2.7467041</ele>
        <time>2009-09-30T13:38:56Z</time>
      </trkpt>
      <trkpt lat="47.53457" lon="-2.86276">
        <ele>-3.2272949</ele>
        <time>2009-09-30T13:38:59Z</time>
      </trkpt>
      <trkpt lat="47.53478" lon="-2.86298">
        <ele>-3.2272949</ele>
        <time>2009-09-30T13:39:04Z</time>
      </trkpt>
      <trkpt lat="47.53501" lon="-2.8633">
        <ele>-3.7078857</ele>
        <time>2009-09-30T13:39:11Z</time>
      </trkpt>
      <trkpt lat="47.53525" lon="-2.86351">
        <ele>-3.2272949</ele>
        <time>2009-09-30T13:39:18Z</time>
      </trkpt>
      <trkpt lat="47.53535" lon="-2.86359">
        <ele>-2.7467041</ele>
        <time>2009-09-30T13:39:23Z</time>
      </trkpt>
      <trkpt lat="47.53549" lon="-2.86354">
        <ele>-2.2659912</ele>
        <time>2009-09-30T13:39:30Z</time>
      </trkpt>
      <trkpt lat="47.5357" lon="-2.86352">
        <ele>-1.7852783</ele>
        <time>2009-09-30T13:39:36Z</time>
      </trkpt>
      <trkpt lat="47.53609" lon="-2.86347">
        <ele>-1.3046875</ele>
        <time>2009-09-30T13:39:46Z</time>
      </trkpt>
      <trkpt lat="47.53634" lon="-2.86344">
        <ele>1.0986328</ele>
        <time>2009-09-30T13:39:55Z</time>
      </trkpt>
      <trkpt lat="47.5364" lon="-2.86345">
        <ele>1.0986328</ele>
        <time>2009-09-30T13:40:03Z</time>
      </trkpt>
      <trkpt lat="47.5364" lon="-2.86345">
        <ele>1.0986328</ele>
        <time>2009-09-30T13:40:07Z</time>
      </trkpt>
      <trkpt lat="47.53636" lon="-2.86346">
        <ele>0.618042</ele>
        <time>2009-09-30T13:40:12Z</time>
      </trkpt>
      <trkpt lat="47.53634" lon="-2.8634">
        <ele>1.0986328</ele>
        <time>2009-09-30T13:40:14Z</time>
      </trkpt>
      <trkpt lat="47.53631" lon="-2.86322">
        <ele>2.0600586</ele>
        <time>2009-09-30T13:40:19Z</time>
      </trkpt>
      <trkpt lat="47.53641" lon="-2.86319">
        <ele>1.0986328</ele>
        <time>2009-09-30T13:40:24Z</time>
      </trkpt>
      <trkpt lat="47.53644" lon="-2.8633">
        <ele>-0.3433838</ele>
        <time>2009-09-30T13:40:26Z</time>
      </trkpt>
      <trkpt lat="47.53646" lon="-2.86342">
        <ele>-1.7852783</ele>
        <time>2009-09-30T13:40:28Z</time>
      </trkpt>
      <trkpt lat="47.53659" lon="-2.86349">
        <ele>-2.7467041</ele>
        <time>2009-09-30T13:40:33Z</time>
      </trkpt>
      <trkpt lat="47.53662" lon="-2.8635">
        <ele>-4.1885986</ele>
        <time>2009-09-30T13:40:36Z</time>
      </trkpt>
      <trkpt lat="47.53676" lon="-2.86349">
        <ele>-5.6304932</ele>
        <time>2009-09-30T13:40:40Z</time>
      </trkpt>
      <trkpt lat="47.5371" lon="-2.86334">
        <ele>-3.2272949</ele>
        <time>2009-09-30T13:40:49Z</time>
      </trkpt>
      <trkpt lat="47.5372" lon="-2.86326">
        <ele>-1.3046875</ele>
        <time>2009-09-30T13:40:52Z</time>
      </trkpt>
      <trkpt lat="47.53733" lon="-2.86344">
        <ele>-1.7852783</ele>
        <time>2009-09-30T13:40:59Z</time>
      </trkpt>
      <trkpt lat="47.5375" lon="-2.86373">
        <ele>0.1374512</ele>
        <time>2009-09-30T13:41:06Z</time>
      </trkpt>
      <trkpt lat="47.53765" lon="-2.86403">
        <ele>-0.3433838</ele>
        <time>2009-09-30T13:41:13Z</time>
      </trkpt>
      <trkpt lat="47.53764" lon="-2.86403">
        <ele>-0.3433838</ele>
        <time>2009-09-30T13:41:19Z</time>
      </trkpt>
      <trkpt lat="47.53769" lon="-2.86405">
        <ele>0.1374512</ele>
        <time>2009-09-30T13:41:23Z</time>
      </trkpt>
      <trkpt lat="47.53792" lon="-2.86428">
        <ele>2.0600586</ele>
        <time>2009-09-30T13:41:32Z</time>
      </trkpt>
      <trkpt lat="47.53823" lon="-2.86452">
        <ele>3.0212402</ele>
        <time>2009-09-30T13:41:41Z</time>
      </trkpt>
      <trkpt lat="47.53846" lon="-2.86472">
        <ele>3.982666</ele>
        <time>2009-09-30T13:41:49Z</time>
      </trkpt>
      <trkpt lat="47.53863" lon="-2.86492">
        <ele>4.9438477</ele>
        <time>2009-09-30T13:41:56Z</time>
      </trkpt>
      <trkpt lat="47.5388" lon="-2.86509">
        <ele>7.347168</ele>
        <time>2009-09-30T13:42:03Z</time>
      </trkpt>
      <trkpt lat="47.53894" lon="-2.86531">
        <ele>6.3858643</ele>
        <time>2009-09-30T13:42:08Z</time>
      </trkpt>
      <trkpt lat="47.53909" lon="-2.86552">
        <ele>6.3858643</ele>
        <time>2009-09-30T13:42:15Z</time>
      </trkpt>
      <trkpt lat="47.53929" lon="-2.86572">
        <ele>6.8664551</ele>
        <time>2009-09-30T13:42:22Z</time>
      </trkpt>
      <trkpt lat="47.53949" lon="-2.86584">
        <ele>8.3085938</ele>
        <time>2009-09-30T13:42:29Z</time>
      </trkpt>
      <trkpt lat="47.53972" lon="-2.86593">
        <ele>11.1925049</ele>
        <time>2009-09-30T13:42:36Z</time>
      </trkpt>
      <trkpt lat="47.53986" lon="-2.86598">
        <ele>12.1538086</ele>
        <time>2009-09-30T13:42:41Z</time>
      </trkpt>
      <trkpt lat="47.54003" lon="-2.86602">
        <ele>13.1151123</ele>
        <time>2009-09-30T13:42:46Z</time>
      </trkpt>
      <trkpt lat="47.5403" lon="-2.86614">
        <ele>15.5184326</ele>
        <time>2009-09-30T13:42:53Z</time>
      </trkpt>
      <trkpt lat="47.54041" lon="-2.86617">
        <ele>14.5570068</ele>
        <time>2009-09-30T13:42:56Z</time>
      </trkpt>
      <trkpt lat="47.54063" lon="-2.8664">
        <ele>13.1151123</ele>
        <time>2009-09-30T13:43:02Z</time>
      </trkpt>
      <trkpt lat="47.54097" lon="-2.86702">
        <ele>11.6732178</ele>
        <time>2009-09-30T13:43:13Z</time>
      </trkpt>
      <trkpt lat="47.54121" lon="-2.86761">
        <ele>12.6343994</ele>
        <time>2009-09-30T13:43:23Z</time>
      </trkpt>
      <trkpt lat="47.54143" lon="-2.86806">
        <ele>9.7506104</ele>
        <time>2009-09-30T13:43:30Z</time>
      </trkpt>
      <trkpt lat="47.54169" lon="-2.86842">
        <ele>7.347168</ele>
        <time>2009-09-30T13:43:37Z</time>
      </trkpt>
      <trkpt lat="47.54178" lon="-2.86851">
        <ele>6.8664551</ele>
        <time>2009-09-30T13:43:40Z</time>
      </trkpt>
      <trkpt lat="47.54208" lon="-2.86841">
        <ele>7.347168</ele>
        <time>2009-09-30T13:43:48Z</time>
      </trkpt>
      <trkpt lat="47.54261" lon="-2.86825">
        <ele>7.8278809</ele>
        <time>2009-09-30T13:43:59Z</time>
      </trkpt>
      <trkpt lat="47.5427" lon="-2.86823">
        <ele>7.8278809</ele>
        <time>2009-09-30T13:44:01Z</time>
      </trkpt>
      <trkpt lat="47.54282" lon="-2.86835">
        <ele>8.7891846</ele>
        <time>2009-09-30T13:44:05Z</time>
      </trkpt>
      <trkpt lat="47.54282" lon="-2.86841">
        <ele>8.7891846</ele>
        <time>2009-09-30T13:44:06Z</time>
      </trkpt>
      <trkpt lat="47.54282" lon="-2.86873">
        <ele>10.2312012</ele>
        <time>2009-09-30T13:44:11Z</time>
      </trkpt>
      <trkpt lat="47.54282" lon="-2.86956">
        <ele>11.1925049</ele>
        <time>2009-09-30T13:44:22Z</time>
      </trkpt>
      <trkpt lat="47.54282" lon="-2.86973">
        <ele>10.711792</ele>
        <time>2009-09-30T13:44:24Z</time>
      </trkpt>
      <trkpt lat="47.54281" lon="-2.87041">
        <ele>10.711792</ele>
        <time>2009-09-30T13:44:33Z</time>
      </trkpt>
      <trkpt lat="47.54282" lon="-2.87105">
        <ele>11.1925049</ele>
        <time>2009-09-30T13:44:41Z</time>
      </trkpt>
      <trkpt lat="47.54283" lon="-2.87196">
        <ele>11.1925049</ele>
        <time>2009-09-30T13:44:52Z</time>
      </trkpt>
      <trkpt lat="47.54283" lon="-2.87295">
        <ele>7.8278809</ele>
        <time>2009-09-30T13:45:03Z</time>
      </trkpt>
      <trkpt lat="47.54291" lon="-2.87357">
        <ele>6.8664551</ele>
        <time>2009-09-30T13:45:09Z</time>
      </trkpt>
      <trkpt lat="47.54315" lon="-2.87445">
        <ele>5.9052734</ele>
        <time>2009-09-30T13:45:18Z</time>
      </trkpt>
      <trkpt lat="47.54343" lon="-2.87506">
        <ele>5.9052734</ele>
        <time>2009-09-30T13:45:26Z</time>
      </trkpt>
      <trkpt lat="47.54367" lon="-2.87546">
        <ele>6.8664551</ele>
        <time>2009-09-30T13:45:34Z</time>
      </trkpt>
      <trkpt lat="47.5437" lon="-2.87549">
        <ele>6.8664551</ele>
        <time>2009-09-30T13:45:35Z</time>
      </trkpt>
      <trkpt lat="47.54377" lon="-2.87546">
        <ele>8.3085938</ele>
        <time>2009-09-30T13:45:39Z</time>
      </trkpt>
      <trkpt lat="47.54377" lon="-2.87542">
        <ele>8.3085938</ele>
        <time>2009-09-30T13:45:40Z</time>
      </trkpt>
      <trkpt lat="47.54389" lon="-2.87493">
        <ele>7.8278809</ele>
        <time>2009-09-30T13:45:48Z</time>
      </trkpt>
      <trkpt lat="47.54404" lon="-2.87452">
        <ele>6.8664551</ele>
        <time>2009-09-30T13:45:54Z</time>
      </trkpt>
      <trkpt lat="47.54433" lon="-2.87392">
        <ele>5.4245605</ele>
        <time>2009-09-30T13:46:02Z</time>
      </trkpt>
      <trkpt lat="47.54442" lon="-2.87376">
        <ele>4.9438477</ele>
        <time>2009-09-30T13:46:04Z</time>
      </trkpt>
      <trkpt lat="47.54461" lon="-2.87351">
        <ele>3.982666</ele>
        <time>2009-09-30T13:46:08Z</time>
      </trkpt>
      <trkpt lat="47.54475" lon="-2.87313">
        <ele>3.982666</ele>
        <time>2009-09-30T13:46:13Z</time>
      </trkpt>
      <trkpt lat="47.5448" lon="-2.87274">
        <ele>4.9438477</ele>
        <time>2009-09-30T13:46:18Z</time>
      </trkpt>
      <trkpt lat="47.54479" lon="-2.87245">
        <ele>5.9052734</ele>
        <time>2009-09-30T13:46:22Z</time>
      </trkpt>
      <trkpt lat="47.54495" lon="-2.87197">
        <ele>8.3085938</ele>
        <time>2009-09-30T13:46:30Z</time>
      </trkpt>
      <trkpt lat="47.54512" lon="-2.87137">
        <ele>6.8664551</ele>
        <time>2009-09-30T13:46:38Z</time>
      </trkpt>
      <trkpt lat="47.54531" lon="-2.87088">
        <ele>7.347168</ele>
        <time>2009-09-30T13:46:45Z</time>
      </trkpt>
      <trkpt lat="47.54536" lon="-2.87065">
        <ele>7.8278809</ele>
        <time>2009-09-30T13:46:48Z</time>
      </trkpt>
      <trkpt lat="47.54539" lon="-2.87045">
        <ele>7.347168</ele>
        <time>2009-09-30T13:46:51Z</time>
      </trkpt>
      <trkpt lat="47.54551" lon="-2.86995">
        <ele>8.7891846</ele>
        <time>2009-09-30T13:46:59Z</time>
      </trkpt>
      <trkpt lat="47.54563" lon="-2.86968">
        <ele>11.1925049</ele>
        <time>2009-09-30T13:47:04Z</time>
      </trkpt>
      <trkpt lat="47.54565" lon="-2.86942">
        <ele>12.1538086</ele>
        <time>2009-09-30T13:47:09Z</time>
      </trkpt>
      <trkpt lat="47.54556" lon="-2.86906">
        <ele>12.1538086</ele>
        <time>2009-09-30T13:47:18Z</time>
      </trkpt>
      <trkpt lat="47.54553" lon="-2.86889">
        <ele>11.6732178</ele>
        <time>2009-09-30T13:47:21Z</time>
      </trkpt>
      <trkpt lat="47.54553" lon="-2.86877">
        <ele>11.1925049</ele>
        <time>2009-09-30T13:47:23Z</time>
      </trkpt>
      <trkpt lat="47.54553" lon="-2.86864">
        <ele>11.1925049</ele>
        <time>2009-09-30T13:47:25Z</time>
      </trkpt>
      <trkpt lat="47.54561" lon="-2.86823">
        <ele>11.6732178</ele>
        <time>2009-09-30T13:47:31Z</time>
      </trkpt>
      <trkpt lat="47.54564" lon="-2.8681">
        <ele>12.1538086</ele>
        <time>2009-09-30T13:47:33Z</time>
      </trkpt>
      <trkpt lat="47.54575" lon="-2.8679">
        <ele>11.1925049</ele>
        <time>2009-09-30T13:47:37Z</time>
      </trkpt>
      <trkpt lat="47.546" lon="-2.86762">
        <ele>9.7506104</ele>
        <time>2009-09-30T13:47:45Z</time>
      </trkpt>
      <trkpt lat="47.54611" lon="-2.86763">
        <ele>9.2698975</ele>
        <time>2009-09-30T13:47:48Z</time>
      </trkpt>
      <trkpt lat="47.5465" lon="-2.86779">
        <ele>11.6732178</ele>
        <time>2009-09-30T13:47:57Z</time>
      </trkpt>
      <trkpt lat="47.54653" lon="-2.8678">
        <ele>11.6732178</ele>
        <time>2009-09-30T13:47:58Z</time>
      </trkpt>
      <trkpt lat="47.54661" lon="-2.86765">
        <ele>10.2312012</ele>
        <time>2009-09-30T13:48:02Z</time>
      </trkpt>
      <trkpt lat="47.54667" lon="-2.86748">
        <ele>9.2698975</ele>
        <time>2009-09-30T13:48:07Z</time>
      </trkpt>
      <trkpt lat="47.5467" lon="-2.86743">
        <ele>10.711792</ele>
        <time>2009-09-30T13:48:09Z</time>
      </trkpt>
      <trkpt lat="47.54674" lon="-2.86717">
        <ele>7.8278809</ele>
        <time>2009-09-30T13:48:15Z</time>
      </trkpt>
      <trkpt lat="47.54687" lon="-2.86677">
        <ele>8.3085938</ele>
        <time>2009-09-30T13:48:23Z</time>
      </trkpt>
      <trkpt lat="47.547" lon="-2.86644">
        <ele>8.7891846</ele>
        <time>2009-09-30T13:48:30Z</time>
      </trkpt>
      <trkpt lat="47.54701" lon="-2.86638">
        <ele>8.7891846</ele>
        <time>2009-09-30T13:48:32Z</time>
      </trkpt>
      <trkpt lat="47.54693" lon="-2.86636">
        <ele>4.9438477</ele>
        <time>2009-09-30T13:48:39Z</time>
      </trkpt>
      <trkpt lat="47.54685" lon="-2.8664">
        <ele>3.5019531</ele>
        <time>2009-09-30T13:48:44Z</time>
      </trkpt>
      <trkpt lat="47.54689" lon="-2.86638">
        <ele>5.9052734</ele>
        <time>2009-09-30T13:48:49Z</time>
      </trkpt>
      <trkpt lat="47.54709" lon="-2.86636">
        <ele>6.3858643</ele>
        <time>2009-09-30T13:48:55Z</time>
      </trkpt>
      <trkpt lat="47.54725" lon="-2.86635">
        <ele>5.9052734</ele>
        <time>2009-09-30T13:48:59Z</time>
      </trkpt>
      <trkpt lat="47.54735" lon="-2.86637">
        <ele>6.3858643</ele>
        <time>2009-09-30T13:49:02Z</time>
      </trkpt>
      <trkpt lat="47.54738" lon="-2.86639">
        <ele>5.4245605</ele>
        <time>2009-09-30T13:49:08Z</time>
      </trkpt>
      <trkpt lat="47.54737" lon="-2.86638">
        <ele>5.4245605</ele>
        <time>2009-09-30T13:49:09Z</time>
      </trkpt>
      <trkpt lat="47.54731" lon="-2.86635">
        <ele>6.3858643</ele>
        <time>2009-09-30T13:49:13Z</time>
      </trkpt>
      <trkpt lat="47.5473" lon="-2.86624">
        <ele>6.8664551</ele>
        <time>2009-09-30T13:49:18Z</time>
      </trkpt>
      <trkpt lat="47.54735" lon="-2.86596">
        <ele>9.7506104</ele>
        <time>2009-09-30T13:49:25Z</time>
      </trkpt>
      <trkpt lat="47.54743" lon="-2.8655">
        <ele>12.6343994</ele>
        <time>2009-09-30T13:49:34Z</time>
      </trkpt>
      <trkpt lat="47.54743" lon="-2.86504">
        <ele>11.1925049</ele>
        <time>2009-09-30T13:49:42Z</time>
      </trkpt>
      <trkpt lat="47.54743" lon="-2.86498">
        <ele>11.6732178</ele>
        <time>2009-09-30T13:49:43Z</time>
      </trkpt>
      <trkpt lat="47.54746" lon="-2.86488">
        <ele>12.6343994</ele>
        <time>2009-09-30T13:49:45Z</time>
      </trkpt>
      <trkpt lat="47.54748" lon="-2.86459">
        <ele>15.5184326</ele>
        <time>2009-09-30T13:49:50Z</time>
      </trkpt>
      <trkpt lat="47.54747" lon="-2.86436">
        <ele>17.9217529</ele>
        <time>2009-09-30T13:49:56Z</time>
      </trkpt>
      <trkpt lat="47.54748" lon="-2.86429">
        <ele>18.4023438</ele>
        <time>2009-09-30T13:49:58Z</time>
      </trkpt>
      <trkpt lat="47.54746" lon="-2.86416">
        <ele>18.8830566</ele>
        <time>2009-09-30T13:50:01Z</time>
      </trkpt>
      <trkpt lat="47.54731" lon="-2.86393">
        <ele>16.4797363</ele>
        <time>2009-09-30T13:50:07Z</time>
      </trkpt>
      <trkpt lat="47.54715" lon="-2.86392">
        <ele>17.9217529</ele>
        <time>2009-09-30T13:50:11Z</time>
      </trkpt>
      <trkpt lat="47.54696" lon="-2.86389">
        <ele>17.4411621</ele>
        <time>2009-09-30T13:50:15Z</time>
      </trkpt>
      <trkpt lat="47.54673" lon="-2.86385">
        <ele>17.4411621</ele>
        <time>2009-09-30T13:50:20Z</time>
      </trkpt>
      <trkpt lat="47.54649" lon="-2.86366">
        <ele>15.9990234</ele>
        <time>2009-09-30T13:50:26Z</time>
      </trkpt>
      <trkpt lat="47.54621" lon="-2.86327">
        <ele>14.5570068</ele>
        <time>2009-09-30T13:50:33Z</time>
      </trkpt>
      <trkpt lat="47.5459" lon="-2.86307">
        <ele>11.1925049</ele>
        <time>2009-09-30T13:50:38Z</time>
      </trkpt>
      <trkpt lat="47.54569" lon="-2.86309">
        <ele>9.2698975</ele>
        <time>2009-09-30T13:50:41Z</time>
      </trkpt>
      <trkpt lat="47.54529" lon="-2.86314">
        <ele>8.7891846</ele>
        <time>2009-09-30T13:50:47Z</time>
      </trkpt>
      <trkpt lat="47.54486" lon="-2.863">
        <ele>9.2698975</ele>
        <time>2009-09-30T13:50:55Z</time>
      </trkpt>
      <trkpt lat="47.54448" lon="-2.86297">
        <ele>10.711792</ele>
        <time>2009-09-30T13:51:02Z</time>
      </trkpt>
      <trkpt lat="47.54421" lon="-2.86314">
        <ele>10.711792</ele>
        <time>2009-09-30T13:51:08Z</time>
      </trkpt>
      <trkpt lat="47.54413" lon="-2.86334">
        <ele>10.711792</ele>
        <time>2009-09-30T13:51:11Z</time>
      </trkpt>
      <trkpt lat="47.5439" lon="-2.86357">
        <ele>11.1925049</ele>
        <time>2009-09-30T13:51:17Z</time>
      </trkpt>
      <trkpt lat="47.54371" lon="-2.8636">
        <ele>11.6732178</ele>
        <time>2009-09-30T13:51:21Z</time>
      </trkpt>
      <trkpt lat="47.54352" lon="-2.86357">
        <ele>12.1538086</ele>
        <time>2009-09-30T13:51:25Z</time>
      </trkpt>
      <trkpt lat="47.54312" lon="-2.86363">
        <ele>9.7506104</ele>
        <time>2009-09-30T13:51:33Z</time>
      </trkpt>
      <trkpt lat="47.54311" lon="-2.86362">
        <ele>13.1151123</ele>
        <time>2009-09-30T13:51:34Z</time>
      </trkpt>
      <trkpt lat="47.54293" lon="-2.86374">
        <ele>11.1925049</ele>
        <time>2009-09-30T13:51:42Z</time>
      </trkpt>
      <trkpt lat="47.54278" lon="-2.86384">
        <ele>11.1925049</ele>
        <time>2009-09-30T13:51:46Z</time>
      </trkpt>
      <trkpt lat="47.54251" lon="-2.86404">
        <ele>11.1925049</ele>
        <time>2009-09-30T13:51:54Z</time>
      </trkpt>
      <trkpt lat="47.54227" lon="-2.86424">
        <ele>7.8278809</ele>
        <time>2009-09-30T13:52:01Z</time>
      </trkpt>
      <trkpt lat="47.54208" lon="-2.86423">
        <ele>6.8664551</ele>
        <time>2009-09-30T13:52:08Z</time>
      </trkpt>
      <trkpt lat="47.54195" lon="-2.864">
        <ele>3.5019531</ele>
        <time>2009-09-30T13:52:13Z</time>
      </trkpt>
      <trkpt lat="47.54175" lon="-2.86384">
        <ele>1.0986328</ele>
        <time>2009-09-30T13:52:19Z</time>
      </trkpt>
      <trkpt lat="47.54156" lon="-2.86387">
        <ele>-0.8240967</ele>
        <time>2009-09-30T13:52:26Z</time>
      </trkpt>
      <trkpt lat="47.54154" lon="-2.86389">
        <ele>-1.3046875</ele>
        <time>2009-09-30T13:52:27Z</time>
      </trkpt>
      <trkpt lat="47.54156" lon="-2.8641">
        <ele>-0.8240967</ele>
        <time>2009-09-30T13:52:33Z</time>
      </trkpt>
      <trkpt lat="47.54159" lon="-2.86419">
        <ele>-0.3433838</ele>
        <time>2009-09-30T13:52:35Z</time>
      </trkpt>
      <trkpt lat="47.54165" lon="-2.86444">
        <ele>-0.3433838</ele>
        <time>2009-09-30T13:52:39Z</time>
      </trkpt>
      <trkpt lat="47.54172" lon="-2.86468">
        <ele>0.1374512</ele>
        <time>2009-09-30T13:52:43Z</time>
      </trkpt>
      <trkpt lat="47.54185" lon="-2.86495">
        <ele>1.5793457</ele>
        <time>2009-09-30T13:52:48Z</time>
      </trkpt>
      <trkpt lat="47.5421" lon="-2.86529">
        <ele>3.982666</ele>
        <time>2009-09-30T13:52:56Z</time>
      </trkpt>
      <trkpt lat="47.54231" lon="-2.8656">
        <ele>8.7891846</ele>
        <time>2009-09-30T13:53:04Z</time>
      </trkpt>
      <trkpt lat="47.54239" lon="-2.86584">
        <ele>9.7506104</ele>
        <time>2009-09-30T13:53:09Z</time>
      </trkpt>
      <trkpt lat="47.54243" lon="-2.86594">
        <ele>8.3085938</ele>
        <time>2009-09-30T13:53:11Z</time>
      </trkpt>
      <trkpt lat="47.54238" lon="-2.86602">
        <ele>8.3085938</ele>
        <time>2009-09-30T13:53:16Z</time>
      </trkpt>
      <trkpt lat="47.54235" lon="-2.86596">
        <ele>8.3085938</ele>
        <time>2009-09-30T13:53:18Z</time>
      </trkpt>
      <trkpt lat="47.54214" lon="-2.86555">
        <ele>5.9052734</ele>
        <time>2009-09-30T13:53:26Z</time>
      </trkpt>
      <trkpt lat="47.54204" lon="-2.8654">
        <ele>6.3858643</ele>
        <time>2009-09-30T13:53:29Z</time>
      </trkpt>
      <trkpt lat="47.54182" lon="-2.86513">
        <ele>5.4245605</ele>
        <time>2009-09-30T13:53:34Z</time>
      </trkpt>
      <trkpt lat="47.54144" lon="-2.86477">
        <ele>4.9438477</ele>
        <time>2009-09-30T13:53:41Z</time>
      </trkpt>
      <trkpt lat="47.541" lon="-2.86443">
        <ele>6.8664551</ele>
        <time>2009-09-30T13:53:49Z</time>
      </trkpt>
      <trkpt lat="47.54078" lon="-2.86425">
        <ele>5.4245605</ele>
        <time>2009-09-30T13:53:53Z</time>
      </trkpt>
      <trkpt lat="47.54033" lon="-2.8639">
        <ele>4.9438477</ele>
        <time>2009-09-30T13:54:01Z</time>
      </trkpt>
      <trkpt lat="47.53983" lon="-2.86332">
        <ele>2.5406494</ele>
        <time>2009-09-30T13:54:10Z</time>
      </trkpt>
      <trkpt lat="47.5395" lon="-2.86274">
        <ele>0.1374512</ele>
        <time>2009-09-30T13:54:17Z</time>
      </trkpt>
      <trkpt lat="47.53921" lon="-2.86193">
        <ele>-1.3046875</ele>
        <time>2009-09-30T13:54:25Z</time>
      </trkpt>
      <trkpt lat="47.53906" lon="-2.86111">
        <ele>-1.7852783</ele>
        <time>2009-09-30T13:54:33Z</time>
      </trkpt>
      <trkpt lat="47.53903" lon="-2.86042">
        <ele>-0.8240967</ele>
        <time>2009-09-30T13:54:40Z</time>
      </trkpt>
      <trkpt lat="47.53903" lon="-2.85933">
        <ele>0.1374512</ele>
        <time>2009-09-30T13:54:51Z</time>
      </trkpt>
      <trkpt lat="47.53904" lon="-2.8582">
        <ele>1.0986328</ele>
        <time>2009-09-30T13:55:03Z</time>
      </trkpt>
      <trkpt lat="47.53904" lon="-2.85793">
        <ele>1.0986328</ele>
        <time>2009-09-30T13:55:06Z</time>
      </trkpt>
      <trkpt lat="47.53902" lon="-2.85706">
        <ele>3.982666</ele>
        <time>2009-09-30T13:55:16Z</time>
      </trkpt>
      <trkpt lat="47.53902" lon="-2.85691">
        <ele>3.982666</ele>
        <time>2009-09-30T13:55:18Z</time>
      </trkpt>
      <trkpt lat="47.53896" lon="-2.85664">
        <ele>3.5019531</ele>
        <time>2009-09-30T13:55:22Z</time>
      </trkpt>
      <trkpt lat="47.53887" lon="-2.85629">
        <ele>5.9052734</ele>
        <time>2009-09-30T13:55:27Z</time>
      </trkpt>
      <trkpt lat="47.53878" lon="-2.85602">
        <ele>6.3858643</ele>
        <time>2009-09-30T13:55:31Z</time>
      </trkpt>
      <trkpt lat="47.53843" lon="-2.85544">
        <ele>5.9052734</ele>
        <time>2009-09-30T13:55:40Z</time>
      </trkpt>
      <trkpt lat="47.53798" lon="-2.85504">
        <ele>3.5019531</ele>
        <time>2009-09-30T13:55:48Z</time>
      </trkpt>
      <trkpt lat="47.53792" lon="-2.85499">
        <ele>3.5019531</ele>
        <time>2009-09-30T13:55:49Z</time>
      </trkpt>
      <trkpt lat="47.53727" lon="-2.85464">
        <ele>1.0986328</ele>
        <time>2009-09-30T13:55:59Z</time>
      </trkpt>
      <trkpt lat="47.53702" lon="-2.85449">
        <ele>0.1374512</ele>
        <time>2009-09-30T13:56:03Z</time>
      </trkpt>
      <trkpt lat="47.53645" lon="-2.8539">
        <ele>-0.3433838</ele>
        <time>2009-09-30T13:56:13Z</time>
      </trkpt>
      <trkpt lat="47.53627" lon="-2.85361">
        <ele>-0.8240967</ele>
        <time>2009-09-30T13:56:17Z</time>
      </trkpt>
      <trkpt lat="47.53605" lon="-2.85313">
        <ele>-0.8240967</ele>
        <time>2009-09-30T13:56:23Z</time>
      </trkpt>
      <trkpt lat="47.53588" lon="-2.85256">
        <ele>-1.7852783</ele>
        <time>2009-09-30T13:56:30Z</time>
      </trkpt>
      <trkpt lat="47.53567" lon="-2.85183">
        <ele>-0.8240967</ele>
        <time>2009-09-30T13:56:40Z</time>
      </trkpt>
      <trkpt lat="47.53542" lon="-2.85087">
        <ele>0.618042</ele>
        <time>2009-09-30T13:56:53Z</time>
      </trkpt>
      <trkpt lat="47.53536" lon="-2.85062">
        <ele>0.618042</ele>
        <time>2009-09-30T13:56:57Z</time>
      </trkpt>
      <trkpt lat="47.53525" lon="-2.85019">
        <ele>1.5793457</ele>
        <time>2009-09-30T13:57:04Z</time>
      </trkpt>
      <trkpt lat="47.53515" lon="-2.84984">
        <ele>2.0600586</ele>
        <time>2009-09-30T13:57:12Z</time>
      </trkpt>
      <trkpt lat="47.53518" lon="-2.84976">
        <ele>2.0600586</ele>
        <time>2009-09-30T13:57:15Z</time>
      </trkpt>
      <trkpt lat="47.53535" lon="-2.84973">
        <ele>2.0600586</ele>
        <time>2009-09-30T13:57:22Z</time>
      </trkpt>
      <trkpt lat="47.53538" lon="-2.84972">
        <ele>2.0600586</ele>
        <time>2009-09-30T13:57:23Z</time>
      </trkpt>
      <trkpt lat="47.53548" lon="-2.84944">
        <ele>3.0212402</ele>
        <time>2009-09-30T13:57:29Z</time>
      </trkpt>
      <trkpt lat="47.53554" lon="-2.84905">
        <ele>2.5406494</ele>
        <time>2009-09-30T13:57:35Z</time>
      </trkpt>
      <trkpt lat="47.5356" lon="-2.84838">
        <ele>2.0600586</ele>
        <time>2009-09-30T13:57:44Z</time>
      </trkpt>
      <trkpt lat="47.53563" lon="-2.84807">
        <ele>2.0600586</ele>
        <time>2009-09-30T13:57:48Z</time>
      </trkpt>
      <trkpt lat="47.53575" lon="-2.84784">
        <ele>1.0986328</ele>
        <time>2009-09-30T13:57:52Z</time>
      </trkpt>
      <trkpt lat="47.53585" lon="-2.84781">
        <ele>1.0986328</ele>
        <time>2009-09-30T13:57:54Z</time>
      </trkpt>
      <trkpt lat="47.53642" lon="-2.84759">
        <ele>0.1374512</ele>
        <time>2009-09-30T13:58:05Z</time>
      </trkpt>
      <trkpt lat="47.53654" lon="-2.84756">
        <ele>-0.3433838</ele>
        <time>2009-09-30T13:58:07Z</time>
      </trkpt>
      <trkpt lat="47.53671" lon="-2.84755">
        <ele>-0.3433838</ele>
        <time>2009-09-30T13:58:10Z</time>
      </trkpt>
      <trkpt lat="47.53688" lon="-2.84738">
        <ele>-0.8240967</ele>
        <time>2009-09-30T13:58:14Z</time>
      </trkpt>
      <trkpt lat="47.53696" lon="-2.84725">
        <ele>-0.3433838</ele>
        <time>2009-09-30T13:58:16Z</time>
      </trkpt>
      <trkpt lat="47.53737" lon="-2.84715">
        <ele>-2.7467041</ele>
        <time>2009-09-30T13:58:23Z</time>
      </trkpt>
      <trkpt lat="47.53743" lon="-2.84714">
        <ele>-2.7467041</ele>
        <time>2009-09-30T13:58:24Z</time>
      </trkpt>
      <trkpt lat="47.53759" lon="-2.84711">
        <ele>-2.7467041</ele>
        <time>2009-09-30T13:58:27Z</time>
      </trkpt>
      <trkpt lat="47.53772" lon="-2.84688">
        <ele>-3.2272949</ele>
        <time>2009-09-30T13:58:32Z</time>
      </trkpt>
      <trkpt lat="47.53777" lon="-2.84596">
        <ele>-1.7852783</ele>
        <time>2009-09-30T13:58:42Z</time>
      </trkpt>
      <trkpt lat="47.53782" lon="-2.84478">
        <ele>-0.3433838</ele>
        <time>2009-09-30T13:58:54Z</time>
      </trkpt>
      <trkpt lat="47.53796" lon="-2.84436">
        <ele>-0.3433838</ele>
        <time>2009-09-30T13:58:59Z</time>
      </trkpt>
      <trkpt lat="47.53801" lon="-2.84432">
        <ele>-0.8240967</ele>
        <time>2009-09-30T13:59:00Z</time>
      </trkpt>
      <trkpt lat="47.53811" lon="-2.84424">
        <ele>-1.3046875</ele>
        <time>2009-09-30T13:59:02Z</time>
      </trkpt>
      <trkpt lat="47.53834" lon="-2.84421">
        <ele>-1.7852783</ele>
        <time>2009-09-30T13:59:07Z</time>
      </trkpt>
      <trkpt lat="47.53836" lon="-2.84421">
        <ele>-1.3046875</ele>
        <time>2009-09-30T13:59:08Z</time>
      </trkpt>
      <trkpt lat="47.53834" lon="-2.84429">
        <ele>-1.7852783</ele>
        <time>2009-09-30T13:59:12Z</time>
      </trkpt>
      <trkpt lat="47.53815" lon="-2.84428">
        <ele>-0.8240967</ele>
        <time>2009-09-30T13:59:18Z</time>
      </trkpt>
      <trkpt lat="47.538" lon="-2.84436">
        <ele>-0.8240967</ele>
        <time>2009-09-30T13:59:22Z</time>
      </trkpt>
      <trkpt lat="47.5379" lon="-2.84427">
        <ele>-1.3046875</ele>
        <time>2009-09-30T13:59:27Z</time>
      </trkpt>
      <trkpt lat="47.53792" lon="-2.844">
        <ele>-1.3046875</ele>
        <time>2009-09-30T13:59:32Z</time>
      </trkpt>
      <trkpt lat="47.53805" lon="-2.84361">
        <ele>-2.7467041</ele>
        <time>2009-09-30T13:59:38Z</time>
      </trkpt>
      <trkpt lat="47.53808" lon="-2.84355">
        <ele>-2.7467041</ele>
        <time>2009-09-30T13:59:39Z</time>
      </trkpt>
      <trkpt lat="47.53819" lon="-2.84314">
        <ele>-2.2659912</ele>
        <time>2009-09-30T13:59:45Z</time>
      </trkpt>
      <trkpt lat="47.53829" lon="-2.8427">
        <ele>-2.7467041</ele>
        <time>2009-09-30T13:59:52Z</time>
      </trkpt>
      <trkpt lat="47.53834" lon="-2.84197">
        <ele>-2.7467041</ele>
        <time>2009-09-30T14:00:02Z</time>
      </trkpt>
      <trkpt lat="47.53835" lon="-2.84191">
        <ele>-2.7467041</ele>
        <time>2009-09-30T14:00:03Z</time>
      </trkpt>
      <trkpt lat="47.5385" lon="-2.84167">
        <ele>-1.7852783</ele>
        <time>2009-09-30T14:00:09Z</time>
      </trkpt>
      <trkpt lat="47.53859" lon="-2.84164">
        <ele>-1.3046875</ele>
        <time>2009-09-30T14:00:12Z</time>
      </trkpt>
      <trkpt lat="47.53877" lon="-2.84163">
        <ele>0.618042</ele>
        <time>2009-09-30T14:00:20Z</time>
      </trkpt>
      <trkpt lat="47.53894" lon="-2.84171">
        <ele>2.0600586</ele>
        <time>2009-09-30T14:00:26Z</time>
      </trkpt>
      <trkpt lat="47.53927" lon="-2.84182">
        <ele>3.5019531</ele>
        <time>2009-09-30T14:00:36Z</time>
      </trkpt>
      <trkpt lat="47.5395" lon="-2.84186">
        <ele>3.5019531</ele>
        <time>2009-09-30T14:00:43Z</time>
      </trkpt>
      <trkpt lat="47.53968" lon="-2.8419">
        <ele>4.4632568</ele>
        <time>2009-09-30T14:00:48Z</time>
      </trkpt>
      <trkpt lat="47.53981" lon="-2.84176">
        <ele>4.9438477</ele>
        <time>2009-09-30T14:00:53Z</time>
      </trkpt>
      <trkpt lat="47.53989" lon="-2.84153">
        <ele>4.4632568</ele>
        <time>2009-09-30T14:00:58Z</time>
      </trkpt>
      <trkpt lat="47.53991" lon="-2.84121">
        <ele>4.4632568</ele>
        <time>2009-09-30T14:01:03Z</time>
      </trkpt>
      <trkpt lat="47.54004" lon="-2.84113">
        <ele>5.4245605</ele>
        <time>2009-09-30T14:01:07Z</time>
      </trkpt>
      <trkpt lat="47.54031" lon="-2.84104">
        <ele>6.8664551</ele>
        <time>2009-09-30T14:01:14Z</time>
      </trkpt>
      <trkpt lat="47.54043" lon="-2.84099">
        <ele>8.3085938</ele>
        <time>2009-09-30T14:01:17Z</time>
      </trkpt>
      <trkpt lat="47.54048" lon="-2.84075">
        <ele>8.7891846</ele>
        <time>2009-09-30T14:01:22Z</time>
      </trkpt>
      <trkpt lat="47.54053" lon="-2.84007">
        <ele>6.8664551</ele>
        <time>2009-09-30T14:01:31Z</time>
      </trkpt>
      <trkpt lat="47.54055" lon="-2.83975">
        <ele>6.3858643</ele>
        <time>2009-09-30T14:01:35Z</time>
      </trkpt>
      <trkpt lat="47.54069" lon="-2.83915">
        <ele>4.9438477</ele>
        <time>2009-09-30T14:01:43Z</time>
      </trkpt>
      <trkpt lat="47.54073" lon="-2.83897">
        <ele>3.982666</ele>
        <time>2009-09-30T14:01:46Z</time>
      </trkpt>
      <trkpt lat="47.54084" lon="-2.83895">
        <ele>3.982666</ele>
        <time>2009-09-30T14:01:50Z</time>
      </trkpt>
      <trkpt lat="47.5411" lon="-2.83901">
        <ele>8.3085938</ele>
        <time>2009-09-30T14:01:58Z</time>
      </trkpt>
      <trkpt lat="47.54142" lon="-2.83895">
        <ele>8.7891846</ele>
        <time>2009-09-30T14:02:06Z</time>
      </trkpt>
      <trkpt lat="47.54182" lon="-2.83897">
        <ele>8.7891846</ele>
        <time>2009-09-30T14:02:16Z</time>
      </trkpt>
      <trkpt lat="47.54191" lon="-2.83899">
        <ele>9.2698975</ele>
        <time>2009-09-30T14:02:19Z</time>
      </trkpt>
      <trkpt lat="47.54195" lon="-2.83886">
        <ele>9.2698975</ele>
        <time>2009-09-30T14:02:25Z</time>
      </trkpt>
      <trkpt lat="47.54192" lon="-2.83875">
        <ele>7.8278809</ele>
        <time>2009-09-30T14:02:28Z</time>
      </trkpt>
      <trkpt lat="47.54174" lon="-2.83842">
        <ele>6.8664551</ele>
        <time>2009-09-30T14:02:36Z</time>
      </trkpt>
      <trkpt lat="47.54171" lon="-2.83837">
        <ele>5.9052734</ele>
        <time>2009-09-30T14:02:40Z</time>
      </trkpt>
      <trkpt lat="47.54166" lon="-2.83831">
        <ele>5.9052734</ele>
        <time>2009-09-30T14:02:47Z</time>
      </trkpt>
      <trkpt lat="47.54171" lon="-2.83829">
        <ele>5.9052734</ele>
        <time>2009-09-30T14:02:51Z</time>
      </trkpt>
      <trkpt lat="47.54175" lon="-2.83835">
        <ele>5.9052734</ele>
        <time>2009-09-30T14:02:53Z</time>
      </trkpt>
      <trkpt lat="47.54194" lon="-2.83857">
        <ele>6.3858643</ele>
        <time>2009-09-30T14:03:00Z</time>
      </trkpt>
      <trkpt lat="47.54197" lon="-2.83856">
        <ele>6.3858643</ele>
        <time>2009-09-30T14:03:01Z</time>
      </trkpt>
      <trkpt lat="47.54209" lon="-2.83827">
        <ele>5.9052734</ele>
        <time>2009-09-30T14:03:07Z</time>
      </trkpt>
      <trkpt lat="47.54222" lon="-2.83783">
        <ele>6.3858643</ele>
        <time>2009-09-30T14:03:14Z</time>
      </trkpt>
      <trkpt lat="47.54231" lon="-2.83746">
        <ele>6.3858643</ele>
        <time>2009-09-30T14:03:19Z</time>
      </trkpt>
      <trkpt lat="47.54239" lon="-2.83672">
        <ele>6.3858643</ele>
        <time>2009-09-30T14:03:28Z</time>
      </trkpt>
      <trkpt lat="47.54238" lon="-2.83637">
        <ele>5.4245605</ele>
        <time>2009-09-30T14:03:32Z</time>
      </trkpt>
      <trkpt lat="47.54222" lon="-2.83577">
        <ele>3.982666</ele>
        <time>2009-09-30T14:03:39Z</time>
      </trkpt>
      <trkpt lat="47.54177" lon="-2.83471">
        <ele>3.982666</ele>
        <time>2009-09-30T14:03:51Z</time>
      </trkpt>
      <trkpt lat="47.5416" lon="-2.83416">
        <ele>3.5019531</ele>
        <time>2009-09-30T14:03:57Z</time>
      </trkpt>
      <trkpt lat="47.5416" lon="-2.83365">
        <ele>2.0600586</ele>
        <time>2009-09-30T14:04:02Z</time>
      </trkpt>
      <trkpt lat="47.54185" lon="-2.83285">
        <ele>0.618042</ele>
        <time>2009-09-30T14:04:10Z</time>
      </trkpt>
      <trkpt lat="47.54216" lon="-2.83224">
        <ele>0.1374512</ele>
        <time>2009-09-30T14:04:17Z</time>
      </trkpt>
      <trkpt lat="47.54225" lon="-2.8321">
        <ele>0.1374512</ele>
        <time>2009-09-30T14:04:19Z</time>
      </trkpt>
      <trkpt lat="47.54228" lon="-2.83174">
        <ele>-0.8240967</ele>
        <time>2009-09-30T14:04:23Z</time>
      </trkpt>
      <trkpt lat="47.54224" lon="-2.83165">
        <ele>-0.8240967</ele>
        <time>2009-09-30T14:04:24Z</time>
      </trkpt>
      <trkpt lat="47.54193" lon="-2.83102">
        <ele>-2.2659912</ele>
        <time>2009-09-30T14:04:31Z</time>
      </trkpt>
      <trkpt lat="47.54181" lon="-2.83041">
        <ele>-3.2272949</ele>
        <time>2009-09-30T14:04:37Z</time>
      </trkpt>
      <trkpt lat="47.54187" lon="-2.82939">
        <ele>-2.2659912</ele>
        <time>2009-09-30T14:04:47Z</time>
      </trkpt>
      <trkpt lat="47.54188" lon="-2.82909">
        <ele>-2.2659912</ele>
        <time>2009-09-30T14:04:50Z</time>
      </trkpt>
      <trkpt lat="47.54179" lon="-2.82854">
        <ele>-0.8240967</ele>
        <time>2009-09-30T14:04:56Z</time>
      </trkpt>
      <trkpt lat="47.54175" lon="-2.82836">
        <ele>-0.3433838</ele>
        <time>2009-09-30T14:04:58Z</time>
      </trkpt>
      <trkpt lat="47.54173" lon="-2.82797">
        <ele>-1.3046875</ele>
        <time>2009-09-30T14:05:02Z</time>
      </trkpt>
      <trkpt lat="47.54185" lon="-2.82769">
        <ele>-1.7852783</ele>
        <time>2009-09-30T14:05:07Z</time>
      </trkpt>
      <trkpt lat="47.54193" lon="-2.82757">
        <ele>-2.7467041</ele>
        <time>2009-09-30T14:05:09Z</time>
      </trkpt>
      <trkpt lat="47.542" lon="-2.82727">
        <ele>-4.1885986</ele>
        <time>2009-09-30T14:05:13Z</time>
      </trkpt>
      <trkpt lat="47.54195" lon="-2.8269">
        <ele>-4.6693115</ele>
        <time>2009-09-30T14:05:18Z</time>
      </trkpt>
      <trkpt lat="47.54192" lon="-2.82672">
        <ele>-4.6693115</ele>
        <time>2009-09-30T14:05:21Z</time>
      </trkpt>
      <trkpt lat="47.54195" lon="-2.82628">
        <ele>-4.1885986</ele>
        <time>2009-09-30T14:05:29Z</time>
      </trkpt>
      <trkpt lat="47.54196" lon="-2.82624">
        <ele>-4.1885986</ele>
        <time>2009-09-30T14:05:30Z</time>
      </trkpt>
      <trkpt lat="47.54191" lon="-2.82617">
        <ele>-3.2272949</ele>
        <time>2009-09-30T14:05:35Z</time>
      </trkpt>
      <trkpt lat="47.54179" lon="-2.8261">
        <ele>-2.2659912</ele>
        <time>2009-09-30T14:05:45Z</time>
      </trkpt>
      <trkpt lat="47.54179" lon="-2.8261">
        <ele>-3.2272949</ele>
        <time>2009-09-30T14:05:51Z</time>
      </trkpt>
      <trkpt lat="47.54178" lon="-2.82609">
        <ele>-3.2272949</ele>
        <time>2009-09-30T14:05:56Z</time>
      </trkpt>
      <trkpt lat="47.54168" lon="-2.826">
        <ele>0.1374512</ele>
        <time>2009-09-30T14:06:05Z</time>
      </trkpt>
      <trkpt lat="47.54167" lon="-2.82599">
        <ele>-0.3433838</ele>
        <time>2009-09-30T14:06:25Z</time>
      </trkpt>
      <trkpt lat="47.54167" lon="-2.82599">
        <ele>-0.8240967</ele>
        <time>2009-09-30T14:06:26Z</time>
      </trkpt>
      <trkpt lat="47.54168" lon="-2.82602">
        <ele>-0.3433838</ele>
        <time>2009-09-30T14:06:28Z</time>
      </trkpt>
      <trkpt lat="47.54181" lon="-2.82609">
        <ele>-2.7467041</ele>
        <time>2009-09-30T14:06:35Z</time>
      </trkpt>
      <trkpt lat="47.54196" lon="-2.82615">
        <ele>-3.2272949</ele>
        <time>2009-09-30T14:06:41Z</time>
      </trkpt>
      <trkpt lat="47.54198" lon="-2.82615">
        <ele>-3.2272949</ele>
        <time>2009-09-30T14:06:42Z</time>
      </trkpt>
      <trkpt lat="47.54206" lon="-2.82604">
        <ele>-3.7078857</ele>
        <time>2009-09-30T14:06:46Z</time>
      </trkpt>
      <trkpt lat="47.54219" lon="-2.82547">
        <ele>-3.7078857</ele>
        <time>2009-09-30T14:06:57Z</time>
      </trkpt>
      <trkpt lat="47.54217" lon="-2.82524">
        <ele>-2.7467041</ele>
        <time>2009-09-30T14:07:03Z</time>
      </trkpt>
      <trkpt lat="47.54218" lon="-2.82516">
        <ele>-2.7467041</ele>
        <time>2009-09-30T14:07:08Z</time>
      </trkpt>
      <trkpt lat="47.54219" lon="-2.82511">
        <ele>-2.7467041</ele>
        <time>2009-09-30T14:07:12Z</time>
      </trkpt>
      <trkpt lat="47.54218" lon="-2.82526">
        <ele>-3.2272949</ele>
        <time>2009-09-30T14:07:19Z</time>
      </trkpt>
      <trkpt lat="47.54217" lon="-2.82561">
        <ele>-3.2272949</ele>
        <time>2009-09-30T14:07:27Z</time>
      </trkpt>
      <trkpt lat="47.54205" lon="-2.82603">
        <ele>-4.1885986</ele>
        <time>2009-09-30T14:07:36Z</time>
      </trkpt>
      <trkpt lat="47.54196" lon="-2.82642">
        <ele>-4.1885986</ele>
        <time>2009-09-30T14:07:45Z</time>
      </trkpt>
      <trkpt lat="47.54196" lon="-2.82675">
        <ele>-3.7078857</ele>
        <time>2009-09-30T14:07:52Z</time>
      </trkpt>
      <trkpt lat="47.54196" lon="-2.8269">
        <ele>-3.7078857</ele>
        <time>2009-09-30T14:07:55Z</time>
      </trkpt>
      <trkpt lat="47.54202" lon="-2.82705">
        <ele>-3.7078857</ele>
        <time>2009-09-30T14:07:59Z</time>
      </trkpt>
      <trkpt lat="47.54199" lon="-2.82707">
        <ele>-3.7078857</ele>
        <time>2009-09-30T14:08:04Z</time>
      </trkpt>
      <trkpt lat="47.54198" lon="-2.82704">
        <ele>-3.7078857</ele>
        <time>2009-09-30T14:08:05Z</time>
      </trkpt>
      <trkpt lat="47.54194" lon="-2.82672">
        <ele>-3.7078857</ele>
        <time>2009-09-30T14:08:14Z</time>
      </trkpt>
      <trkpt lat="47.54195" lon="-2.82632">
        <ele>-3.7078857</ele>
        <time>2009-09-30T14:08:23Z</time>
      </trkpt>
      <trkpt lat="47.54196" lon="-2.82624">
        <ele>-3.7078857</ele>
        <time>2009-09-30T14:08:26Z</time>
      </trkpt>
      <trkpt lat="47.54189" lon="-2.82618">
        <ele>-3.7078857</ele>
        <time>2009-09-30T14:08:31Z</time>
      </trkpt>
      <trkpt lat="47.54185" lon="-2.82616">
        <ele>-3.7078857</ele>
        <time>2009-09-30T14:08:33Z</time>
      </trkpt>
      <trkpt lat="47.54182" lon="-2.82617">
        <ele>-3.2272949</ele>
        <time>2009-09-30T14:08:35Z</time>
      </trkpt>
      <trkpt lat="47.54183" lon="-2.82625">
        <ele>-2.2659912</ele>
        <time>2009-09-30T14:08:39Z</time>
      </trkpt>
      <trkpt lat="47.54183" lon="-2.82631">
        <ele>-2.2659912</ele>
        <time>2009-09-30T14:08:47Z</time>
      </trkpt>
      <trkpt lat="47.54183" lon="-2.82632">
        <ele>-2.2659912</ele>
        <time>2009-09-30T14:08:53Z</time>
      </trkpt>
      <trkpt lat="47.54178" lon="-2.82632">
        <ele>-1.7852783</ele>
        <time>2009-09-30T14:08:57Z</time>
      </trkpt>
      <trkpt lat="47.54164" lon="-2.82626">
        <ele>1.0986328</ele>
        <time>2009-09-30T14:09:05Z</time>
      </trkpt>
      <trkpt lat="47.54154" lon="-2.82618">
        <ele>1.5793457</ele>
        <time>2009-09-30T14:09:11Z</time>
      </trkpt>
      <trkpt lat="47.54153" lon="-2.8262">
        <ele>1.0986328</ele>
        <time>2009-09-30T14:09:15Z</time>
      </trkpt>
      <trkpt lat="47.54161" lon="-2.82625">
        <ele>-0.3433838</ele>
        <time>2009-09-30T14:09:21Z</time>
      </trkpt>
      <trkpt lat="47.54175" lon="-2.82632">
        <ele>-0.3433838</ele>
        <time>2009-09-30T14:09:27Z</time>
      </trkpt>
      <trkpt lat="47.54182" lon="-2.82628">
        <ele>-0.3433838</ele>
        <time>2009-09-30T14:09:31Z</time>
      </trkpt>
      <trkpt lat="47.54181" lon="-2.8262">
        <ele>-0.3433838</ele>
        <time>2009-09-30T14:09:34Z</time>
      </trkpt>
      <trkpt lat="47.54187" lon="-2.82615">
        <ele>-1.3046875</ele>
        <time>2009-09-30T14:09:38Z</time>
      </trkpt>
      <trkpt lat="47.54205" lon="-2.82602">
        <ele>-3.2272949</ele>
        <time>2009-09-30T14:09:44Z</time>
      </trkpt>
      <trkpt lat="47.54214" lon="-2.82564">
        <ele>-3.7078857</ele>
        <time>2009-09-30T14:09:51Z</time>
      </trkpt>
      <trkpt lat="47.54216" lon="-2.8256">
        <ele>-3.7078857</ele>
        <time>2009-09-30T14:09:52Z</time>
      </trkpt>
      <trkpt lat="47.54218" lon="-2.82556">
        <ele>-4.1885986</ele>
        <time>2009-09-30T14:09:54Z</time>
      </trkpt>
      <trkpt lat="47.54216" lon="-2.82553">
        <ele>-4.6693115</ele>
        <time>2009-09-30T14:10:00Z</time>
      </trkpt>
      <trkpt lat="47.54215" lon="-2.82559">
        <ele>-4.6693115</ele>
        <time>2009-09-30T14:10:02Z</time>
      </trkpt>
      <trkpt lat="47.54211" lon="-2.82582">
        <ele>-5.1499023</ele>
        <time>2009-09-30T14:10:10Z</time>
      </trkpt>
      <trkpt lat="47.54203" lon="-2.82607">
        <ele>-5.6304932</ele>
        <time>2009-09-30T14:10:17Z</time>
      </trkpt>
      <trkpt lat="47.542" lon="-2.82614">
        <ele>-5.1499023</ele>
        <time>2009-09-30T14:10:19Z</time>
      </trkpt>
      <trkpt lat="47.54196" lon="-2.82644">
        <ele>-4.1885986</ele>
        <time>2009-09-30T14:10:28Z</time>
      </trkpt>
      <trkpt lat="47.54196" lon="-2.82661">
        <ele>-4.1885986</ele>
        <time>2009-09-30T14:10:36Z</time>
      </trkpt>
      <trkpt lat="47.54199" lon="-2.82694">
        <ele>-4.1885986</ele>
        <time>2009-09-30T14:10:43Z</time>
      </trkpt>
      <trkpt lat="47.542" lon="-2.82706">
        <ele>-4.6693115</ele>
        <time>2009-09-30T14:10:45Z</time>
      </trkpt>
      <trkpt lat="47.54202" lon="-2.82719">
        <ele>-4.6693115</ele>
        <time>2009-09-30T14:10:47Z</time>
      </trkpt>
      <trkpt lat="47.54196" lon="-2.82756">
        <ele>-4.1885986</ele>
        <time>2009-09-30T14:10:53Z</time>
      </trkpt>
      <trkpt lat="47.54189" lon="-2.82766">
        <ele>-3.7078857</ele>
        <time>2009-09-30T14:10:56Z</time>
      </trkpt>
      <trkpt lat="47.54173" lon="-2.82777">
        <ele>-2.7467041</ele>
        <time>2009-09-30T14:11:04Z</time>
      </trkpt>
      <trkpt lat="47.54175" lon="-2.82772">
        <ele>-2.2659912</ele>
        <time>2009-09-30T14:11:14Z</time>
      </trkpt>
      <trkpt lat="47.54176" lon="-2.82772">
        <ele>-2.2659912</ele>
        <time>2009-09-30T14:11:49Z</time>
      </trkpt>
      <trkpt lat="47.54176" lon="-2.82772">
        <ele>-2.2659912</ele>
        <time>2009-09-30T14:11:58Z</time>
      </trkpt>
      <trkpt lat="47.54182" lon="-2.8277">
        <ele>-2.7467041</ele>
        <time>2009-09-30T14:12:05Z</time>
      </trkpt>
      <trkpt lat="47.54183" lon="-2.82772">
        <ele>-2.7467041</ele>
        <time>2009-09-30T14:12:36Z</time>
      </trkpt>
      <trkpt lat="47.54182" lon="-2.82772">
        <ele>-3.2272949</ele>
        <time>2009-09-30T14:12:56Z</time>
      </trkpt>
      <trkpt lat="47.54182" lon="-2.82772">
        <ele>-4.1885986</ele>
        <time>2009-09-30T14:13:35Z</time>
      </trkpt>
      <trkpt lat="47.54179" lon="-2.82774">
        <ele>-3.7078857</ele>
        <time>2009-09-30T14:13:39Z</time>
      </trkpt>
      <trkpt lat="47.54173" lon="-2.82775">
        <ele>-2.2659912</ele>
        <time>2009-09-30T14:13:44Z</time>
      </trkpt>
      <trkpt lat="47.54155" lon="-2.82781">
        <ele>0.618042</ele>
        <time>2009-09-30T14:13:51Z</time>
      </trkpt>
      <trkpt lat="47.5414" lon="-2.82789">
        <ele>0.1374512</ele>
        <time>2009-09-30T14:13:59Z</time>
      </trkpt>
      <trkpt lat="47.54124" lon="-2.82799">
        <ele>0.618042</ele>
        <time>2009-09-30T14:14:07Z</time>
      </trkpt>
      <trkpt lat="47.5411" lon="-2.8281">
        <ele>0.1374512</ele>
        <time>2009-09-30T14:14:14Z</time>
      </trkpt>
      <trkpt lat="47.54096" lon="-2.82831">
        <ele>0.618042</ele>
        <time>2009-09-30T14:14:20Z</time>
      </trkpt>
      <trkpt lat="47.5408" lon="-2.82855">
        <ele>1.0986328</ele>
        <time>2009-09-30T14:14:27Z</time>
      </trkpt>
      <trkpt lat="47.54059" lon="-2.82877">
        <ele>3.0212402</ele>
        <time>2009-09-30T14:14:32Z</time>
      </trkpt>
      <trkpt lat="47.54052" lon="-2.82884">
        <ele>3.0212402</ele>
        <time>2009-09-30T14:14:34Z</time>
      </trkpt>
      <trkpt lat="47.54016" lon="-2.82912">
        <ele>3.0212402</ele>
        <time>2009-09-30T14:14:41Z</time>
      </trkpt>
      <trkpt lat="47.54003" lon="-2.82923">
        <ele>3.982666</ele>
        <time>2009-09-30T14:14:46Z</time>
      </trkpt>
      <trkpt lat="47.53988" lon="-2.82931">
        <ele>5.4245605</ele>
        <time>2009-09-30T14:14:53Z</time>
      </trkpt>
      <trkpt lat="47.53964" lon="-2.82935">
        <ele>7.8278809</ele>
        <time>2009-09-30T14:15:01Z</time>
      </trkpt>
      <trkpt lat="47.5394" lon="-2.8293">
        <ele>12.1538086</ele>
        <time>2009-09-30T14:15:08Z</time>
      </trkpt>
      <trkpt lat="47.53911" lon="-2.82924">
        <ele>15.0377197</ele>
        <time>2009-09-30T14:15:16Z</time>
      </trkpt>
      <trkpt lat="47.53889" lon="-2.8292">
        <ele>17.4411621</ele>
        <time>2009-09-30T14:15:22Z</time>
      </trkpt>
      <trkpt lat="47.53869" lon="-2.82925">
        <ele>15.5184326</ele>
        <time>2009-09-30T14:15:28Z</time>
      </trkpt>
      <trkpt lat="47.53849" lon="-2.82933">
        <ele>12.1538086</ele>
        <time>2009-09-30T14:15:34Z</time>
      </trkpt>
      <trkpt lat="47.53818" lon="-2.82941">
        <ele>9.7506104</ele>
        <time>2009-09-30T14:15:41Z</time>
      </trkpt>
      <trkpt lat="47.53793" lon="-2.8294">
        <ele>8.7891846</ele>
        <time>2009-09-30T14:15:47Z</time>
      </trkpt>
      <trkpt lat="47.53761" lon="-2.82952">
        <ele>6.3858643</ele>
        <time>2009-09-30T14:15:53Z</time>
      </trkpt>
      <trkpt lat="47.53734" lon="-2.82963">
        <ele>3.982666</ele>
        <time>2009-09-30T14:15:57Z</time>
      </trkpt>
      <trkpt lat="47.53709" lon="-2.82971">
        <ele>2.5406494</ele>
        <time>2009-09-30T14:16:01Z</time>
      </trkpt>
      <trkpt lat="47.53674" lon="-2.82986">
        <ele>-0.3433838</ele>
        <time>2009-09-30T14:16:06Z</time>
      </trkpt>
      <trkpt lat="47.53638" lon="-2.82994">
        <ele>0.618042</ele>
        <time>2009-09-30T14:16:13Z</time>
      </trkpt>
      <trkpt lat="47.53619" lon="-2.82995">
        <ele>-0.3433838</ele>
        <time>2009-09-30T14:16:19Z</time>
      </trkpt>
      <trkpt lat="47.53616" lon="-2.82997">
        <ele>0.1374512</ele>
        <time>2009-09-30T14:16:21Z</time>
      </trkpt>
      <trkpt lat="47.53604" lon="-2.83003">
        <ele>0.1374512</ele>
        <time>2009-09-30T14:16:29Z</time>
      </trkpt>
      <trkpt lat="47.53591" lon="-2.8301">
        <ele>1.0986328</ele>
        <time>2009-09-30T14:16:38Z</time>
      </trkpt>
      <trkpt lat="47.53592" lon="-2.83008">
        <ele>2.0600586</ele>
        <time>2009-09-30T14:18:47Z</time>
      </trkpt>
      <trkpt lat="47.53606" lon="-2.83">
        <ele>0.1374512</ele>
        <time>2009-09-30T14:18:54Z</time>
      </trkpt>
      <trkpt lat="47.53642" lon="-2.8299">
        <ele>-0.3433838</ele>
        <time>2009-09-30T14:19:03Z</time>
      </trkpt>
      <trkpt lat="47.53674" lon="-2.82981">
        <ele>-2.2659912</ele>
        <time>2009-09-30T14:19:10Z</time>
      </trkpt>
      <trkpt lat="47.53706" lon="-2.82969">
        <ele>0.1374512</ele>
        <time>2009-09-30T14:19:17Z</time>
      </trkpt>
      <trkpt lat="47.53748" lon="-2.82953">
        <ele>3.5019531</ele>
        <time>2009-09-30T14:19:26Z</time>
      </trkpt>
      <trkpt lat="47.53773" lon="-2.82942">
        <ele>6.3858643</ele>
        <time>2009-09-30T14:19:32Z</time>
      </trkpt>
      <trkpt lat="47.53805" lon="-2.82936">
        <ele>7.8278809</ele>
        <time>2009-09-30T14:19:41Z</time>
      </trkpt>
      <trkpt lat="47.53825" lon="-2.82928">
        <ele>10.2312012</ele>
        <time>2009-09-30T14:19:47Z</time>
      </trkpt>
      <trkpt lat="47.53849" lon="-2.82919">
        <ele>12.1538086</ele>
        <time>2009-09-30T14:19:54Z</time>
      </trkpt>
      <trkpt lat="47.53878" lon="-2.82905">
        <ele>11.6732178</ele>
        <time>2009-09-30T14:19:58Z</time>
      </trkpt>
      <trkpt lat="47.53912" lon="-2.8291">
        <ele>9.7506104</ele>
        <time>2009-09-30T14:20:03Z</time>
      </trkpt>
      <trkpt lat="47.53943" lon="-2.82923">
        <ele>10.711792</ele>
        <time>2009-09-30T14:20:08Z</time>
      </trkpt>
      <trkpt lat="47.53976" lon="-2.82922">
        <ele>18.4023438</ele>
        <time>2009-09-30T14:20:13Z</time>
      </trkpt>
      <trkpt lat="47.54009" lon="-2.82904">
        <ele>16.4797363</ele>
        <time>2009-09-30T14:20:17Z</time>
      </trkpt>
      <trkpt lat="47.54045" lon="-2.82877">
        <ele>13.1151123</ele>
        <time>2009-09-30T14:20:22Z</time>
      </trkpt>
      <trkpt lat="47.54069" lon="-2.82853">
        <ele>12.1538086</ele>
        <time>2009-09-30T14:20:28Z</time>
      </trkpt>
      <trkpt lat="47.54089" lon="-2.82827">
        <ele>13.1151123</ele>
        <time>2009-09-30T14:20:34Z</time>
      </trkpt>
      <trkpt lat="47.54101" lon="-2.82814">
        <ele>13.5958252</ele>
        <time>2009-09-30T14:20:37Z</time>
      </trkpt>
      <trkpt lat="47.54142" lon="-2.82784">
        <ele>8.3085938</ele>
        <time>2009-09-30T14:20:44Z</time>
      </trkpt>
      <trkpt lat="47.54162" lon="-2.82776">
        <ele>6.8664551</ele>
        <time>2009-09-30T14:20:49Z</time>
      </trkpt>
      <trkpt lat="47.54175" lon="-2.82773">
        <ele>2.5406494</ele>
        <time>2009-09-30T14:20:54Z</time>
      </trkpt>
      <trkpt lat="47.54192" lon="-2.82756">
        <ele>2.0600586</ele>
        <time>2009-09-30T14:20:59Z</time>
      </trkpt>
      <trkpt lat="47.542" lon="-2.82721">
        <ele>-3.2272949</ele>
        <time>2009-09-30T14:21:05Z</time>
      </trkpt>
      <trkpt lat="47.54199" lon="-2.82715">
        <ele>-3.2272949</ele>
        <time>2009-09-30T14:21:06Z</time>
      </trkpt>
      <trkpt lat="47.54192" lon="-2.8265">
        <ele>-3.7078857</ele>
        <time>2009-09-30T14:21:17Z</time>
      </trkpt>
      <trkpt lat="47.542" lon="-2.82614">
        <ele>-3.7078857</ele>
        <time>2009-09-30T14:21:24Z</time>
      </trkpt>
      <trkpt lat="47.54214" lon="-2.82566">
        <ele>-4.1885986</ele>
        <time>2009-09-30T14:21:33Z</time>
      </trkpt>
      <trkpt lat="47.54217" lon="-2.82559">
        <ele>-4.6693115</ele>
        <time>2009-09-30T14:21:35Z</time>
      </trkpt>
      <trkpt lat="47.54216" lon="-2.82551">
        <ele>-5.1499023</ele>
        <time>2009-09-30T14:21:39Z</time>
      </trkpt>
      <trkpt lat="47.5422" lon="-2.82546">
        <ele>-5.1499023</ele>
        <time>2009-09-30T14:21:47Z</time>
      </trkpt>
      <trkpt lat="47.5422" lon="-2.82546">
        <ele>-5.1499023</ele>
        <time>2009-09-30T14:21:50Z</time>
      </trkpt>
      <trkpt lat="47.54219" lon="-2.82551">
        <ele>-5.1499023</ele>
        <time>2009-09-30T14:21:56Z</time>
      </trkpt>
      <trkpt lat="47.54219" lon="-2.82552">
        <ele>-5.6304932</ele>
        <time>2009-09-30T14:22:08Z</time>
      </trkpt>
      <trkpt lat="47.54219" lon="-2.82552">
        <ele>-5.6304932</ele>
        <time>2009-09-30T14:22:38Z</time>
      </trkpt>
      <trkpt lat="47.54217" lon="-2.82555">
        <ele>-5.6304932</ele>
        <time>2009-09-30T14:22:59Z</time>
      </trkpt>
      <trkpt lat="47.54216" lon="-2.82554">
        <ele>-5.6304932</ele>
        <time>2009-09-30T14:23:25Z</time>
      </trkpt>
      <trkpt lat="47.54216" lon="-2.82556">
        <ele>-5.6304932</ele>
        <time>2009-09-30T14:23:31Z</time>
      </trkpt>
      <trkpt lat="47.54214" lon="-2.82578">
        <ele>-5.1499023</ele>
        <time>2009-09-30T14:23:40Z</time>
      </trkpt>
      <trkpt lat="47.54204" lon="-2.8261">
        <ele>-5.1499023</ele>
        <time>2009-09-30T14:23:49Z</time>
      </trkpt>
      <trkpt lat="47.54202" lon="-2.82616">
        <ele>-4.1885986</ele>
        <time>2009-09-30T14:23:51Z</time>
      </trkpt>
      <trkpt lat="47.54193" lon="-2.8262">
        <ele>-3.7078857</ele>
        <time>2009-09-30T14:23:58Z</time>
      </trkpt>
      <trkpt lat="47.54178" lon="-2.82607">
        <ele>0.1374512</ele>
        <time>2009-09-30T14:24:09Z</time>
      </trkpt>
      <trkpt lat="47.54172" lon="-2.82605">
        <ele>1.0986328</ele>
        <time>2009-09-30T14:24:16Z</time>
      </trkpt>
      <trkpt lat="47.54168" lon="-2.82604">
        <ele>1.5793457</ele>
        <time>2009-09-30T14:24:26Z</time>
      </trkpt>
      <trkpt lat="47.54167" lon="-2.82604">
        <ele>1.5793457</ele>
        <time>2009-09-30T14:24:34Z</time>
      </trkpt>
      <trkpt lat="47.54158" lon="-2.82603">
        <ele>1.0986328</ele>
        <time>2009-09-30T14:24:41Z</time>
      </trkpt>
      <trkpt lat="47.5415" lon="-2.826">
        <ele>2.0600586</ele>
        <time>2009-09-30T14:24:50Z</time>
      </trkpt>
      <trkpt lat="47.54147" lon="-2.82599">
        <ele>2.5406494</ele>
        <time>2009-09-30T14:24:53Z</time>
      </trkpt>
      <trkpt lat="47.54138" lon="-2.82597">
        <ele>2.5406494</ele>
        <time>2009-09-30T14:25:02Z</time>
      </trkpt>
      <trkpt lat="47.54133" lon="-2.82596">
        <ele>2.5406494</ele>
        <time>2009-09-30T14:25:10Z</time>
      </trkpt>
      <trkpt lat="47.54133" lon="-2.82599">
        <ele>1.0986328</ele>
        <time>2009-09-30T14:25:16Z</time>
      </trkpt>
      <trkpt lat="47.5413" lon="-2.82601">
        <ele>0.1374512</ele>
        <time>2009-09-30T14:25:19Z</time>
      </trkpt>
      <trkpt lat="47.54128" lon="-2.82599">
        <ele>0.1374512</ele>
        <time>2009-09-30T14:25:26Z</time>
      </trkpt>
      <trkpt lat="47.54122" lon="-2.82595">
        <ele>1.5793457</ele>
        <time>2009-09-30T14:25:36Z</time>
      </trkpt>
      <trkpt lat="47.54116" lon="-2.8259">
        <ele>3.5019531</ele>
        <time>2009-09-30T14:25:40Z</time>
      </trkpt>
      <trkpt lat="47.54111" lon="-2.82588">
        <ele>3.5019531</ele>
        <time>2009-09-30T14:25:43Z</time>
      </trkpt>
      <trkpt lat="47.54102" lon="-2.82579">
        <ele>3.5019531</ele>
        <time>2009-09-30T14:25:49Z</time>
      </trkpt>
      <trkpt lat="47.54101" lon="-2.82578">
        <ele>2.5406494</ele>
        <time>2009-09-30T14:25:57Z</time>
      </trkpt>
      <trkpt lat="47.541" lon="-2.82576">
        <ele>3.5019531</ele>
        <time>2009-09-30T14:25:59Z</time>
      </trkpt>
      <trkpt lat="47.54095" lon="-2.82561">
        <ele>3.5019531</ele>
        <time>2009-09-30T14:26:04Z</time>
      </trkpt>
      <trkpt lat="47.54092" lon="-2.82556">
        <ele>3.982666</ele>
        <time>2009-09-30T14:26:05Z</time>
      </trkpt>
      <trkpt lat="47.54071" lon="-2.82514">
        <ele>4.4632568</ele>
        <time>2009-09-30T14:26:12Z</time>
      </trkpt>
      <trkpt lat="47.54057" lon="-2.82499">
        <ele>6.8664551</ele>
        <time>2009-09-30T14:26:16Z</time>
      </trkpt>
      <trkpt lat="47.54041" lon="-2.82489">
        <ele>6.8664551</ele>
        <time>2009-09-30T14:26:20Z</time>
      </trkpt>
      <trkpt lat="47.54027" lon="-2.82474">
        <ele>7.8278809</ele>
        <time>2009-09-30T14:26:24Z</time>
      </trkpt>
      <trkpt lat="47.54003" lon="-2.82456">
        <ele>8.7891846</ele>
        <time>2009-09-30T14:26:31Z</time>
      </trkpt>
      <trkpt lat="47.54" lon="-2.82456">
        <ele>8.7891846</ele>
        <time>2009-09-30T14:26:32Z</time>
      </trkpt>
      <trkpt lat="47.53986" lon="-2.82471">
        <ele>7.8278809</ele>
        <time>2009-09-30T14:26:36Z</time>
      </trkpt>
      <trkpt lat="47.53967" lon="-2.82472">
        <ele>8.3085938</ele>
        <time>2009-09-30T14:26:41Z</time>
      </trkpt>
      <trkpt lat="47.53965" lon="-2.82469">
        <ele>8.3085938</ele>
        <time>2009-09-30T14:26:42Z</time>
      </trkpt>
      <trkpt lat="47.5395" lon="-2.82441">
        <ele>9.2698975</ele>
        <time>2009-09-30T14:26:49Z</time>
      </trkpt>
      <trkpt lat="47.53956" lon="-2.82409">
        <ele>9.2698975</ele>
        <time>2009-09-30T14:26:55Z</time>
      </trkpt>
      <trkpt lat="47.53961" lon="-2.82388">
        <ele>9.2698975</ele>
        <time>2009-09-30T14:26:59Z</time>
      </trkpt>
      <trkpt lat="47.5396" lon="-2.82338">
        <ele>9.7506104</ele>
        <time>2009-09-30T14:27:07Z</time>
      </trkpt>
      <trkpt lat="47.53962" lon="-2.8232">
        <ele>9.2698975</ele>
        <time>2009-09-30T14:27:10Z</time>
      </trkpt>
      <trkpt lat="47.53975" lon="-2.82273">
        <ele>6.8664551</ele>
        <time>2009-09-30T14:27:17Z</time>
      </trkpt>
      <trkpt lat="47.53983" lon="-2.82245">
        <ele>6.3858643</ele>
        <time>2009-09-30T14:27:21Z</time>
      </trkpt>
      <trkpt lat="47.54015" lon="-2.82186">
        <ele>5.9052734</ele>
        <time>2009-09-30T14:27:31Z</time>
      </trkpt>
      <trkpt lat="47.54022" lon="-2.82175">
        <ele>5.9052734</ele>
        <time>2009-09-30T14:27:33Z</time>
      </trkpt>
      <trkpt lat="47.54033" lon="-2.82159">
        <ele>5.9052734</ele>
        <time>2009-09-30T14:27:36Z</time>
      </trkpt>
      <trkpt lat="47.54054" lon="-2.82099">
        <ele>5.4245605</ele>
        <time>2009-09-30T14:27:45Z</time>
      </trkpt>
      <trkpt lat="47.54057" lon="-2.82085">
        <ele>5.4245605</ele>
        <time>2009-09-30T14:27:47Z</time>
      </trkpt>
      <trkpt lat="47.5406" lon="-2.82071">
        <ele>5.9052734</ele>
        <time>2009-09-30T14:27:49Z</time>
      </trkpt>
      <trkpt lat="47.5406" lon="-2.82033">
        <ele>8.7891846</ele>
        <time>2009-09-30T14:27:55Z</time>
      </trkpt>
      <trkpt lat="47.54059" lon="-2.82012">
        <ele>7.8278809</ele>
        <time>2009-09-30T14:27:58Z</time>
      </trkpt>
      <trkpt lat="47.54058" lon="-2.81989">
        <ele>7.347168</ele>
        <time>2009-09-30T14:28:01Z</time>
      </trkpt>
      <trkpt lat="47.54055" lon="-2.81973">
        <ele>7.8278809</ele>
        <time>2009-09-30T14:28:03Z</time>
      </trkpt>
      <trkpt lat="47.54044" lon="-2.81948">
        <ele>7.8278809</ele>
        <time>2009-09-30T14:28:07Z</time>
      </trkpt>
      <trkpt lat="47.54023" lon="-2.81925">
        <ele>8.3085938</ele>
        <time>2009-09-30T14:28:13Z</time>
      </trkpt>
      <trkpt lat="47.54007" lon="-2.819">
        <ele>9.2698975</ele>
        <time>2009-09-30T14:28:19Z</time>
      </trkpt>
      <trkpt lat="47.53994" lon="-2.81878">
        <ele>10.711792</ele>
        <time>2009-09-30T14:28:23Z</time>
      </trkpt>
      <trkpt lat="47.53975" lon="-2.81829">
        <ele>10.711792</ele>
        <time>2009-09-30T14:28:30Z</time>
      </trkpt>
      <trkpt lat="47.53962" lon="-2.81806">
        <ele>10.711792</ele>
        <time>2009-09-30T14:28:34Z</time>
      </trkpt>
      <trkpt lat="47.53952" lon="-2.81768">
        <ele>10.711792</ele>
        <time>2009-09-30T14:28:39Z</time>
      </trkpt>
      <trkpt lat="47.5395" lon="-2.81752">
        <ele>10.2312012</ele>
        <time>2009-09-30T14:28:41Z</time>
      </trkpt>
      <trkpt lat="47.53951" lon="-2.81712">
        <ele>11.6732178</ele>
        <time>2009-09-30T14:28:46Z</time>
      </trkpt>
      <trkpt lat="47.53943" lon="-2.81636">
        <ele>10.711792</ele>
        <time>2009-09-30T14:28:56Z</time>
      </trkpt>
      <trkpt lat="47.53941" lon="-2.8162">
        <ele>11.6732178</ele>
        <time>2009-09-30T14:29:01Z</time>
      </trkpt>
      <trkpt lat="47.53941" lon="-2.81612">
        <ele>11.6732178</ele>
        <time>2009-09-30T14:29:04Z</time>
      </trkpt>
      <trkpt lat="47.5394" lon="-2.81607">
        <ele>11.6732178</ele>
        <time>2009-09-30T14:29:11Z</time>
      </trkpt>
      <trkpt lat="47.53942" lon="-2.81607">
        <ele>11.6732178</ele>
        <time>2009-09-30T14:29:23Z</time>
      </trkpt>
      <trkpt lat="47.53941" lon="-2.81605">
        <ele>12.1538086</ele>
        <time>2009-09-30T14:29:32Z</time>
      </trkpt>
      <trkpt lat="47.53939" lon="-2.81592">
        <ele>13.5958252</ele>
        <time>2009-09-30T14:29:38Z</time>
      </trkpt>
      <trkpt lat="47.53935" lon="-2.81565">
        <ele>12.6343994</ele>
        <time>2009-09-30T14:29:42Z</time>
      </trkpt>
      <trkpt lat="47.53923" lon="-2.81537">
        <ele>10.711792</ele>
        <time>2009-09-30T14:29:47Z</time>
      </trkpt>
      <trkpt lat="47.53904" lon="-2.81515">
        <ele>6.3858643</ele>
        <time>2009-09-30T14:29:52Z</time>
      </trkpt>
      <trkpt lat="47.53897" lon="-2.81499">
        <ele>5.9052734</ele>
        <time>2009-09-30T14:29:56Z</time>
      </trkpt>
      <trkpt lat="47.53897" lon="-2.81485">
        <ele>5.4245605</ele>
        <time>2009-09-30T14:29:58Z</time>
      </trkpt>
      <trkpt lat="47.53909" lon="-2.81428">
        <ele>3.982666</ele>
        <time>2009-09-30T14:30:05Z</time>
      </trkpt>
      <trkpt lat="47.53919" lon="-2.81399">
        <ele>3.0212402</ele>
        <time>2009-09-30T14:30:08Z</time>
      </trkpt>
      <trkpt lat="47.53928" lon="-2.81368">
        <ele>1.5793457</ele>
        <time>2009-09-30T14:30:11Z</time>
      </trkpt>
      <trkpt lat="47.53931" lon="-2.81313">
        <ele>1.0986328</ele>
        <time>2009-09-30T14:30:16Z</time>
      </trkpt>
      <trkpt lat="47.53927" lon="-2.81281">
        <ele>0.618042</ele>
        <time>2009-09-30T14:30:19Z</time>
      </trkpt>
      <trkpt lat="47.53909" lon="-2.8122">
        <ele>1.5793457</ele>
        <time>2009-09-30T14:30:26Z</time>
      </trkpt>
      <trkpt lat="47.53894" lon="-2.81202">
        <ele>2.0600586</ele>
        <time>2009-09-30T14:30:30Z</time>
      </trkpt>
      <trkpt lat="47.53836" lon="-2.81186">
        <ele>1.0986328</ele>
        <time>2009-09-30T14:30:40Z</time>
      </trkpt>
      <trkpt lat="47.53822" lon="-2.81181">
        <ele>1.0986328</ele>
        <time>2009-09-30T14:30:43Z</time>
      </trkpt>
      <trkpt lat="47.53817" lon="-2.81184">
        <ele>0.618042</ele>
        <time>2009-09-30T14:30:45Z</time>
      </trkpt>
      <trkpt lat="47.53811" lon="-2.81177">
        <ele>1.0986328</ele>
        <time>2009-09-30T14:30:50Z</time>
      </trkpt>
      <trkpt lat="47.53816" lon="-2.81177">
        <ele>0.618042</ele>
        <time>2009-09-30T14:30:53Z</time>
      </trkpt>
      <trkpt lat="47.53845" lon="-2.81188">
        <ele>-0.3433838</ele>
        <time>2009-09-30T14:31:02Z</time>
      </trkpt>
      <trkpt lat="47.53853" lon="-2.81186">
        <ele>0.1374512</ele>
        <time>2009-09-30T14:31:04Z</time>
      </trkpt>
      <trkpt lat="47.53865" lon="-2.81188">
        <ele>-0.3433838</ele>
        <time>2009-09-30T14:31:07Z</time>
      </trkpt>
      <trkpt lat="47.53878" lon="-2.81188">
        <ele>0.1374512</ele>
        <time>2009-09-30T14:31:12Z</time>
      </trkpt>
      <trkpt lat="47.53895" lon="-2.81198">
        <ele>-0.3433838</ele>
        <time>2009-09-30T14:31:19Z</time>
      </trkpt>
      <trkpt lat="47.53912" lon="-2.81202">
        <ele>-0.8240967</ele>
        <time>2009-09-30T14:31:25Z</time>
      </trkpt>
      <trkpt lat="47.53944" lon="-2.81201">
        <ele>-0.8240967</ele>
        <time>2009-09-30T14:31:36Z</time>
      </trkpt>
      <trkpt lat="47.53967" lon="-2.81195">
        <ele>1.5793457</ele>
        <time>2009-09-30T14:31:45Z</time>
      </trkpt>
      <trkpt lat="47.53967" lon="-2.81201">
        <ele>1.5793457</ele>
        <time>2009-09-30T14:31:49Z</time>
      </trkpt>
      <trkpt lat="47.53965" lon="-2.81202">
        <ele>1.5793457</ele>
        <time>2009-09-30T14:31:50Z</time>
      </trkpt>
      <trkpt lat="47.53942" lon="-2.81205">
        <ele>1.0986328</ele>
        <time>2009-09-30T14:31:58Z</time>
      </trkpt>
      <trkpt lat="47.53913" lon="-2.81208">
        <ele>0.618042</ele>
        <time>2009-09-30T14:32:06Z</time>
      </trkpt>
      <trkpt lat="47.53892" lon="-2.81202">
        <ele>-0.3433838</ele>
        <time>2009-09-30T14:32:14Z</time>
      </trkpt>
      <trkpt lat="47.53872" lon="-2.81193">
        <ele>-0.8240967</ele>
        <time>2009-09-30T14:32:22Z</time>
      </trkpt>
      <trkpt lat="47.5387" lon="-2.81191">
        <ele>-0.8240967</ele>
        <time>2009-09-30T14:32:23Z</time>
      </trkpt>
      <trkpt lat="47.53874" lon="-2.81182">
        <ele>-1.7852783</ele>
        <time>2009-09-30T14:32:30Z</time>
      </trkpt>
      <trkpt lat="47.53874" lon="-2.81182">
        <ele>-1.3046875</ele>
        <time>2009-09-30T14:32:39Z</time>
      </trkpt>
      <trkpt lat="47.53871" lon="-2.81191">
        <ele>-0.8240967</ele>
        <time>2009-09-30T14:32:45Z</time>
      </trkpt>
      <trkpt lat="47.53868" lon="-2.81191">
        <ele>-0.8240967</ele>
        <time>2009-09-30T14:32:47Z</time>
      </trkpt>
      <trkpt lat="47.53852" lon="-2.81175">
        <ele>-0.8240967</ele>
        <time>2009-09-30T14:32:55Z</time>
      </trkpt>
      <trkpt lat="47.53847" lon="-2.81136">
        <ele>-1.3046875</ele>
        <time>2009-09-30T14:33:03Z</time>
      </trkpt>
      <trkpt lat="47.5384" lon="-2.81101">
        <ele>-0.8240967</ele>
        <time>2009-09-30T14:33:10Z</time>
      </trkpt>
      <trkpt lat="47.53812" lon="-2.8107">
        <ele>-0.3433838</ele>
        <time>2009-09-30T14:33:18Z</time>
      </trkpt>
      <trkpt lat="47.53797" lon="-2.81057">
        <ele>-1.3046875</ele>
        <time>2009-09-30T14:33:22Z</time>
      </trkpt>
      <trkpt lat="47.53773" lon="-2.8103">
        <ele>-0.8240967</ele>
        <time>2009-09-30T14:33:29Z</time>
      </trkpt>
      <trkpt lat="47.53758" lon="-2.81015">
        <ele>-0.8240967</ele>
        <time>2009-09-30T14:33:34Z</time>
      </trkpt>
      <trkpt lat="47.53756" lon="-2.80994">
        <ele>-1.3046875</ele>
        <time>2009-09-30T14:33:40Z</time>
      </trkpt>
      <trkpt lat="47.53759" lon="-2.80949">
        <ele>-0.3433838</ele>
        <time>2009-09-30T14:33:48Z</time>
      </trkpt>
      <trkpt lat="47.53757" lon="-2.80925">
        <ele>0.1374512</ele>
        <time>2009-09-30T14:33:53Z</time>
      </trkpt>
      <trkpt lat="47.53748" lon="-2.80916">
        <ele>0.618042</ele>
        <time>2009-09-30T14:33:57Z</time>
      </trkpt>
      <trkpt lat="47.53738" lon="-2.80879">
        <ele>2.0600586</ele>
        <time>2009-09-30T14:34:05Z</time>
      </trkpt>
      <trkpt lat="47.53733" lon="-2.80847">
        <ele>2.5406494</ele>
        <time>2009-09-30T14:34:11Z</time>
      </trkpt>
      <trkpt lat="47.53731" lon="-2.80783">
        <ele>2.0600586</ele>
        <time>2009-09-30T14:34:21Z</time>
      </trkpt>
      <trkpt lat="47.53729" lon="-2.80741">
        <ele>3.0212402</ele>
        <time>2009-09-30T14:34:28Z</time>
      </trkpt>
      <trkpt lat="47.5373" lon="-2.80719">
        <ele>3.0212402</ele>
        <time>2009-09-30T14:34:32Z</time>
      </trkpt>
      <trkpt lat="47.5373" lon="-2.80698">
        <ele>3.0212402</ele>
        <time>2009-09-30T14:34:37Z</time>
      </trkpt>
      <trkpt lat="47.53737" lon="-2.80678">
        <ele>0.618042</ele>
        <time>2009-09-30T14:34:41Z</time>
      </trkpt>
      <trkpt lat="47.53752" lon="-2.80675">
        <ele>1.0986328</ele>
        <time>2009-09-30T14:34:47Z</time>
      </trkpt>
      <trkpt lat="47.53768" lon="-2.80675">
        <ele>1.5793457</ele>
        <time>2009-09-30T14:34:52Z</time>
      </trkpt>
      <trkpt lat="47.53785" lon="-2.80667">
        <ele>-1.3046875</ele>
        <time>2009-09-30T14:34:58Z</time>
      </trkpt>
      <trkpt lat="47.53805" lon="-2.8065">
        <ele>0.618042</ele>
        <time>2009-09-30T14:35:03Z</time>
      </trkpt>
      <trkpt lat="47.53833" lon="-2.80625">
        <ele>-0.3433838</ele>
        <time>2009-09-30T14:35:09Z</time>
      </trkpt>
      <trkpt lat="47.53841" lon="-2.80606">
        <ele>-1.7852783</ele>
        <time>2009-09-30T14:35:13Z</time>
      </trkpt>
      <trkpt lat="47.53862" lon="-2.80576">
        <ele>-3.2272949</ele>
        <time>2009-09-30T14:35:18Z</time>
      </trkpt>
      <trkpt lat="47.5387" lon="-2.80569">
        <ele>-3.2272949</ele>
        <time>2009-09-30T14:35:20Z</time>
      </trkpt>
      <trkpt lat="47.53894" lon="-2.8054">
        <ele>-2.2659912</ele>
        <time>2009-09-30T14:35:26Z</time>
      </trkpt>
      <trkpt lat="47.53921" lon="-2.80509">
        <ele>-4.6693115</ele>
        <time>2009-09-30T14:35:33Z</time>
      </trkpt>
      <trkpt lat="47.53925" lon="-2.80505">
        <ele>-5.1499023</ele>
        <time>2009-09-30T14:35:35Z</time>
      </trkpt>
      <trkpt lat="47.53924" lon="-2.80501">
        <ele>-3.7078857</ele>
        <time>2009-09-30T14:35:43Z</time>
      </trkpt>
      <trkpt lat="47.53925" lon="-2.80501">
        <ele>-3.7078857</ele>
        <time>2009-09-30T14:36:02Z</time>
      </trkpt>
      <trkpt lat="47.53923" lon="-2.80501">
        <ele>-3.7078857</ele>
        <time>2009-09-30T14:37:07Z</time>
      </trkpt>
      <trkpt lat="47.53923" lon="-2.80501">
        <ele>-3.2272949</ele>
        <time>2009-09-30T14:37:47Z</time>
      </trkpt>
      <trkpt lat="47.53922" lon="-2.80499">
        <ele>-4.1885986</ele>
        <time>2009-09-30T14:37:58Z</time>
      </trkpt>
      <trkpt lat="47.53921" lon="-2.80499">
        <ele>-4.1885986</ele>
        <time>2009-09-30T14:38:01Z</time>
      </trkpt>
      <trkpt lat="47.53911" lon="-2.80492">
        <ele>-3.7078857</ele>
        <time>2009-09-30T14:38:10Z</time>
      </trkpt>
      <trkpt lat="47.53906" lon="-2.80489">
        <ele>-3.2272949</ele>
        <time>2009-09-30T14:38:23Z</time>
      </trkpt>
      <trkpt lat="47.53903" lon="-2.80487">
        <ele>-1.7852783</ele>
        <time>2009-09-30T14:38:26Z</time>
      </trkpt>
      <trkpt lat="47.53899" lon="-2.80484">
        <ele>-1.3046875</ele>
        <time>2009-09-30T14:38:30Z</time>
      </trkpt>
      <trkpt lat="47.53893" lon="-2.80477">
        <ele>0.618042</ele>
        <time>2009-09-30T14:38:38Z</time>
      </trkpt>
      <trkpt lat="47.53886" lon="-2.80469">
        <ele>2.0600586</ele>
        <time>2009-09-30T14:38:47Z</time>
      </trkpt>
      <trkpt lat="47.53879" lon="-2.80463">
        <ele>2.5406494</ele>
        <time>2009-09-30T14:38:55Z</time>
      </trkpt>
      <trkpt lat="47.53871" lon="-2.80455">
        <ele>2.0600586</ele>
        <time>2009-09-30T14:39:04Z</time>
      </trkpt>
      <trkpt lat="47.53866" lon="-2.80447">
        <ele>3.0212402</ele>
        <time>2009-09-30T14:39:11Z</time>
      </trkpt>
      <trkpt lat="47.53863" lon="-2.80439">
        <ele>1.5793457</ele>
        <time>2009-09-30T14:39:17Z</time>
      </trkpt>
      <trkpt lat="47.53857" lon="-2.80426">
        <ele>0.1374512</ele>
        <time>2009-09-30T14:39:27Z</time>
      </trkpt>
      <trkpt lat="47.53855" lon="-2.80422">
        <ele>0.1374512</ele>
        <time>2009-09-30T14:39:30Z</time>
      </trkpt>
      <trkpt lat="47.53846" lon="-2.80396">
        <ele>1.0986328</ele>
        <time>2009-09-30T14:39:46Z</time>
      </trkpt>
      <trkpt lat="47.5384" lon="-2.80374">
        <ele>2.0600586</ele>
        <time>2009-09-30T14:39:59Z</time>
      </trkpt>
      <trkpt lat="47.53837" lon="-2.80365">
        <ele>2.0600586</ele>
        <time>2009-09-30T14:40:04Z</time>
      </trkpt>
      <trkpt lat="47.53837" lon="-2.80359">
        <ele>0.618042</ele>
        <time>2009-09-30T14:40:12Z</time>
      </trkpt>
      <trkpt lat="47.53835" lon="-2.8034">
        <ele>0.618042</ele>
        <time>2009-09-30T14:40:19Z</time>
      </trkpt>
      <trkpt lat="47.53829" lon="-2.80308">
        <ele>0.1374512</ele>
        <time>2009-09-30T14:40:29Z</time>
      </trkpt>
      <trkpt lat="47.53823" lon="-2.80275">
        <ele>1.0986328</ele>
        <time>2009-09-30T14:40:38Z</time>
      </trkpt>
      <trkpt lat="47.53821" lon="-2.80266">
        <ele>0.618042</ele>
        <time>2009-09-30T14:40:44Z</time>
      </trkpt>
      <trkpt lat="47.5382" lon="-2.80258">
        <ele>1.0986328</ele>
        <time>2009-09-30T14:40:53Z</time>
      </trkpt>
      <trkpt lat="47.53813" lon="-2.80228">
        <ele>3.0212402</ele>
        <time>2009-09-30T14:41:09Z</time>
      </trkpt>
      <trkpt lat="47.53807" lon="-2.80209">
        <ele>3.982666</ele>
        <time>2009-09-30T14:41:21Z</time>
      </trkpt>
      <trkpt lat="47.53803" lon="-2.80189">
        <ele>3.0212402</ele>
        <time>2009-09-30T14:41:34Z</time>
      </trkpt>
      <trkpt lat="47.53799" lon="-2.80177">
        <ele>3.5019531</ele>
        <time>2009-09-30T14:41:43Z</time>
      </trkpt>
      <trkpt lat="47.53789" lon="-2.80145">
        <ele>1.0986328</ele>
        <time>2009-09-30T14:41:51Z</time>
      </trkpt>
      <trkpt lat="47.53782" lon="-2.80122">
        <ele>0.1374512</ele>
        <time>2009-09-30T14:41:57Z</time>
      </trkpt>
      <trkpt lat="47.53774" lon="-2.80101">
        <ele>-0.3433838</ele>
        <time>2009-09-30T14:42:04Z</time>
      </trkpt>
      <trkpt lat="47.53765" lon="-2.80074">
        <ele>-0.3433838</ele>
        <time>2009-09-30T14:42:13Z</time>
      </trkpt>
      <trkpt lat="47.53758" lon="-2.80052">
        <ele>0.1374512</ele>
        <time>2009-09-30T14:42:21Z</time>
      </trkpt>
      <trkpt lat="47.5375" lon="-2.80032">
        <ele>0.1374512</ele>
        <time>2009-09-30T14:42:29Z</time>
      </trkpt>
      <trkpt lat="47.53746" lon="-2.80021">
        <ele>-0.3433838</ele>
        <time>2009-09-30T14:42:37Z</time>
      </trkpt>
      <trkpt lat="47.53745" lon="-2.8002">
        <ele>-0.3433838</ele>
        <time>2009-09-30T14:42:46Z</time>
      </trkpt>
      <trkpt lat="47.53746" lon="-2.80015">
        <ele>-0.8240967</ele>
        <time>2009-09-30T14:42:51Z</time>
      </trkpt>
      <trkpt lat="47.53739" lon="-2.80005">
        <ele>-2.7467041</ele>
        <time>2009-09-30T14:42:58Z</time>
      </trkpt>
      <trkpt lat="47.5373" lon="-2.79991">
        <ele>-2.7467041</ele>
        <time>2009-09-30T14:43:03Z</time>
      </trkpt>
      <trkpt lat="47.53711" lon="-2.7997">
        <ele>-4.1885986</ele>
        <time>2009-09-30T14:43:08Z</time>
      </trkpt>
      <trkpt lat="47.53703" lon="-2.79931">
        <ele>-5.1499023</ele>
        <time>2009-09-30T14:43:13Z</time>
      </trkpt>
      <trkpt lat="47.5372" lon="-2.79803">
        <ele>-2.7467041</ele>
        <time>2009-09-30T14:43:28Z</time>
      </trkpt>
      <trkpt lat="47.53729" lon="-2.79756">
        <ele>-1.3046875</ele>
        <time>2009-09-30T14:43:34Z</time>
      </trkpt>
      <trkpt lat="47.5374" lon="-2.79722">
        <ele>-0.3433838</ele>
        <time>2009-09-30T14:43:39Z</time>
      </trkpt>
      <trkpt lat="47.53744" lon="-2.79708">
        <ele>0.1374512</ele>
        <time>2009-09-30T14:43:41Z</time>
      </trkpt>
      <trkpt lat="47.53757" lon="-2.79666">
        <ele>1.0986328</ele>
        <time>2009-09-30T14:43:47Z</time>
      </trkpt>
      <trkpt lat="47.53794" lon="-2.79589">
        <ele>2.0600586</ele>
        <time>2009-09-30T14:43:59Z</time>
      </trkpt>
      <trkpt lat="47.53811" lon="-2.79559">
        <ele>1.0986328</ele>
        <time>2009-09-30T14:44:04Z</time>
      </trkpt>
      <trkpt lat="47.53846" lon="-2.79527">
        <ele>0.618042</ele>
        <time>2009-09-30T14:44:11Z</time>
      </trkpt>
      <trkpt lat="47.53867" lon="-2.79515">
        <ele>0.1374512</ele>
        <time>2009-09-30T14:44:15Z</time>
      </trkpt>
      <trkpt lat="47.53888" lon="-2.79491">
        <ele>0.618042</ele>
        <time>2009-09-30T14:44:20Z</time>
      </trkpt>
      <trkpt lat="47.5391" lon="-2.79436">
        <ele>1.0986328</ele>
        <time>2009-09-30T14:44:28Z</time>
      </trkpt>
      <trkpt lat="47.53915" lon="-2.79418">
        <ele>2.5406494</ele>
        <time>2009-09-30T14:44:32Z</time>
      </trkpt>
      <trkpt lat="47.53917" lon="-2.79424">
        <ele>2.5406494</ele>
        <time>2009-09-30T14:44:35Z</time>
      </trkpt>
      <trkpt lat="47.53912" lon="-2.79432">
        <ele>2.0600586</ele>
        <time>2009-09-30T14:44:38Z</time>
      </trkpt>
      <trkpt lat="47.53907" lon="-2.79438">
        <ele>2.5406494</ele>
        <time>2009-09-30T14:44:40Z</time>
      </trkpt>
      <trkpt lat="47.53891" lon="-2.79481">
        <ele>2.5406494</ele>
        <time>2009-09-30T14:44:49Z</time>
      </trkpt>
      <trkpt lat="47.53896" lon="-2.79495">
        <ele>2.5406494</ele>
        <time>2009-09-30T14:44:54Z</time>
      </trkpt>
      <trkpt lat="47.53915" lon="-2.79499">
        <ele>3.5019531</ele>
        <time>2009-09-30T14:45:00Z</time>
      </trkpt>
      <trkpt lat="47.53931" lon="-2.79504">
        <ele>4.9438477</ele>
        <time>2009-09-30T14:45:05Z</time>
      </trkpt>
      <trkpt lat="47.53943" lon="-2.79506">
        <ele>3.982666</ele>
        <time>2009-09-30T14:45:08Z</time>
      </trkpt>
      <trkpt lat="47.5396" lon="-2.79488">
        <ele>0.1374512</ele>
        <time>2009-09-30T14:45:12Z</time>
      </trkpt>
      <trkpt lat="47.53969" lon="-2.79479">
        <ele>0.618042</ele>
        <time>2009-09-30T14:45:14Z</time>
      </trkpt>
      <trkpt lat="47.53999" lon="-2.79457">
        <ele>3.0212402</ele>
        <time>2009-09-30T14:45:21Z</time>
      </trkpt>
      <trkpt lat="47.54023" lon="-2.79451">
        <ele>3.982666</ele>
        <time>2009-09-30T14:45:26Z</time>
      </trkpt>
      <trkpt lat="47.54039" lon="-2.79446">
        <ele>6.3858643</ele>
        <time>2009-09-30T14:45:30Z</time>
      </trkpt>
      <trkpt lat="47.54061" lon="-2.79431">
        <ele>5.9052734</ele>
        <time>2009-09-30T14:45:34Z</time>
      </trkpt>
      <trkpt lat="47.54073" lon="-2.79405">
        <ele>7.347168</ele>
        <time>2009-09-30T14:45:39Z</time>
      </trkpt>
      <trkpt lat="47.54093" lon="-2.79392">
        <ele>8.7891846</ele>
        <time>2009-09-30T14:45:44Z</time>
      </trkpt>
      <trkpt lat="47.54132" lon="-2.79393">
        <ele>7.8278809</ele>
        <time>2009-09-30T14:45:52Z</time>
      </trkpt>
      <trkpt lat="47.54155" lon="-2.79397">
        <ele>6.3858643</ele>
        <time>2009-09-30T14:45:56Z</time>
      </trkpt>
      <trkpt lat="47.54188" lon="-2.79418">
        <ele>6.3858643</ele>
        <time>2009-09-30T14:46:01Z</time>
      </trkpt>
      <trkpt lat="47.54204" lon="-2.79428">
        <ele>4.9438477</ele>
        <time>2009-09-30T14:46:03Z</time>
      </trkpt>
      <trkpt lat="47.54228" lon="-2.79461">
        <ele>1.5793457</ele>
        <time>2009-09-30T14:46:07Z</time>
      </trkpt>
      <trkpt lat="47.54252" lon="-2.79477">
        <ele>0.618042</ele>
        <time>2009-09-30T14:46:11Z</time>
      </trkpt>
      <trkpt lat="47.54258" lon="-2.79476">
        <ele>0.618042</ele>
        <time>2009-09-30T14:46:12Z</time>
      </trkpt>
      <trkpt lat="47.5427" lon="-2.79474">
        <ele>1.5793457</ele>
        <time>2009-09-30T14:46:14Z</time>
      </trkpt>
      <trkpt lat="47.5428" lon="-2.79476">
        <ele>2.0600586</ele>
        <time>2009-09-30T14:46:16Z</time>
      </trkpt>
      <trkpt lat="47.54298" lon="-2.79486">
        <ele>3.0212402</ele>
        <time>2009-09-30T14:46:20Z</time>
      </trkpt>
      <trkpt lat="47.54327" lon="-2.79516">
        <ele>2.0600586</ele>
        <time>2009-09-30T14:46:27Z</time>
      </trkpt>
      <trkpt lat="47.54333" lon="-2.79524">
        <ele>2.5406494</ele>
        <time>2009-09-30T14:46:29Z</time>
      </trkpt>
      <trkpt lat="47.54362" lon="-2.79574">
        <ele>-0.3433838</ele>
        <time>2009-09-30T14:46:38Z</time>
      </trkpt>
      <trkpt lat="47.54367" lon="-2.79582">
        <ele>-0.8240967</ele>
        <time>2009-09-30T14:46:42Z</time>
      </trkpt>
      <trkpt lat="47.54362" lon="-2.79586">
        <ele>-1.7852783</ele>
        <time>2009-09-30T14:46:47Z</time>
      </trkpt>
      <trkpt lat="47.5436" lon="-2.7958">
        <ele>-1.3046875</ele>
        <time>2009-09-30T14:46:49Z</time>
      </trkpt>
      <trkpt lat="47.54359" lon="-2.79574">
        <ele>-0.8240967</ele>
        <time>2009-09-30T14:46:51Z</time>
      </trkpt>
      <trkpt lat="47.54345" lon="-2.79544">
        <ele>0.618042</ele>
        <time>2009-09-30T14:46:59Z</time>
      </trkpt>
      <trkpt lat="47.5435" lon="-2.79533">
        <ele>1.5793457</ele>
        <time>2009-09-30T14:47:03Z</time>
      </trkpt>
      <trkpt lat="47.54371" lon="-2.79522">
        <ele>2.5406494</ele>
        <time>2009-09-30T14:47:11Z</time>
      </trkpt>
      <trkpt lat="47.54399" lon="-2.79517">
        <ele>2.0600586</ele>
        <time>2009-09-30T14:47:20Z</time>
      </trkpt>
      <trkpt lat="47.54407" lon="-2.79525">
        <ele>2.0600586</ele>
        <time>2009-09-30T14:47:25Z</time>
      </trkpt>
      <trkpt lat="47.54406" lon="-2.79525">
        <ele>2.0600586</ele>
        <time>2009-09-30T14:47:30Z</time>
      </trkpt>
      <trkpt lat="47.54417" lon="-2.79527">
        <ele>1.5793457</ele>
        <time>2009-09-30T14:47:38Z</time>
      </trkpt>
      <trkpt lat="47.54415" lon="-2.79525">
        <ele>0.618042</ele>
        <time>2009-09-30T14:48:02Z</time>
      </trkpt>
      <trkpt lat="47.54416" lon="-2.79525">
        <ele>1.0986328</ele>
        <time>2009-09-30T14:48:07Z</time>
      </trkpt>
      <trkpt lat="47.54406" lon="-2.79526">
        <ele>2.0600586</ele>
        <time>2009-09-30T14:48:16Z</time>
      </trkpt>
      <trkpt lat="47.54406" lon="-2.79527">
        <ele>2.0600586</ele>
        <time>2009-09-30T14:48:17Z</time>
      </trkpt>
      <trkpt lat="47.54406" lon="-2.79533">
        <ele>2.0600586</ele>
        <time>2009-09-30T14:48:20Z</time>
      </trkpt>
      <trkpt lat="47.54413" lon="-2.79549">
        <ele>2.0600586</ele>
        <time>2009-09-30T14:48:30Z</time>
      </trkpt>
      <trkpt lat="47.54423" lon="-2.79578">
        <ele>1.0986328</ele>
        <time>2009-09-30T14:48:39Z</time>
      </trkpt>
      <trkpt lat="47.54425" lon="-2.7959">
        <ele>0.618042</ele>
        <time>2009-09-30T14:48:43Z</time>
      </trkpt>
      <trkpt lat="47.54419" lon="-2.79592">
        <ele>0.618042</ele>
        <time>2009-09-30T14:48:48Z</time>
      </trkpt>
      <trkpt lat="47.54419" lon="-2.79588">
        <ele>0.1374512</ele>
        <time>2009-09-30T14:48:53Z</time>
      </trkpt>
      <trkpt lat="47.54417" lon="-2.79591">
        <ele>0.1374512</ele>
        <time>2009-09-30T14:49:20Z</time>
      </trkpt>
      <trkpt lat="47.54408" lon="-2.79592">
        <ele>0.618042</ele>
        <time>2009-09-30T14:49:27Z</time>
      </trkpt>
      <trkpt lat="47.54408" lon="-2.79592">
        <ele>0.618042</ele>
        <time>2009-09-30T14:49:36Z</time>
      </trkpt>
      <trkpt lat="47.54403" lon="-2.79584">
        <ele>0.618042</ele>
        <time>2009-09-30T14:49:42Z</time>
      </trkpt>
      <trkpt lat="47.54389" lon="-2.79581">
        <ele>1.0986328</ele>
        <time>2009-09-30T14:49:49Z</time>
      </trkpt>
      <trkpt lat="47.54374" lon="-2.79591">
        <ele>0.618042</ele>
        <time>2009-09-30T14:49:57Z</time>
      </trkpt>
      <trkpt lat="47.54372" lon="-2.79593">
        <ele>0.618042</ele>
        <time>2009-09-30T14:49:59Z</time>
      </trkpt>
      <trkpt lat="47.54372" lon="-2.79604">
        <ele>0.1374512</ele>
        <time>2009-09-30T14:50:03Z</time>
      </trkpt>
      <trkpt lat="47.54392" lon="-2.79644">
        <ele>-1.7852783</ele>
        <time>2009-09-30T14:50:14Z</time>
      </trkpt>
      <trkpt lat="47.54413" lon="-2.79678">
        <ele>-3.2272949</ele>
        <time>2009-09-30T14:50:23Z</time>
      </trkpt>
      <trkpt lat="47.54432" lon="-2.79685">
        <ele>-2.2659912</ele>
        <time>2009-09-30T14:50:30Z</time>
      </trkpt>
      <trkpt lat="47.54441" lon="-2.79678">
        <ele>-1.7852783</ele>
        <time>2009-09-30T14:50:36Z</time>
      </trkpt>
      <trkpt lat="47.54441" lon="-2.79677">
        <ele>-1.7852783</ele>
        <time>2009-09-30T14:50:51Z</time>
      </trkpt>
      <trkpt lat="47.54442" lon="-2.79681">
        <ele>-1.3046875</ele>
        <time>2009-09-30T14:50:56Z</time>
      </trkpt>
      <trkpt lat="47.5442" lon="-2.79682">
        <ele>-2.2659912</ele>
        <time>2009-09-30T14:51:04Z</time>
      </trkpt>
      <trkpt lat="47.54401" lon="-2.79664">
        <ele>-3.2272949</ele>
        <time>2009-09-30T14:51:11Z</time>
      </trkpt>
      <trkpt lat="47.54393" lon="-2.79647">
        <ele>-2.7467041</ele>
        <time>2009-09-30T14:51:17Z</time>
      </trkpt>
      <trkpt lat="47.54379" lon="-2.79616">
        <ele>-2.2659912</ele>
        <time>2009-09-30T14:51:26Z</time>
      </trkpt>
      <trkpt lat="47.54367" lon="-2.79592">
        <ele>-2.2659912</ele>
        <time>2009-09-30T14:51:34Z</time>
      </trkpt>
      <trkpt lat="47.54352" lon="-2.79564">
        <ele>-1.7852783</ele>
        <time>2009-09-30T14:51:44Z</time>
      </trkpt>
      <trkpt lat="47.5434" lon="-2.79541">
        <ele>-0.3433838</ele>
        <time>2009-09-30T14:51:54Z</time>
      </trkpt>
      <trkpt lat="47.54339" lon="-2.7954">
        <ele>-0.3433838</ele>
        <time>2009-09-30T14:52:03Z</time>
      </trkpt>
      <trkpt lat="47.54349" lon="-2.79535">
        <ele>0.1374512</ele>
        <time>2009-09-30T14:52:09Z</time>
      </trkpt>
      <trkpt lat="47.54364" lon="-2.79526">
        <ele>1.0986328</ele>
        <time>2009-09-30T14:52:15Z</time>
      </trkpt>
      <trkpt lat="47.54387" lon="-2.79517">
        <ele>0.618042</ele>
        <time>2009-09-30T14:52:25Z</time>
      </trkpt>
      <trkpt lat="47.54402" lon="-2.79521">
        <ele>0.1374512</ele>
        <time>2009-09-30T14:52:32Z</time>
      </trkpt>
      <trkpt lat="47.54408" lon="-2.79524">
        <ele>0.618042</ele>
        <time>2009-09-30T14:52:36Z</time>
      </trkpt>
      <trkpt lat="47.5441" lon="-2.79523">
        <ele>1.0986328</ele>
        <time>2009-09-30T14:52:38Z</time>
      </trkpt>
      <trkpt lat="47.54422" lon="-2.79529">
        <ele>0.618042</ele>
        <time>2009-09-30T14:52:45Z</time>
      </trkpt>
      <trkpt lat="47.54426" lon="-2.7953">
        <ele>0.618042</ele>
        <time>2009-09-30T14:52:47Z</time>
      </trkpt>
      <trkpt lat="47.54431" lon="-2.79531">
        <ele>0.1374512</ele>
        <time>2009-09-30T14:52:54Z</time>
      </trkpt>
      <trkpt lat="47.5443" lon="-2.79531">
        <ele>0.1374512</ele>
        <time>2009-09-30T14:53:31Z</time>
      </trkpt>
      <trkpt lat="47.54413" lon="-2.79527">
        <ele>1.0986328</ele>
        <time>2009-09-30T14:53:39Z</time>
      </trkpt>
      <trkpt lat="47.54407" lon="-2.79526">
        <ele>1.5793457</ele>
        <time>2009-09-30T14:53:42Z</time>
      </trkpt>
      <trkpt lat="47.54401" lon="-2.7952">
        <ele>2.0600586</ele>
        <time>2009-09-30T14:53:47Z</time>
      </trkpt>
      <trkpt lat="47.5438" lon="-2.79521">
        <ele>2.5406494</ele>
        <time>2009-09-30T14:53:55Z</time>
      </trkpt>
      <trkpt lat="47.54351" lon="-2.79533">
        <ele>2.0600586</ele>
        <time>2009-09-30T14:54:07Z</time>
      </trkpt>
      <trkpt lat="47.54346" lon="-2.79538">
        <ele>2.0600586</ele>
        <time>2009-09-30T14:54:10Z</time>
      </trkpt>
      <trkpt lat="47.54339" lon="-2.79536">
        <ele>1.5793457</ele>
        <time>2009-09-30T14:54:14Z</time>
      </trkpt>
      <trkpt lat="47.54328" lon="-2.79521">
        <ele>1.0986328</ele>
        <time>2009-09-30T14:54:24Z</time>
      </trkpt>
      <trkpt lat="47.54332" lon="-2.79516">
        <ele>1.5793457</ele>
        <time>2009-09-30T14:54:30Z</time>
      </trkpt>
      <trkpt lat="47.54348" lon="-2.79513">
        <ele>3.0212402</ele>
        <time>2009-09-30T14:54:36Z</time>
      </trkpt>
      <trkpt lat="47.54381" lon="-2.79506">
        <ele>3.0212402</ele>
        <time>2009-09-30T14:54:45Z</time>
      </trkpt>
      <trkpt lat="47.54388" lon="-2.79505">
        <ele>3.5019531</ele>
        <time>2009-09-30T14:54:47Z</time>
      </trkpt>
      <trkpt lat="47.544" lon="-2.79505">
        <ele>4.4632568</ele>
        <time>2009-09-30T14:54:50Z</time>
      </trkpt>
      <trkpt lat="47.54405" lon="-2.79495">
        <ele>3.5019531</ele>
        <time>2009-09-30T14:54:54Z</time>
      </trkpt>
      <trkpt lat="47.54404" lon="-2.79491">
        <ele>3.0212402</ele>
        <time>2009-09-30T14:54:55Z</time>
      </trkpt>
      <trkpt lat="47.54389" lon="-2.79459">
        <ele>3.0212402</ele>
        <time>2009-09-30T14:55:02Z</time>
      </trkpt>
      <trkpt lat="47.54381" lon="-2.79445">
        <ele>2.5406494</ele>
        <time>2009-09-30T14:55:05Z</time>
      </trkpt>
      <trkpt lat="47.5437" lon="-2.79412">
        <ele>3.5019531</ele>
        <time>2009-09-30T14:55:11Z</time>
      </trkpt>
      <trkpt lat="47.54365" lon="-2.79387">
        <ele>3.982666</ele>
        <time>2009-09-30T14:55:15Z</time>
      </trkpt>
      <trkpt lat="47.54359" lon="-2.79369">
        <ele>3.982666</ele>
        <time>2009-09-30T14:55:18Z</time>
      </trkpt>
      <trkpt lat="47.54347" lon="-2.79347">
        <ele>3.0212402</ele>
        <time>2009-09-30T14:55:22Z</time>
      </trkpt>
      <trkpt lat="47.54326" lon="-2.7931">
        <ele>2.0600586</ele>
        <time>2009-09-30T14:55:29Z</time>
      </trkpt>
      <trkpt lat="47.54317" lon="-2.79279">
        <ele>1.5793457</ele>
        <time>2009-09-30T14:55:34Z</time>
      </trkpt>
      <trkpt lat="47.54301" lon="-2.79233">
        <ele>2.0600586</ele>
        <time>2009-09-30T14:55:41Z</time>
      </trkpt>
      <trkpt lat="47.54296" lon="-2.79213">
        <ele>2.5406494</ele>
        <time>2009-09-30T14:55:44Z</time>
      </trkpt>
      <trkpt lat="47.54291" lon="-2.79183">
        <ele>3.982666</ele>
        <time>2009-09-30T14:55:49Z</time>
      </trkpt>
      <trkpt lat="47.54288" lon="-2.79138">
        <ele>4.4632568</ele>
        <time>2009-09-30T14:55:56Z</time>
      </trkpt>
      <trkpt lat="47.54286" lon="-2.79113">
        <ele>4.9438477</ele>
        <time>2009-09-30T14:56:00Z</time>
      </trkpt>
      <trkpt lat="47.54284" lon="-2.79101">
        <ele>4.9438477</ele>
        <time>2009-09-30T14:56:02Z</time>
      </trkpt>
      <trkpt lat="47.54273" lon="-2.79049">
        <ele>3.982666</ele>
        <time>2009-09-30T14:56:09Z</time>
      </trkpt>
      <trkpt lat="47.54267" lon="-2.79027">
        <ele>4.4632568</ele>
        <time>2009-09-30T14:56:12Z</time>
      </trkpt>
      <trkpt lat="47.54276" lon="-2.79007">
        <ele>3.5019531</ele>
        <time>2009-09-30T14:56:16Z</time>
      </trkpt>
      <trkpt lat="47.54281" lon="-2.79008">
        <ele>3.982666</ele>
        <time>2009-09-30T14:56:17Z</time>
      </trkpt>
      <trkpt lat="47.54291" lon="-2.79009">
        <ele>3.982666</ele>
        <time>2009-09-30T14:56:19Z</time>
      </trkpt>
      <trkpt lat="47.54323" lon="-2.79013">
        <ele>4.9438477</ele>
        <time>2009-09-30T14:56:25Z</time>
      </trkpt>
      <trkpt lat="47.5435" lon="-2.79025">
        <ele>4.9438477</ele>
        <time>2009-09-30T14:56:30Z</time>
      </trkpt>
      <trkpt lat="47.54377" lon="-2.7902">
        <ele>4.9438477</ele>
        <time>2009-09-30T14:56:35Z</time>
      </trkpt>
      <trkpt lat="47.54398" lon="-2.78987">
        <ele>3.0212402</ele>
        <time>2009-09-30T14:56:40Z</time>
      </trkpt>
      <trkpt lat="47.54403" lon="-2.78948">
        <ele>0.618042</ele>
        <time>2009-09-30T14:56:44Z</time>
      </trkpt>
      <trkpt lat="47.54408" lon="-2.7893">
        <ele>0.1374512</ele>
        <time>2009-09-30T14:56:47Z</time>
      </trkpt>
      <trkpt lat="47.54406" lon="-2.78927">
        <ele>0.1374512</ele>
        <time>2009-09-30T14:56:49Z</time>
      </trkpt>
      <trkpt lat="47.54402" lon="-2.78917">
        <ele>1.5793457</ele>
        <time>2009-09-30T14:56:54Z</time>
      </trkpt>
      <trkpt lat="47.544" lon="-2.78912">
        <ele>1.0986328</ele>
        <time>2009-09-30T14:56:57Z</time>
      </trkpt>
      <trkpt lat="47.54403" lon="-2.78917">
        <ele>0.618042</ele>
        <time>2009-09-30T14:57:02Z</time>
      </trkpt>
      <trkpt lat="47.54405" lon="-2.7893">
        <ele>0.1374512</ele>
        <time>2009-09-30T14:57:06Z</time>
      </trkpt>
      <trkpt lat="47.54412" lon="-2.78932">
        <ele>-0.3433838</ele>
        <time>2009-09-30T14:57:11Z</time>
      </trkpt>
      <trkpt lat="47.54419" lon="-2.78927">
        <ele>0.618042</ele>
        <time>2009-09-30T14:57:15Z</time>
      </trkpt>
      <trkpt lat="47.54432" lon="-2.78924">
        <ele>2.0600586</ele>
        <time>2009-09-30T14:57:21Z</time>
      </trkpt>
      <trkpt lat="47.54439" lon="-2.78923">
        <ele>0.618042</ele>
        <time>2009-09-30T14:57:23Z</time>
      </trkpt>
      <trkpt lat="47.54457" lon="-2.78916">
        <ele>-0.3433838</ele>
        <time>2009-09-30T14:57:29Z</time>
      </trkpt>
      <trkpt lat="47.54476" lon="-2.78911">
        <ele>0.1374512</ele>
        <time>2009-09-30T14:57:33Z</time>
      </trkpt>
      <trkpt lat="47.54503" lon="-2.78902">
        <ele>-2.2659912</ele>
        <time>2009-09-30T14:57:39Z</time>
      </trkpt>
      <trkpt lat="47.54535" lon="-2.78894">
        <ele>-2.7467041</ele>
        <time>2009-09-30T14:57:45Z</time>
      </trkpt>
      <trkpt lat="47.54539" lon="-2.7889">
        <ele>-3.2272949</ele>
        <time>2009-09-30T14:57:46Z</time>
      </trkpt>
      <trkpt lat="47.54563" lon="-2.78867">
        <ele>-3.2272949</ele>
        <time>2009-09-30T14:57:51Z</time>
      </trkpt>
      <trkpt lat="47.54574" lon="-2.78859">
        <ele>-2.7467041</ele>
        <time>2009-09-30T14:57:53Z</time>
      </trkpt>
      <trkpt lat="47.54589" lon="-2.78829">
        <ele>-0.8240967</ele>
        <time>2009-09-30T14:57:59Z</time>
      </trkpt>
      <trkpt lat="47.54591" lon="-2.78823">
        <ele>0.1374512</ele>
        <time>2009-09-30T14:58:00Z</time>
      </trkpt>
      <trkpt lat="47.54605" lon="-2.78793">
        <ele>-1.7852783</ele>
        <time>2009-09-30T14:58:06Z</time>
      </trkpt>
      <trkpt lat="47.54599" lon="-2.78771">
        <ele>-1.7852783</ele>
        <time>2009-09-30T14:58:11Z</time>
      </trkpt>
      <trkpt lat="47.54588" lon="-2.78727">
        <ele>-4.1885986</ele>
        <time>2009-09-30T14:58:17Z</time>
      </trkpt>
      <trkpt lat="47.54582" lon="-2.78689">
        <ele>-5.1499023</ele>
        <time>2009-09-30T14:58:21Z</time>
      </trkpt>
      <trkpt lat="47.5456" lon="-2.78637">
        <ele>-5.6304932</ele>
        <time>2009-09-30T14:58:27Z</time>
      </trkpt>
      <trkpt lat="47.54529" lon="-2.78617">
        <ele>-4.6693115</ele>
        <time>2009-09-30T14:58:32Z</time>
      </trkpt>
      <trkpt lat="47.54511" lon="-2.78618">
        <ele>-3.7078857</ele>
        <time>2009-09-30T14:58:35Z</time>
      </trkpt>
      <trkpt lat="47.5448" lon="-2.78636">
        <ele>-3.2272949</ele>
        <time>2009-09-30T14:58:41Z</time>
      </trkpt>
      <trkpt lat="47.54472" lon="-2.78639">
        <ele>-3.2272949</ele>
        <time>2009-09-30T14:58:43Z</time>
      </trkpt>
      <trkpt lat="47.54468" lon="-2.78646">
        <ele>-3.2272949</ele>
        <time>2009-09-30T14:58:45Z</time>
      </trkpt>
      <trkpt lat="47.54464" lon="-2.78643">
        <ele>-3.7078857</ele>
        <time>2009-09-30T14:58:49Z</time>
      </trkpt>
      <trkpt lat="47.54468" lon="-2.78639">
        <ele>-3.7078857</ele>
        <time>2009-09-30T14:58:51Z</time>
      </trkpt>
      <trkpt lat="47.54479" lon="-2.78635">
        <ele>-3.7078857</ele>
        <time>2009-09-30T14:58:54Z</time>
      </trkpt>
      <trkpt lat="47.54497" lon="-2.78623">
        <ele>-4.1885986</ele>
        <time>2009-09-30T14:58:58Z</time>
      </trkpt>
      <trkpt lat="47.54511" lon="-2.78619">
        <ele>-4.1885986</ele>
        <time>2009-09-30T14:59:01Z</time>
      </trkpt>
      <trkpt lat="47.54518" lon="-2.786">
        <ele>-5.6304932</ele>
        <time>2009-09-30T14:59:05Z</time>
      </trkpt>
      <trkpt lat="47.54516" lon="-2.78594">
        <ele>-5.6304932</ele>
        <time>2009-09-30T14:59:06Z</time>
      </trkpt>
      <trkpt lat="47.54494" lon="-2.78531">
        <ele>-5.6304932</ele>
        <time>2009-09-30T14:59:15Z</time>
      </trkpt>
      <trkpt lat="47.5449" lon="-2.78499">
        <ele>-5.6304932</ele>
        <time>2009-09-30T14:59:19Z</time>
      </trkpt>
      <trkpt lat="47.54482" lon="-2.78459">
        <ele>-6.5919189</ele>
        <time>2009-09-30T14:59:24Z</time>
      </trkpt>
      <trkpt lat="47.54477" lon="-2.78428">
        <ele>-6.5919189</ele>
        <time>2009-09-30T14:59:28Z</time>
      </trkpt>
      <trkpt lat="47.54474" lon="-2.78372">
        <ele>-6.1112061</ele>
        <time>2009-09-30T14:59:36Z</time>
      </trkpt>
      <trkpt lat="47.54471" lon="-2.78345">
        <ele>-6.5919189</ele>
        <time>2009-09-30T14:59:40Z</time>
      </trkpt>
      <trkpt lat="47.5445" lon="-2.78287">
        <ele>-6.5919189</ele>
        <time>2009-09-30T14:59:49Z</time>
      </trkpt>
      <trkpt lat="47.54433" lon="-2.7826">
        <ele>-5.6304932</ele>
        <time>2009-09-30T14:59:55Z</time>
      </trkpt>
      <trkpt lat="47.54429" lon="-2.78252">
        <ele>-5.6304932</ele>
        <time>2009-09-30T14:59:57Z</time>
      </trkpt>
      <trkpt lat="47.54426" lon="-2.7823">
        <ele>-6.5919189</ele>
        <time>2009-09-30T15:00:01Z</time>
      </trkpt>
      <trkpt lat="47.54429" lon="-2.78158">
        <ele>-5.1499023</ele>
        <time>2009-09-30T15:00:12Z</time>
      </trkpt>
      <trkpt lat="47.54427" lon="-2.78122">
        <ele>-3.7078857</ele>
        <time>2009-09-30T15:00:19Z</time>
      </trkpt>
      <trkpt lat="47.54427" lon="-2.78096">
        <ele>-3.2272949</ele>
        <time>2009-09-30T15:00:25Z</time>
      </trkpt>
      <trkpt lat="47.54424" lon="-2.78054">
        <ele>-3.7078857</ele>
        <time>2009-09-30T15:00:34Z</time>
      </trkpt>
      <trkpt lat="47.5442" lon="-2.78033">
        <ele>-4.1885986</ele>
        <time>2009-09-30T15:00:38Z</time>
      </trkpt>
      <trkpt lat="47.54402" lon="-2.78008">
        <ele>-4.1885986</ele>
        <time>2009-09-30T15:00:44Z</time>
      </trkpt>
      <trkpt lat="47.54386" lon="-2.78005">
        <ele>-3.7078857</ele>
        <time>2009-09-30T15:00:47Z</time>
      </trkpt>
      <trkpt lat="47.54334" lon="-2.77975">
        <ele>-4.6693115</ele>
        <time>2009-09-30T15:00:56Z</time>
      </trkpt>
      <trkpt lat="47.54306" lon="-2.77979">
        <ele>-4.6693115</ele>
        <time>2009-09-30T15:01:01Z</time>
      </trkpt>
      <trkpt lat="47.54285" lon="-2.77993">
        <ele>-4.6693115</ele>
        <time>2009-09-30T15:01:05Z</time>
      </trkpt>
      <trkpt lat="47.54248" lon="-2.77995">
        <ele>-4.6693115</ele>
        <time>2009-09-30T15:01:11Z</time>
      </trkpt>
      <trkpt lat="47.5421" lon="-2.77971">
        <ele>-5.1499023</ele>
        <time>2009-09-30T15:01:17Z</time>
      </trkpt>
      <trkpt lat="47.5419" lon="-2.77965">
        <ele>-5.1499023</ele>
        <time>2009-09-30T15:01:20Z</time>
      </trkpt>
      <trkpt lat="47.54142" lon="-2.77979">
        <ele>-5.1499023</ele>
        <time>2009-09-30T15:01:27Z</time>
      </trkpt>
      <trkpt lat="47.5413" lon="-2.77988">
        <ele>-4.6693115</ele>
        <time>2009-09-30T15:01:29Z</time>
      </trkpt>
      <trkpt lat="47.54109" lon="-2.78014">
        <ele>-4.6693115</ele>
        <time>2009-09-30T15:01:33Z</time>
      </trkpt>
      <trkpt lat="47.54082" lon="-2.78082">
        <ele>-4.1885986</ele>
        <time>2009-09-30T15:01:41Z</time>
      </trkpt>
      <trkpt lat="47.54069" lon="-2.78145">
        <ele>-4.1885986</ele>
        <time>2009-09-30T15:01:49Z</time>
      </trkpt>
      <trkpt lat="47.54052" lon="-2.78139">
        <ele>-4.6693115</ele>
        <time>2009-09-30T15:01:53Z</time>
      </trkpt>
      <trkpt lat="47.54004" lon="-2.78102">
        <ele>-5.6304932</ele>
        <time>2009-09-30T15:02:01Z</time>
      </trkpt>
      <trkpt lat="47.53984" lon="-2.78093">
        <ele>-5.6304932</ele>
        <time>2009-09-30T15:02:04Z</time>
      </trkpt>
      <trkpt lat="47.53952" lon="-2.78096">
        <ele>-4.1885986</ele>
        <time>2009-09-30T15:02:09Z</time>
      </trkpt>
      <trkpt lat="47.53942" lon="-2.78099">
        <ele>-3.2272949</ele>
        <time>2009-09-30T15:02:11Z</time>
      </trkpt>
      <trkpt lat="47.53926" lon="-2.781">
        <ele>-2.7467041</ele>
        <time>2009-09-30T15:02:15Z</time>
      </trkpt>
      <trkpt lat="47.5391" lon="-2.78098">
        <ele>-1.7852783</ele>
        <time>2009-09-30T15:02:22Z</time>
      </trkpt>
      <trkpt lat="47.53905" lon="-2.781">
        <ele>-0.8240967</ele>
        <time>2009-09-30T15:02:28Z</time>
      </trkpt>
      <trkpt lat="47.53904" lon="-2.78098">
        <ele>-0.8240967</ele>
        <time>2009-09-30T15:02:33Z</time>
      </trkpt>
      <trkpt lat="47.5391" lon="-2.78094">
        <ele>-1.7852783</ele>
        <time>2009-09-30T15:02:38Z</time>
      </trkpt>
      <trkpt lat="47.5393" lon="-2.78096">
        <ele>-1.3046875</ele>
        <time>2009-09-30T15:02:45Z</time>
      </trkpt>
      <trkpt lat="47.53949" lon="-2.78093">
        <ele>-2.2659912</ele>
        <time>2009-09-30T15:02:48Z</time>
      </trkpt>
      <trkpt lat="47.53968" lon="-2.78069">
        <ele>-4.6693115</ele>
        <time>2009-09-30T15:02:53Z</time>
      </trkpt>
      <trkpt lat="47.5397" lon="-2.78048">
        <ele>-5.1499023</ele>
        <time>2009-09-30T15:02:56Z</time>
      </trkpt>
      <trkpt lat="47.53967" lon="-2.78028">
        <ele>-5.6304932</ele>
        <time>2009-09-30T15:02:59Z</time>
      </trkpt>
      <trkpt lat="47.53958" lon="-2.77988">
        <ele>-7.5531006</ele>
        <time>2009-09-30T15:03:04Z</time>
      </trkpt>
      <trkpt lat="47.53934" lon="-2.77949">
        <ele>-8.0339355</ele>
        <time>2009-09-30T15:03:10Z</time>
      </trkpt>
      <trkpt lat="47.53916" lon="-2.7793">
        <ele>-7.0725098</ele>
        <time>2009-09-30T15:03:14Z</time>
      </trkpt>
      <trkpt lat="47.53899" lon="-2.77899">
        <ele>-7.5531006</ele>
        <time>2009-09-30T15:03:19Z</time>
      </trkpt>
      <trkpt lat="47.53881" lon="-2.77864">
        <ele>-6.5919189</ele>
        <time>2009-09-30T15:03:24Z</time>
      </trkpt>
      <trkpt lat="47.53869" lon="-2.77834">
        <ele>-7.0725098</ele>
        <time>2009-09-30T15:03:28Z</time>
      </trkpt>
      <trkpt lat="47.5385" lon="-2.77792">
        <ele>-7.5531006</ele>
        <time>2009-09-30T15:03:34Z</time>
      </trkpt>
      <trkpt lat="47.53829" lon="-2.77755">
        <ele>-5.6304932</ele>
        <time>2009-09-30T15:03:40Z</time>
      </trkpt>
      <trkpt lat="47.53803" lon="-2.77699">
        <ele>-4.1885986</ele>
        <time>2009-09-30T15:03:49Z</time>
      </trkpt>
      <trkpt lat="47.53797" lon="-2.77688">
        <ele>-3.2272949</ele>
        <time>2009-09-30T15:03:51Z</time>
      </trkpt>
      <trkpt lat="47.53783" lon="-2.77643">
        <ele>-4.6693115</ele>
        <time>2009-09-30T15:03:59Z</time>
      </trkpt>
      <trkpt lat="47.53777" lon="-2.77623">
        <ele>-4.6693115</ele>
        <time>2009-09-30T15:04:02Z</time>
      </trkpt>
      <trkpt lat="47.53764" lon="-2.77593">
        <ele>-5.1499023</ele>
        <time>2009-09-30T15:04:07Z</time>
      </trkpt>
      <trkpt lat="47.53756" lon="-2.77568">
        <ele>-5.6304932</ele>
        <time>2009-09-30T15:04:11Z</time>
      </trkpt>
      <trkpt lat="47.53743" lon="-2.77545">
        <ele>-7.0725098</ele>
        <time>2009-09-30T15:04:15Z</time>
      </trkpt>
      <trkpt lat="47.53735" lon="-2.77518">
        <ele>-4.1885986</ele>
        <time>2009-09-30T15:04:20Z</time>
      </trkpt>
      <trkpt lat="47.53733" lon="-2.77512">
        <ele>-3.7078857</ele>
        <time>2009-09-30T15:04:21Z</time>
      </trkpt>
      <trkpt lat="47.53726" lon="-2.77464">
        <ele>-3.7078857</ele>
        <time>2009-09-30T15:04:27Z</time>
      </trkpt>
      <trkpt lat="47.53722" lon="-2.77435">
        <ele>-3.2272949</ele>
        <time>2009-09-30T15:04:33Z</time>
      </trkpt>
      <trkpt lat="47.53712" lon="-2.77372">
        <ele>-4.1885986</ele>
        <time>2009-09-30T15:04:44Z</time>
      </trkpt>
      <trkpt lat="47.53698" lon="-2.77331">
        <ele>-4.1885986</ele>
        <time>2009-09-30T15:04:50Z</time>
      </trkpt>
      <trkpt lat="47.53685" lon="-2.77289">
        <ele>-8.5146484</ele>
        <time>2009-09-30T15:04:55Z</time>
      </trkpt>
      <trkpt lat="47.5367" lon="-2.77263">
        <ele>-8.0339355</ele>
        <time>2009-09-30T15:04:59Z</time>
      </trkpt>
      <trkpt lat="47.53635" lon="-2.7721">
        <ele>-6.5919189</ele>
        <time>2009-09-30T15:05:07Z</time>
      </trkpt>
      <trkpt lat="47.53623" lon="-2.77173">
        <ele>-8.5146484</ele>
        <time>2009-09-30T15:05:12Z</time>
      </trkpt>
      <trkpt lat="47.53608" lon="-2.77118">
        <ele>-9.4758301</ele>
        <time>2009-09-30T15:05:20Z</time>
      </trkpt>
      <trkpt lat="47.53604" lon="-2.77103">
        <ele>-9.4758301</ele>
        <time>2009-09-30T15:05:22Z</time>
      </trkpt>
      <trkpt lat="47.53595" lon="-2.7708">
        <ele>-5.6304932</ele>
        <time>2009-09-30T15:05:26Z</time>
      </trkpt>
      <trkpt lat="47.53579" lon="-2.7708">
        <ele>-4.6693115</ele>
        <time>2009-09-30T15:05:29Z</time>
      </trkpt>
      <trkpt lat="47.5357" lon="-2.77063">
        <ele>-2.2659912</ele>
        <time>2009-09-30T15:05:33Z</time>
      </trkpt>
      <trkpt lat="47.53524" lon="-2.77036">
        <ele>-1.7852783</ele>
        <time>2009-09-30T15:05:41Z</time>
      </trkpt>
      <trkpt lat="47.53517" lon="-2.7703">
        <ele>-0.8240967</ele>
        <time>2009-09-30T15:05:43Z</time>
      </trkpt>
      <trkpt lat="47.53516" lon="-2.76995">
        <ele>-3.7078857</ele>
        <time>2009-09-30T15:05:49Z</time>
      </trkpt>
      <trkpt lat="47.53516" lon="-2.76987">
        <ele>-4.1885986</ele>
        <time>2009-09-30T15:05:50Z</time>
      </trkpt>
      <trkpt lat="47.53515" lon="-2.76936">
        <ele>-7.5531006</ele>
        <time>2009-09-30T15:05:57Z</time>
      </trkpt>
      <trkpt lat="47.53516" lon="-2.76915">
        <ele>-8.0339355</ele>
        <time>2009-09-30T15:06:00Z</time>
      </trkpt>
      <trkpt lat="47.53515" lon="-2.76856">
        <ele>-8.0339355</ele>
        <time>2009-09-30T15:06:07Z</time>
      </trkpt>
      <trkpt lat="47.53513" lon="-2.76796">
        <ele>-6.1112061</ele>
        <time>2009-09-30T15:06:14Z</time>
      </trkpt>
      <trkpt lat="47.53512" lon="-2.76778">
        <ele>-6.5919189</ele>
        <time>2009-09-30T15:06:17Z</time>
      </trkpt>
      <trkpt lat="47.53503" lon="-2.76736">
        <ele>-4.1885986</ele>
        <time>2009-09-30T15:06:22Z</time>
      </trkpt>
      <trkpt lat="47.53493" lon="-2.76674">
        <ele>-7.0725098</ele>
        <time>2009-09-30T15:06:30Z</time>
      </trkpt>
      <trkpt lat="47.53489" lon="-2.76638">
        <ele>-8.5146484</ele>
        <time>2009-09-30T15:06:35Z</time>
      </trkpt>
      <trkpt lat="47.53488" lon="-2.76631">
        <ele>-8.0339355</ele>
        <time>2009-09-30T15:06:36Z</time>
      </trkpt>
      <trkpt lat="47.5349" lon="-2.76616">
        <ele>-8.0339355</ele>
        <time>2009-09-30T15:06:38Z</time>
      </trkpt>
      <trkpt lat="47.53492" lon="-2.76561">
        <ele>-4.1885986</ele>
        <time>2009-09-30T15:06:45Z</time>
      </trkpt>
      <trkpt lat="47.53492" lon="-2.76547">
        <ele>-3.7078857</ele>
        <time>2009-09-30T15:06:47Z</time>
      </trkpt>
      <trkpt lat="47.53493" lon="-2.76503">
        <ele>-4.6693115</ele>
        <time>2009-09-30T15:06:52Z</time>
      </trkpt>
      <trkpt lat="47.53502" lon="-2.76455">
        <ele>-3.7078857</ele>
        <time>2009-09-30T15:06:58Z</time>
      </trkpt>
      <trkpt lat="47.53508" lon="-2.7643">
        <ele>-3.2272949</ele>
        <time>2009-09-30T15:07:01Z</time>
      </trkpt>
      <trkpt lat="47.53513" lon="-2.7639">
        <ele>-2.7467041</ele>
        <time>2009-09-30T15:07:06Z</time>
      </trkpt>
      <trkpt lat="47.53514" lon="-2.76342">
        <ele>-0.3433838</ele>
        <time>2009-09-30T15:07:13Z</time>
      </trkpt>
      <trkpt lat="47.53516" lon="-2.76296">
        <ele>-0.3433838</ele>
        <time>2009-09-30T15:07:21Z</time>
      </trkpt>
      <trkpt lat="47.53517" lon="-2.76263">
        <ele>-0.3433838</ele>
        <time>2009-09-30T15:07:27Z</time>
      </trkpt>
      <trkpt lat="47.53529" lon="-2.7622">
        <ele>-0.3433838</ele>
        <time>2009-09-30T15:07:34Z</time>
      </trkpt>
      <trkpt lat="47.53537" lon="-2.76205">
        <ele>0.1374512</ele>
        <time>2009-09-30T15:07:37Z</time>
      </trkpt>
      <trkpt lat="47.5354" lon="-2.76194">
        <ele>0.618042</ele>
        <time>2009-09-30T15:07:40Z</time>
      </trkpt>
      <trkpt lat="47.53534" lon="-2.76162">
        <ele>2.0600586</ele>
        <time>2009-09-30T15:07:47Z</time>
      </trkpt>
      <trkpt lat="47.53529" lon="-2.7613">
        <ele>3.0212402</ele>
        <time>2009-09-30T15:07:53Z</time>
      </trkpt>
      <trkpt lat="47.53527" lon="-2.76092">
        <ele>3.0212402</ele>
        <time>2009-09-30T15:08:00Z</time>
      </trkpt>
      <trkpt lat="47.5353" lon="-2.76058">
        <ele>1.0986328</ele>
        <time>2009-09-30T15:08:05Z</time>
      </trkpt>
      <trkpt lat="47.53536" lon="-2.76022">
        <ele>0.618042</ele>
        <time>2009-09-30T15:08:10Z</time>
      </trkpt>
      <trkpt lat="47.53539" lon="-2.75975">
        <ele>0.1374512</ele>
        <time>2009-09-30T15:08:16Z</time>
      </trkpt>
      <trkpt lat="47.53538" lon="-2.75949">
        <ele>1.0986328</ele>
        <time>2009-09-30T15:08:19Z</time>
      </trkpt>
      <trkpt lat="47.53526" lon="-2.7589">
        <ele>2.0600586</ele>
        <time>2009-09-30T15:08:27Z</time>
      </trkpt>
      <trkpt lat="47.53515" lon="-2.75848">
        <ele>3.0212402</ele>
        <time>2009-09-30T15:08:33Z</time>
      </trkpt>
      <trkpt lat="47.53506" lon="-2.75793">
        <ele>5.4245605</ele>
        <time>2009-09-30T15:08:41Z</time>
      </trkpt>
      <trkpt lat="47.53502" lon="-2.7578">
        <ele>5.4245605</ele>
        <time>2009-09-30T15:08:43Z</time>
      </trkpt>
      <trkpt lat="47.53486" lon="-2.75744">
        <ele>5.9052734</ele>
        <time>2009-09-30T15:08:50Z</time>
      </trkpt>
      <trkpt lat="47.53471" lon="-2.75727">
        <ele>6.8664551</ele>
        <time>2009-09-30T15:08:55Z</time>
      </trkpt>
      <trkpt lat="47.53468" lon="-2.75706">
        <ele>5.4245605</ele>
        <time>2009-09-30T15:08:59Z</time>
      </trkpt>
      <trkpt lat="47.53478" lon="-2.75672">
        <ele>5.9052734</ele>
        <time>2009-09-30T15:09:07Z</time>
      </trkpt>
      <trkpt lat="47.53482" lon="-2.75662">
        <ele>5.9052734</ele>
        <time>2009-09-30T15:09:10Z</time>
      </trkpt>
      <trkpt lat="47.53488" lon="-2.75625">
        <ele>6.8664551</ele>
        <time>2009-09-30T15:09:16Z</time>
      </trkpt>
      <trkpt lat="47.53477" lon="-2.75591">
        <ele>5.9052734</ele>
        <time>2009-09-30T15:09:21Z</time>
      </trkpt>
      <trkpt lat="47.53437" lon="-2.75515">
        <ele>7.347168</ele>
        <time>2009-09-30T15:09:33Z</time>
      </trkpt>
      <trkpt lat="47.53411" lon="-2.75476">
        <ele>7.8278809</ele>
        <time>2009-09-30T15:09:40Z</time>
      </trkpt>
      <trkpt lat="47.53406" lon="-2.75468">
        <ele>8.7891846</ele>
        <time>2009-09-30T15:09:43Z</time>
      </trkpt>
      <trkpt lat="47.53411" lon="-2.75473">
        <ele>8.3085938</ele>
        <time>2009-09-30T15:09:47Z</time>
      </trkpt>
      <trkpt lat="47.53425" lon="-2.75499">
        <ele>6.8664551</ele>
        <time>2009-09-30T15:09:53Z</time>
      </trkpt>
      <trkpt lat="47.53446" lon="-2.75529">
        <ele>6.3858643</ele>
        <time>2009-09-30T15:10:00Z</time>
      </trkpt>
      <trkpt lat="47.53442" lon="-2.75542">
        <ele>5.9052734</ele>
        <time>2009-09-30T15:10:04Z</time>
      </trkpt>
      <trkpt lat="47.53437" lon="-2.75539">
        <ele>6.3858643</ele>
        <time>2009-09-30T15:10:06Z</time>
      </trkpt>
      <trkpt lat="47.53428" lon="-2.75536">
        <ele>6.3858643</ele>
        <time>2009-09-30T15:10:08Z</time>
      </trkpt>
      <trkpt lat="47.534" lon="-2.75531">
        <ele>8.7891846</ele>
        <time>2009-09-30T15:10:16Z</time>
      </trkpt>
      <trkpt lat="47.53376" lon="-2.75527">
        <ele>10.711792</ele>
        <time>2009-09-30T15:10:22Z</time>
      </trkpt>
      <trkpt lat="47.53353" lon="-2.75522">
        <ele>12.1538086</ele>
        <time>2009-09-30T15:10:28Z</time>
      </trkpt>
      <trkpt lat="47.53335" lon="-2.75515">
        <ele>15.0377197</ele>
        <time>2009-09-30T15:10:34Z</time>
      </trkpt>
      <trkpt lat="47.53314" lon="-2.75506">
        <ele>13.1151123</ele>
        <time>2009-09-30T15:10:41Z</time>
      </trkpt>
      <trkpt lat="47.533" lon="-2.75489">
        <ele>12.6343994</ele>
        <time>2009-09-30T15:10:48Z</time>
      </trkpt>
      <trkpt lat="47.53276" lon="-2.75468">
        <ele>13.1151123</ele>
        <time>2009-09-30T15:10:56Z</time>
      </trkpt>
      <trkpt lat="47.53236" lon="-2.75461">
        <ele>14.5570068</ele>
        <time>2009-09-30T15:11:05Z</time>
      </trkpt>
      <trkpt lat="47.53197" lon="-2.75454">
        <ele>16.4797363</ele>
        <time>2009-09-30T15:11:14Z</time>
      </trkpt>
      <trkpt lat="47.53165" lon="-2.75444">
        <ele>18.8830566</ele>
        <time>2009-09-30T15:11:23Z</time>
      </trkpt>
      <trkpt lat="47.53135" lon="-2.75433">
        <ele>17.9217529</ele>
        <time>2009-09-30T15:11:31Z</time>
      </trkpt>
      <trkpt lat="47.53116" lon="-2.75429">
        <ele>17.9217529</ele>
        <time>2009-09-30T15:11:35Z</time>
      </trkpt>
      <trkpt lat="47.53082" lon="-2.75444">
        <ele>15.9990234</ele>
        <time>2009-09-30T15:11:41Z</time>
      </trkpt>
      <trkpt lat="47.53071" lon="-2.75475">
        <ele>15.9990234</ele>
        <time>2009-09-30T15:11:45Z</time>
      </trkpt>
      <trkpt lat="47.53071" lon="-2.75483">
        <ele>15.9990234</ele>
        <time>2009-09-30T15:11:46Z</time>
      </trkpt>
      <trkpt lat="47.53067" lon="-2.75515">
        <ele>16.4797363</ele>
        <time>2009-09-30T15:11:51Z</time>
      </trkpt>
      <trkpt lat="47.53063" lon="-2.75522">
        <ele>17.4411621</ele>
        <time>2009-09-30T15:11:53Z</time>
      </trkpt>
      <trkpt lat="47.53057" lon="-2.75524">
        <ele>17.4411621</ele>
        <time>2009-09-30T15:11:59Z</time>
      </trkpt>
      <trkpt lat="47.53056" lon="-2.75524">
        <ele>17.4411621</ele>
        <time>2009-09-30T15:12:04Z</time>
      </trkpt>
      <trkpt lat="47.53043" lon="-2.75516">
        <ele>15.9990234</ele>
        <time>2009-09-30T15:12:14Z</time>
      </trkpt>
      <trkpt lat="47.53043" lon="-2.75516">
        <ele>15.5184326</ele>
        <time>2009-09-30T15:12:18Z</time>
      </trkpt>
      <trkpt lat="47.5305" lon="-2.75518">
        <ele>15.5184326</ele>
        <time>2009-09-30T15:12:24Z</time>
      </trkpt>
      <trkpt lat="47.53057" lon="-2.7552">
        <ele>15.0377197</ele>
        <time>2009-09-30T15:12:28Z</time>
      </trkpt>
      <trkpt lat="47.53066" lon="-2.75513">
        <ele>14.5570068</ele>
        <time>2009-09-30T15:12:32Z</time>
      </trkpt>
      <trkpt lat="47.53073" lon="-2.75487">
        <ele>15.9990234</ele>
        <time>2009-09-30T15:12:39Z</time>
      </trkpt>
      <trkpt lat="47.53071" lon="-2.75478">
        <ele>16.4797363</ele>
        <time>2009-09-30T15:12:44Z</time>
      </trkpt>
      <trkpt lat="47.5307" lon="-2.75469">
        <ele>16.4797363</ele>
        <time>2009-09-30T15:12:50Z</time>
      </trkpt>
      <trkpt lat="47.53072" lon="-2.75475">
        <ele>15.9990234</ele>
        <time>2009-09-30T15:12:54Z</time>
      </trkpt>
      <trkpt lat="47.53068" lon="-2.75511">
        <ele>15.9990234</ele>
        <time>2009-09-30T15:13:03Z</time>
      </trkpt>
      <trkpt lat="47.53062" lon="-2.75523">
        <ele>15.9990234</ele>
        <time>2009-09-30T15:13:07Z</time>
      </trkpt>
      <trkpt lat="47.53047" lon="-2.75518">
        <ele>15.9990234</ele>
        <time>2009-09-30T15:13:13Z</time>
      </trkpt>
      <trkpt lat="47.53017" lon="-2.75495">
        <ele>15.9990234</ele>
        <time>2009-09-30T15:13:22Z</time>
      </trkpt>
      <trkpt lat="47.52975" lon="-2.7547">
        <ele>15.9990234</ele>
        <time>2009-09-30T15:13:33Z</time>
      </trkpt>
      <trkpt lat="47.52947" lon="-2.7547">
        <ele>16.9604492</ele>
        <time>2009-09-30T15:13:40Z</time>
      </trkpt>
      <trkpt lat="47.52937" lon="-2.7549">
        <ele>17.9217529</ele>
        <time>2009-09-30T15:13:45Z</time>
      </trkpt>
      <trkpt lat="47.52927" lon="-2.75514">
        <ele>18.8830566</ele>
        <time>2009-09-30T15:13:50Z</time>
      </trkpt>
      <trkpt lat="47.52919" lon="-2.75527">
        <ele>19.3637695</ele>
        <time>2009-09-30T15:13:53Z</time>
      </trkpt>
      <trkpt lat="47.52906" lon="-2.75558">
        <ele>20.3249512</ele>
        <time>2009-09-30T15:13:59Z</time>
      </trkpt>
      <trkpt lat="47.52899" lon="-2.75573">
        <ele>19.8443604</ele>
        <time>2009-09-30T15:14:02Z</time>
      </trkpt>
      <trkpt lat="47.52871" lon="-2.75589">
        <ele>20.3249512</ele>
        <time>2009-09-30T15:14:09Z</time>
      </trkpt>
      <trkpt lat="47.5284" lon="-2.75588">
        <ele>20.8056641</ele>
        <time>2009-09-30T15:14:17Z</time>
      </trkpt>
      <trkpt lat="47.5283" lon="-2.75585">
        <ele>20.3249512</ele>
        <time>2009-09-30T15:14:19Z</time>
      </trkpt>
      <trkpt lat="47.52786" lon="-2.75578">
        <ele>21.7669678</ele>
        <time>2009-09-30T15:14:28Z</time>
      </trkpt>
      <trkpt lat="47.52768" lon="-2.7558">
        <ele>22.7282715</ele>
        <time>2009-09-30T15:14:35Z</time>
      </trkpt>
      <trkpt lat="47.52758" lon="-2.75588">
        <ele>22.2475586</ele>
        <time>2009-09-30T15:14:41Z</time>
      </trkpt>
      <trkpt lat="47.52752" lon="-2.75588">
        <ele>22.2475586</ele>
        <time>2009-09-30T15:14:45Z</time>
      </trkpt>
      <trkpt lat="47.52748" lon="-2.7559">
        <ele>22.2475586</ele>
        <time>2009-09-30T15:14:48Z</time>
      </trkpt>
      <trkpt lat="47.52742" lon="-2.75586">
        <ele>22.7282715</ele>
        <time>2009-09-30T15:14:52Z</time>
      </trkpt>
      <trkpt lat="47.52735" lon="-2.75554">
        <ele>20.8056641</ele>
        <time>2009-09-30T15:15:00Z</time>
      </trkpt>
      <trkpt lat="47.52731" lon="-2.75546">
        <ele>19.3637695</ele>
        <time>2009-09-30T15:15:03Z</time>
      </trkpt>
      <trkpt lat="47.52733" lon="-2.75535">
        <ele>20.8056641</ele>
        <time>2009-09-30T15:15:11Z</time>
      </trkpt>
      <trkpt lat="47.52732" lon="-2.75537">
        <ele>20.3249512</ele>
        <time>2009-09-30T15:15:41Z</time>
      </trkpt>
      <trkpt lat="47.52732" lon="-2.75538">
        <ele>20.3249512</ele>
        <time>2009-09-30T15:15:42Z</time>
      </trkpt>
      <trkpt lat="47.52734" lon="-2.75545">
        <ele>20.8056641</ele>
        <time>2009-09-30T15:15:46Z</time>
      </trkpt>
      <trkpt lat="47.52739" lon="-2.75576">
        <ele>21.286377</ele>
        <time>2009-09-30T15:15:59Z</time>
      </trkpt>
      <trkpt lat="47.52739" lon="-2.75578">
        <ele>21.286377</ele>
        <time>2009-09-30T15:16:00Z</time>
      </trkpt>
      <trkpt lat="47.52739" lon="-2.7558">
        <ele>21.7669678</ele>
        <time>2009-09-30T15:16:08Z</time>
      </trkpt>
      <trkpt lat="47.52739" lon="-2.7558">
        <ele>22.2475586</ele>
        <time>2009-09-30T15:16:36Z</time>
      </trkpt>
      <trkpt lat="47.52739" lon="-2.75589">
        <ele>22.2475586</ele>
        <time>2009-09-30T15:16:43Z</time>
      </trkpt>
      <trkpt lat="47.52744" lon="-2.75616">
        <ele>22.2475586</ele>
        <time>2009-09-30T15:16:50Z</time>
      </trkpt>
      <trkpt lat="47.52748" lon="-2.75637">
        <ele>23.2089844</ele>
        <time>2009-09-30T15:16:57Z</time>
      </trkpt>
      <trkpt lat="47.5275" lon="-2.75669">
        <ele>22.2475586</ele>
        <time>2009-09-30T15:17:06Z</time>
      </trkpt>
      <trkpt lat="47.52754" lon="-2.75688">
        <ele>21.286377</ele>
        <time>2009-09-30T15:17:13Z</time>
      </trkpt>
      <trkpt lat="47.52755" lon="-2.75691">
        <ele>21.286377</ele>
        <time>2009-09-30T15:17:14Z</time>
      </trkpt>
      <trkpt lat="47.52754" lon="-2.75699">
        <ele>20.8056641</ele>
        <time>2009-09-30T15:17:21Z</time>
      </trkpt>
      <trkpt lat="47.52754" lon="-2.75699">
        <ele>20.8056641</ele>
        <time>2009-09-30T15:17:43Z</time>
      </trkpt>
      <trkpt lat="47.52754" lon="-2.75697">
        <ele>20.8056641</ele>
        <time>2009-09-30T15:18:03Z</time>
      </trkpt>
      <trkpt lat="47.52753" lon="-2.75697">
        <ele>20.3249512</ele>
        <time>2009-09-30T15:18:04Z</time>
      </trkpt>
      <trkpt lat="47.52754" lon="-2.75692">
        <ele>20.3249512</ele>
        <time>2009-09-30T15:18:07Z</time>
      </trkpt>
      <trkpt lat="47.5275" lon="-2.75661">
        <ele>21.7669678</ele>
        <time>2009-09-30T15:18:15Z</time>
      </trkpt>
      <trkpt lat="47.52748" lon="-2.7563">
        <ele>22.2475586</ele>
        <time>2009-09-30T15:18:21Z</time>
      </trkpt>
      <trkpt lat="47.52739" lon="-2.75584">
        <ele>21.286377</ele>
        <time>2009-09-30T15:18:31Z</time>
      </trkpt>
      <trkpt lat="47.52736" lon="-2.75564">
        <ele>22.2475586</ele>
        <time>2009-09-30T15:18:39Z</time>
      </trkpt>
      <trkpt lat="47.52732" lon="-2.75527">
        <ele>20.3249512</ele>
        <time>2009-09-30T15:18:47Z</time>
      </trkpt>
      <trkpt lat="47.52723" lon="-2.75505">
        <ele>19.8443604</ele>
        <time>2009-09-30T15:18:53Z</time>
      </trkpt>
      <trkpt lat="47.52717" lon="-2.75498">
        <ele>18.8830566</ele>
        <time>2009-09-30T15:18:58Z</time>
      </trkpt>
      <trkpt lat="47.52718" lon="-2.75501">
        <ele>18.8830566</ele>
        <time>2009-09-30T15:19:12Z</time>
      </trkpt>
      <trkpt lat="47.52723" lon="-2.75504">
        <ele>18.8830566</ele>
        <time>2009-09-30T15:19:16Z</time>
      </trkpt>
      <trkpt lat="47.52731" lon="-2.7553">
        <ele>19.8443604</ele>
        <time>2009-09-30T15:19:24Z</time>
      </trkpt>
      <trkpt lat="47.52736" lon="-2.75561">
        <ele>20.3249512</ele>
        <time>2009-09-30T15:19:32Z</time>
      </trkpt>
      <trkpt lat="47.52737" lon="-2.75571">
        <ele>20.3249512</ele>
        <time>2009-09-30T15:19:35Z</time>
      </trkpt>
      <trkpt lat="47.52737" lon="-2.75572">
        <ele>20.8056641</ele>
        <time>2009-09-30T15:19:42Z</time>
      </trkpt>
      <trkpt lat="47.52737" lon="-2.75572">
        <ele>20.8056641</ele>
        <time>2009-09-30T15:20:18Z</time>
      </trkpt>
      <trkpt lat="47.52746" lon="-2.75564">
        <ele>20.8056641</ele>
        <time>2009-09-30T15:20:24Z</time>
      </trkpt>
      <trkpt lat="47.52776" lon="-2.75526">
        <ele>19.8443604</ele>
        <time>2009-09-30T15:20:35Z</time>
      </trkpt>
      <trkpt lat="47.52781" lon="-2.7552">
        <ele>19.3637695</ele>
        <time>2009-09-30T15:20:37Z</time>
      </trkpt>
      <trkpt lat="47.52785" lon="-2.75527">
        <ele>19.8443604</ele>
        <time>2009-09-30T15:20:41Z</time>
      </trkpt>
      <trkpt lat="47.52783" lon="-2.7553">
        <ele>19.8443604</ele>
        <time>2009-09-30T15:20:42Z</time>
      </trkpt>
      <trkpt lat="47.52772" lon="-2.75543">
        <ele>19.8443604</ele>
        <time>2009-09-30T15:20:46Z</time>
      </trkpt>
      <trkpt lat="47.52753" lon="-2.75573">
        <ele>20.8056641</ele>
        <time>2009-09-30T15:20:53Z</time>
      </trkpt>
      <trkpt lat="47.5275" lon="-2.75575">
        <ele>20.8056641</ele>
        <time>2009-09-30T15:20:54Z</time>
      </trkpt>
      <trkpt lat="47.52739" lon="-2.75564">
        <ele>20.8056641</ele>
        <time>2009-09-30T15:20:58Z</time>
      </trkpt>
      <trkpt lat="47.52729" lon="-2.75512">
        <ele>19.8443604</ele>
        <time>2009-09-30T15:21:06Z</time>
      </trkpt>
      <trkpt lat="47.52708" lon="-2.75493">
        <ele>18.4023438</ele>
        <time>2009-09-30T15:21:11Z</time>
      </trkpt>
      <trkpt lat="47.52696" lon="-2.75503">
        <ele>18.4023438</ele>
        <time>2009-09-30T15:21:15Z</time>
      </trkpt>
      <trkpt lat="47.52694" lon="-2.75507">
        <ele>17.9217529</ele>
        <time>2009-09-30T15:21:18Z</time>
      </trkpt>
      <trkpt lat="47.52695" lon="-2.75508">
        <ele>19.8443604</ele>
        <time>2009-09-30T15:21:27Z</time>
      </trkpt>
      <trkpt lat="47.5269" lon="-2.75514">
        <ele>19.3637695</ele>
        <time>2009-09-30T15:21:32Z</time>
      </trkpt>
      <trkpt lat="47.5267" lon="-2.75541">
        <ele>19.3637695</ele>
        <time>2009-09-30T15:21:41Z</time>
      </trkpt>
      <trkpt lat="47.52646" lon="-2.75574">
        <ele>19.3637695</ele>
        <time>2009-09-30T15:21:51Z</time>
      </trkpt>
      <trkpt lat="47.52641" lon="-2.75581">
        <ele>19.3637695</ele>
        <time>2009-09-30T15:21:57Z</time>
      </trkpt>
      <trkpt lat="47.52635" lon="-2.75588">
        <ele>19.3637695</ele>
        <time>2009-09-30T15:22:24Z</time>
      </trkpt>
      <trkpt lat="47.52617" lon="-2.75615">
        <ele>18.4023438</ele>
        <time>2009-09-30T15:22:34Z</time>
      </trkpt>
      <trkpt lat="47.5259" lon="-2.75654">
        <ele>17.9217529</ele>
        <time>2009-09-30T15:22:44Z</time>
      </trkpt>
      <trkpt lat="47.52568" lon="-2.75686">
        <ele>16.9604492</ele>
        <time>2009-09-30T15:22:54Z</time>
      </trkpt>
      <trkpt lat="47.52566" lon="-2.75689">
        <ele>16.9604492</ele>
        <time>2009-09-30T15:23:00Z</time>
      </trkpt>
      <trkpt lat="47.52566" lon="-2.75689">
        <ele>16.9604492</ele>
        <time>2009-09-30T15:23:44Z</time>
      </trkpt>
      <trkpt lat="47.52572" lon="-2.75681">
        <ele>17.4411621</ele>
        <time>2009-09-30T15:23:51Z</time>
      </trkpt>
      <trkpt lat="47.52586" lon="-2.7566">
        <ele>16.4797363</ele>
        <time>2009-09-30T15:24:05Z</time>
      </trkpt>
      <trkpt lat="47.52602" lon="-2.75635">
        <ele>16.9604492</ele>
        <time>2009-09-30T15:24:21Z</time>
      </trkpt>
      <trkpt lat="47.52615" lon="-2.75617">
        <ele>16.9604492</ele>
        <time>2009-09-30T15:24:33Z</time>
      </trkpt>
      <trkpt lat="47.52633" lon="-2.75593">
        <ele>18.4023438</ele>
        <time>2009-09-30T15:24:49Z</time>
      </trkpt>
      <trkpt lat="47.52647" lon="-2.75574">
        <ele>18.8830566</ele>
        <time>2009-09-30T15:25:02Z</time>
      </trkpt>
      <trkpt lat="47.52661" lon="-2.75555">
        <ele>19.3637695</ele>
        <time>2009-09-30T15:25:15Z</time>
      </trkpt>
      <trkpt lat="47.52679" lon="-2.75528">
        <ele>19.8443604</ele>
        <time>2009-09-30T15:25:32Z</time>
      </trkpt>
      <trkpt lat="47.52698" lon="-2.75503">
        <ele>19.3637695</ele>
        <time>2009-09-30T15:25:50Z</time>
      </trkpt>
      <trkpt lat="47.52704" lon="-2.75496">
        <ele>19.3637695</ele>
        <time>2009-09-30T15:25:57Z</time>
      </trkpt>
      <trkpt lat="47.52708" lon="-2.75487">
        <ele>19.8443604</ele>
        <time>2009-09-30T15:26:04Z</time>
      </trkpt>
      <trkpt lat="47.52703" lon="-2.75473">
        <ele>19.3637695</ele>
        <time>2009-09-30T15:26:13Z</time>
      </trkpt>
      <trkpt lat="47.52702" lon="-2.75472">
        <ele>18.8830566</ele>
        <time>2009-09-30T15:26:23Z</time>
      </trkpt>
      <trkpt lat="47.52701" lon="-2.7547">
        <ele>18.8830566</ele>
        <time>2009-09-30T15:26:34Z</time>
      </trkpt>
      <trkpt lat="47.52707" lon="-2.75438">
        <ele>18.8830566</ele>
        <time>2009-09-30T15:26:40Z</time>
      </trkpt>
      <trkpt lat="47.52709" lon="-2.75431">
        <ele>18.8830566</ele>
        <time>2009-09-30T15:26:41Z</time>
      </trkpt>
      <trkpt lat="47.52713" lon="-2.754">
        <ele>18.4023438</ele>
        <time>2009-09-30T15:26:45Z</time>
      </trkpt>
      <trkpt lat="47.52706" lon="-2.75306">
        <ele>17.9217529</ele>
        <time>2009-09-30T15:26:55Z</time>
      </trkpt>
      <trkpt lat="47.52695" lon="-2.75178">
        <ele>17.9217529</ele>
        <time>2009-09-30T15:27:08Z</time>
      </trkpt>
      <trkpt lat="47.52682" lon="-2.75084">
        <ele>18.4023438</ele>
        <time>2009-09-30T15:27:18Z</time>
      </trkpt>
      <trkpt lat="47.52681" lon="-2.75075">
        <ele>17.9217529</ele>
        <time>2009-09-30T15:27:19Z</time>
      </trkpt>
      <trkpt lat="47.52685" lon="-2.75044">
        <ele>17.4411621</ele>
        <time>2009-09-30T15:27:23Z</time>
      </trkpt>
      <trkpt lat="47.52681" lon="-2.74999">
        <ele>17.4411621</ele>
        <time>2009-09-30T15:27:31Z</time>
      </trkpt>
      <trkpt lat="47.52666" lon="-2.74935">
        <ele>15.9990234</ele>
        <time>2009-09-30T15:27:39Z</time>
      </trkpt>
      <trkpt lat="47.5265" lon="-2.74866">
        <ele>15.9990234</ele>
        <time>2009-09-30T15:27:48Z</time>
      </trkpt>
      <trkpt lat="47.52635" lon="-2.74773">
        <ele>15.9990234</ele>
        <time>2009-09-30T15:27:59Z</time>
      </trkpt>
      <trkpt lat="47.52616" lon="-2.74671">
        <ele>15.9990234</ele>
        <time>2009-09-30T15:28:11Z</time>
      </trkpt>
      <trkpt lat="47.52602" lon="-2.74574">
        <ele>15.5184326</ele>
        <time>2009-09-30T15:28:22Z</time>
      </trkpt>
      <trkpt lat="47.52601" lon="-2.74566">
        <ele>15.0377197</ele>
        <time>2009-09-30T15:28:23Z</time>
      </trkpt>
      <trkpt lat="47.52602" lon="-2.74528">
        <ele>14.5570068</ele>
        <time>2009-09-30T15:28:29Z</time>
      </trkpt>
      <trkpt lat="47.52596" lon="-2.74498">
        <ele>14.076416</ele>
        <time>2009-09-30T15:28:35Z</time>
      </trkpt>
      <trkpt lat="47.52591" lon="-2.74455">
        <ele>13.5958252</ele>
        <time>2009-09-30T15:28:43Z</time>
      </trkpt>
      <trkpt lat="47.52593" lon="-2.74429">
        <ele>14.076416</ele>
        <time>2009-09-30T15:28:49Z</time>
      </trkpt>
      <trkpt lat="47.52593" lon="-2.74424">
        <ele>14.076416</ele>
        <time>2009-09-30T15:28:51Z</time>
      </trkpt>
      <trkpt lat="47.52589" lon="-2.74422">
        <ele>14.076416</ele>
        <time>2009-09-30T15:28:55Z</time>
      </trkpt>
      <trkpt lat="47.52582" lon="-2.74438">
        <ele>13.5958252</ele>
        <time>2009-09-30T15:28:59Z</time>
      </trkpt>
      <trkpt lat="47.52559" lon="-2.74482">
        <ele>12.1538086</ele>
        <time>2009-09-30T15:29:06Z</time>
      </trkpt>
      <trkpt lat="47.52526" lon="-2.74556">
        <ele>13.1151123</ele>
        <time>2009-09-30T15:29:15Z</time>
      </trkpt>
      <trkpt lat="47.52489" lon="-2.74628">
        <ele>12.1538086</ele>
        <time>2009-09-30T15:29:24Z</time>
      </trkpt>
      <trkpt lat="47.52464" lon="-2.74675">
        <ele>10.711792</ele>
        <time>2009-09-30T15:29:30Z</time>
      </trkpt>
      <trkpt lat="47.52429" lon="-2.74752">
        <ele>11.1925049</ele>
        <time>2009-09-30T15:29:39Z</time>
      </trkpt>
      <trkpt lat="47.52395" lon="-2.74823">
        <ele>10.711792</ele>
        <time>2009-09-30T15:29:48Z</time>
      </trkpt>
      <trkpt lat="47.52388" lon="-2.74839">
        <ele>10.2312012</ele>
        <time>2009-09-30T15:29:50Z</time>
      </trkpt>
      <trkpt lat="47.52356" lon="-2.74909">
        <ele>10.711792</ele>
        <time>2009-09-30T15:29:59Z</time>
      </trkpt>
      <trkpt lat="47.52338" lon="-2.74951">
        <ele>11.1925049</ele>
        <time>2009-09-30T15:30:05Z</time>
      </trkpt>
      <trkpt lat="47.52305" lon="-2.74979">
        <ele>9.7506104</ele>
        <time>2009-09-30T15:30:11Z</time>
      </trkpt>
      <trkpt lat="47.52251" lon="-2.75005">
        <ele>8.3085938</ele>
        <time>2009-09-30T15:30:19Z</time>
      </trkpt>
      <trkpt lat="47.52184" lon="-2.75045">
        <ele>6.8664551</ele>
        <time>2009-09-30T15:30:29Z</time>
      </trkpt>
      <trkpt lat="47.52127" lon="-2.75085">
        <ele>6.3858643</ele>
        <time>2009-09-30T15:30:38Z</time>
      </trkpt>
      <trkpt lat="47.52095" lon="-2.75097">
        <ele>5.4245605</ele>
        <time>2009-09-30T15:30:43Z</time>
      </trkpt>
      <trkpt lat="47.52082" lon="-2.75123">
        <ele>5.4245605</ele>
        <time>2009-09-30T15:30:47Z</time>
      </trkpt>
      <trkpt lat="47.52079" lon="-2.75167">
        <ele>5.9052734</ele>
        <time>2009-09-30T15:30:53Z</time>
      </trkpt>
      <trkpt lat="47.5207" lon="-2.7517">
        <ele>5.4245605</ele>
        <time>2009-09-30T15:30:57Z</time>
      </trkpt>
      <trkpt lat="47.52067" lon="-2.75162">
        <ele>5.4245605</ele>
        <time>2009-09-30T15:30:59Z</time>
      </trkpt>
      <trkpt lat="47.52052" lon="-2.75128">
        <ele>4.9438477</ele>
        <time>2009-09-30T15:31:05Z</time>
      </trkpt>
      <trkpt lat="47.52034" lon="-2.751">
        <ele>4.9438477</ele>
        <time>2009-09-30T15:31:10Z</time>
      </trkpt>
      <trkpt lat="47.51993" lon="-2.7502">
        <ele>3.0212402</ele>
        <time>2009-09-30T15:31:22Z</time>
      </trkpt>
      <trkpt lat="47.51961" lon="-2.74937">
        <ele>2.0600586</ele>
        <time>2009-09-30T15:31:33Z</time>
      </trkpt>
      <trkpt lat="47.51941" lon="-2.74878">
        <ele>1.5793457</ele>
        <time>2009-09-30T15:31:41Z</time>
      </trkpt>
      <trkpt lat="47.51938" lon="-2.74871">
        <ele>1.5793457</ele>
        <time>2009-09-30T15:31:42Z</time>
      </trkpt>
      <trkpt lat="47.5192" lon="-2.74824">
        <ele>1.5793457</ele>
        <time>2009-09-30T15:31:49Z</time>
      </trkpt>
      <trkpt lat="47.51908" lon="-2.74783">
        <ele>0.618042</ele>
        <time>2009-09-30T15:31:56Z</time>
      </trkpt>
      <trkpt lat="47.51904" lon="-2.74762">
        <ele>-0.3433838</ele>
        <time>2009-09-30T15:31:59Z</time>
      </trkpt>
      <trkpt lat="47.51895" lon="-2.74724">
        <ele>-1.3046875</ele>
        <time>2009-09-30T15:32:06Z</time>
      </trkpt>
      <trkpt lat="47.51887" lon="-2.74697">
        <ele>-2.2659912</ele>
        <time>2009-09-30T15:32:11Z</time>
      </trkpt>
      <trkpt lat="47.51882" lon="-2.74671">
        <ele>-1.3046875</ele>
        <time>2009-09-30T15:32:16Z</time>
      </trkpt>
      <trkpt lat="47.51878" lon="-2.7464">
        <ele>-3.2272949</ele>
        <time>2009-09-30T15:32:22Z</time>
      </trkpt>
      <trkpt lat="47.5187" lon="-2.74608">
        <ele>-4.1885986</ele>
        <time>2009-09-30T15:32:28Z</time>
      </trkpt>
      <trkpt lat="47.51861" lon="-2.74577">
        <ele>-4.1885986</ele>
        <time>2009-09-30T15:32:34Z</time>
      </trkpt>
      <trkpt lat="47.51848" lon="-2.74534">
        <ele>-4.1885986</ele>
        <time>2009-09-30T15:32:42Z</time>
      </trkpt>
      <trkpt lat="47.51848" lon="-2.74484">
        <ele>-2.2659912</ele>
        <time>2009-09-30T15:32:51Z</time>
      </trkpt>
      <trkpt lat="47.51855" lon="-2.74447">
        <ele>-1.7852783</ele>
        <time>2009-09-30T15:32:59Z</time>
      </trkpt>
      <trkpt lat="47.51861" lon="-2.74422">
        <ele>-1.3046875</ele>
        <time>2009-09-30T15:33:05Z</time>
      </trkpt>
      <trkpt lat="47.51865" lon="-2.74388">
        <ele>-1.3046875</ele>
        <time>2009-09-30T15:33:13Z</time>
      </trkpt>
      <trkpt lat="47.51873" lon="-2.74358">
        <ele>-0.3433838</ele>
        <time>2009-09-30T15:33:20Z</time>
      </trkpt>
      <trkpt lat="47.51875" lon="-2.74349">
        <ele>-0.8240967</ele>
        <time>2009-09-30T15:33:22Z</time>
      </trkpt>
      <trkpt lat="47.51874" lon="-2.74315">
        <ele>-0.8240967</ele>
        <time>2009-09-30T15:33:29Z</time>
      </trkpt>
      <trkpt lat="47.51874" lon="-2.74266">
        <ele>1.0986328</ele>
        <time>2009-09-30T15:33:37Z</time>
      </trkpt>
      <trkpt lat="47.51882" lon="-2.74245">
        <ele>1.5793457</ele>
        <time>2009-09-30T15:33:42Z</time>
      </trkpt>
      <trkpt lat="47.51896" lon="-2.74228">
        <ele>1.5793457</ele>
        <time>2009-09-30T15:33:47Z</time>
      </trkpt>
      <trkpt lat="47.5192" lon="-2.74206">
        <ele>3.982666</ele>
        <time>2009-09-30T15:33:55Z</time>
      </trkpt>
      <trkpt lat="47.5193" lon="-2.74193">
        <ele>3.982666</ele>
        <time>2009-09-30T15:33:59Z</time>
      </trkpt>
      <trkpt lat="47.51947" lon="-2.7417">
        <ele>1.5793457</ele>
        <time>2009-09-30T15:34:07Z</time>
      </trkpt>
      <trkpt lat="47.51962" lon="-2.74146">
        <ele>2.5406494</ele>
        <time>2009-09-30T15:34:17Z</time>
      </trkpt>
      <trkpt lat="47.51968" lon="-2.74137">
        <ele>2.5406494</ele>
        <time>2009-09-30T15:34:21Z</time>
      </trkpt>
      <trkpt lat="47.51968" lon="-2.74125">
        <ele>3.0212402</ele>
        <time>2009-09-30T15:34:25Z</time>
      </trkpt>
      <trkpt lat="47.51966" lon="-2.74085">
        <ele>3.5019531</ele>
        <time>2009-09-30T15:34:34Z</time>
      </trkpt>
      <trkpt lat="47.51967" lon="-2.74044">
        <ele>2.5406494</ele>
        <time>2009-09-30T15:34:42Z</time>
      </trkpt>
      <trkpt lat="47.51962" lon="-2.73975">
        <ele>3.982666</ele>
        <time>2009-09-30T15:34:54Z</time>
      </trkpt>
      <trkpt lat="47.51962" lon="-2.73941">
        <ele>4.4632568</ele>
        <time>2009-09-30T15:35:00Z</time>
      </trkpt>
      <trkpt lat="47.5196" lon="-2.73883">
        <ele>4.9438477</ele>
        <time>2009-09-30T15:35:09Z</time>
      </trkpt>
      <trkpt lat="47.51957" lon="-2.73822">
        <ele>4.9438477</ele>
        <time>2009-09-30T15:35:18Z</time>
      </trkpt>
      <trkpt lat="47.51955" lon="-2.73751">
        <ele>5.9052734</ele>
        <time>2009-09-30T15:35:29Z</time>
      </trkpt>
      <trkpt lat="47.51955" lon="-2.73744">
        <ele>5.9052734</ele>
        <time>2009-09-30T15:35:30Z</time>
      </trkpt>
      <trkpt lat="47.51964" lon="-2.73699">
        <ele>5.4245605</ele>
        <time>2009-09-30T15:35:37Z</time>
      </trkpt>
      <trkpt lat="47.51968" lon="-2.73678">
        <ele>5.4245605</ele>
        <time>2009-09-30T15:35:40Z</time>
      </trkpt>
      <trkpt lat="47.51971" lon="-2.73619">
        <ele>4.9438477</ele>
        <time>2009-09-30T15:35:48Z</time>
      </trkpt>
      <trkpt lat="47.51969" lon="-2.7353">
        <ele>4.9438477</ele>
        <time>2009-09-30T15:36:00Z</time>
      </trkpt>
      <trkpt lat="47.51964" lon="-2.73461">
        <ele>3.0212402</ele>
        <time>2009-09-30T15:36:08Z</time>
      </trkpt>
      <trkpt lat="47.51962" lon="-2.73381">
        <ele>1.5793457</ele>
        <time>2009-09-30T15:36:17Z</time>
      </trkpt>
      <trkpt lat="47.51969" lon="-2.73345">
        <ele>1.5793457</ele>
        <time>2009-09-30T15:36:22Z</time>
      </trkpt>
      <trkpt lat="47.51986" lon="-2.73277">
        <ele>3.0212402</ele>
        <time>2009-09-30T15:36:33Z</time>
      </trkpt>
      <trkpt lat="47.51996" lon="-2.73248">
        <ele>1.5793457</ele>
        <time>2009-09-30T15:36:40Z</time>
      </trkpt>
      <trkpt lat="47.5201" lon="-2.73224">
        <ele>3.5019531</ele>
        <time>2009-09-30T15:36:48Z</time>
      </trkpt>
      <trkpt lat="47.52016" lon="-2.73214">
        <ele>3.5019531</ele>
        <time>2009-09-30T15:36:53Z</time>
      </trkpt>
      <trkpt lat="47.52015" lon="-2.73221">
        <ele>3.982666</ele>
        <time>2009-09-30T15:36:59Z</time>
      </trkpt>
      <trkpt lat="47.52012" lon="-2.73217">
        <ele>3.982666</ele>
        <time>2009-09-30T15:37:03Z</time>
      </trkpt>
      <trkpt lat="47.51994" lon="-2.73189">
        <ele>3.982666</ele>
        <time>2009-09-30T15:37:12Z</time>
      </trkpt>
      <trkpt lat="47.51959" lon="-2.73138">
        <ele>4.4632568</ele>
        <time>2009-09-30T15:37:24Z</time>
      </trkpt>
      <trkpt lat="47.5192" lon="-2.73081">
        <ele>3.982666</ele>
        <time>2009-09-30T15:37:37Z</time>
      </trkpt>
      <trkpt lat="47.51888" lon="-2.73039">
        <ele>3.982666</ele>
        <time>2009-09-30T15:37:48Z</time>
      </trkpt>
      <trkpt lat="47.51863" lon="-2.73001">
        <ele>3.982666</ele>
        <time>2009-09-30T15:37:58Z</time>
      </trkpt>
      <trkpt lat="47.51833" lon="-2.72954">
        <ele>3.982666</ele>
        <time>2009-09-30T15:38:11Z</time>
      </trkpt>
      <trkpt lat="47.51808" lon="-2.72906">
        <ele>2.5406494</ele>
        <time>2009-09-30T15:38:21Z</time>
      </trkpt>
      <trkpt lat="47.51792" lon="-2.72879">
        <ele>1.0986328</ele>
        <time>2009-09-30T15:38:27Z</time>
      </trkpt>
      <trkpt lat="47.51791" lon="-2.72878">
        <ele>1.0986328</ele>
        <time>2009-09-30T15:38:28Z</time>
      </trkpt>
      <trkpt lat="47.51786" lon="-2.7286">
        <ele>0.618042</ele>
        <time>2009-09-30T15:38:34Z</time>
      </trkpt>
      <trkpt lat="47.51766" lon="-2.72829">
        <ele>-0.3433838</ele>
        <time>2009-09-30T15:38:41Z</time>
      </trkpt>
      <trkpt lat="47.51731" lon="-2.7276">
        <ele>-1.7852783</ele>
        <time>2009-09-30T15:38:51Z</time>
      </trkpt>
      <trkpt lat="47.51727" lon="-2.72752">
        <ele>-1.7852783</ele>
        <time>2009-09-30T15:38:52Z</time>
      </trkpt>
      <trkpt lat="47.5172" lon="-2.72737">
        <ele>-2.7467041</ele>
        <time>2009-09-30T15:38:54Z</time>
      </trkpt>
      <trkpt lat="47.51687" lon="-2.72716">
        <ele>-1.7852783</ele>
        <time>2009-09-30T15:39:00Z</time>
      </trkpt>
      <trkpt lat="47.51676" lon="-2.72717">
        <ele>-2.2659912</ele>
        <time>2009-09-30T15:39:02Z</time>
      </trkpt>
      <trkpt lat="47.51615" lon="-2.72733">
        <ele>-2.7467041</ele>
        <time>2009-09-30T15:39:12Z</time>
      </trkpt>
      <trkpt lat="47.51548" lon="-2.72749">
        <ele>-3.7078857</ele>
        <time>2009-09-30T15:39:22Z</time>
      </trkpt>
      <trkpt lat="47.51494" lon="-2.72772">
        <ele>-3.2272949</ele>
        <time>2009-09-30T15:39:31Z</time>
      </trkpt>
      <trkpt lat="47.51434" lon="-2.72819">
        <ele>-2.7467041</ele>
        <time>2009-09-30T15:39:42Z</time>
      </trkpt>
      <trkpt lat="47.51399" lon="-2.72848">
        <ele>-1.3046875</ele>
        <time>2009-09-30T15:39:50Z</time>
      </trkpt>
      <trkpt lat="47.51358" lon="-2.72871">
        <ele>-2.2659912</ele>
        <time>2009-09-30T15:39:59Z</time>
      </trkpt>
      <trkpt lat="47.51328" lon="-2.72874">
        <ele>-1.7852783</ele>
        <time>2009-09-30T15:40:05Z</time>
      </trkpt>
      <trkpt lat="47.51299" lon="-2.7287">
        <ele>-0.8240967</ele>
        <time>2009-09-30T15:40:13Z</time>
      </trkpt>
      <trkpt lat="47.51271" lon="-2.72868">
        <ele>-0.3433838</ele>
        <time>2009-09-30T15:40:23Z</time>
      </trkpt>
      <trkpt lat="47.5126" lon="-2.72872">
        <ele>1.5793457</ele>
        <time>2009-09-30T15:40:30Z</time>
      </trkpt>
      <trkpt lat="47.51247" lon="-2.72883">
        <ele>2.0600586</ele>
        <time>2009-09-30T15:40:36Z</time>
      </trkpt>
      <trkpt lat="47.51244" lon="-2.72887">
        <ele>2.5406494</ele>
        <time>2009-09-30T15:40:43Z</time>
      </trkpt>
      <trkpt lat="47.51243" lon="-2.72887">
        <ele>2.0600586</ele>
        <time>2009-09-30T15:46:43Z</time>
      </trkpt>
      <trkpt lat="47.51241" lon="-2.72886">
        <ele>1.5793457</ele>
        <time>2009-09-30T15:46:51Z</time>
      </trkpt>
      <trkpt lat="47.51239" lon="-2.72885">
        <ele>2.0600586</ele>
        <time>2009-09-30T15:46:59Z</time>
      </trkpt>
      <trkpt lat="47.51232" lon="-2.72887">
        <ele>2.0600586</ele>
        <time>2009-09-30T15:47:03Z</time>
      </trkpt>
      <trkpt lat="47.51228" lon="-2.72891">
        <ele>2.0600586</ele>
        <time>2009-09-30T15:47:10Z</time>
      </trkpt>
      <trkpt lat="47.51228" lon="-2.72891">
        <ele>1.5793457</ele>
        <time>2009-09-30T15:47:19Z</time>
      </trkpt>
      <trkpt lat="47.51214" lon="-2.72893">
        <ele>1.5793457</ele>
        <time>2009-09-30T15:47:26Z</time>
      </trkpt>
      <trkpt lat="47.51187" lon="-2.72905">
        <ele>1.0986328</ele>
        <time>2009-09-30T15:47:33Z</time>
      </trkpt>
      <trkpt lat="47.51156" lon="-2.72909">
        <ele>-0.3433838</ele>
        <time>2009-09-30T15:47:39Z</time>
      </trkpt>
      <trkpt lat="47.5114" lon="-2.72918">
        <ele>-0.3433838</ele>
        <time>2009-09-30T15:47:43Z</time>
      </trkpt>
      <trkpt lat="47.51135" lon="-2.72918">
        <ele>0.618042</ele>
        <time>2009-09-30T15:47:48Z</time>
      </trkpt>
      <trkpt lat="47.5114" lon="-2.72914">
        <ele>0.1374512</ele>
        <time>2009-09-30T15:47:51Z</time>
      </trkpt>
      <trkpt lat="47.51157" lon="-2.72903">
        <ele>0.1374512</ele>
        <time>2009-09-30T15:47:59Z</time>
      </trkpt>
      <trkpt lat="47.51155" lon="-2.72884">
        <ele>-0.8240967</ele>
        <time>2009-09-30T15:48:06Z</time>
      </trkpt>
      <trkpt lat="47.51153" lon="-2.7285">
        <ele>-1.3046875</ele>
        <time>2009-09-30T15:48:13Z</time>
      </trkpt>
      <trkpt lat="47.51153" lon="-2.72825">
        <ele>-2.2659912</ele>
        <time>2009-09-30T15:48:18Z</time>
      </trkpt>
      <trkpt lat="47.51157" lon="-2.72826">
        <ele>-2.2659912</ele>
        <time>2009-09-30T15:48:22Z</time>
      </trkpt>
      <trkpt lat="47.51157" lon="-2.72834">
        <ele>-2.2659912</ele>
        <time>2009-09-30T15:48:24Z</time>
      </trkpt>
      <trkpt lat="47.51156" lon="-2.72851">
        <ele>-2.2659912</ele>
        <time>2009-09-30T15:48:27Z</time>
      </trkpt>
      <trkpt lat="47.51163" lon="-2.72907">
        <ele>-1.3046875</ele>
        <time>2009-09-30T15:48:37Z</time>
      </trkpt>
      <trkpt lat="47.51154" lon="-2.72927">
        <ele>0.618042</ele>
        <time>2009-09-30T15:48:42Z</time>
      </trkpt>
      <trkpt lat="47.51134" lon="-2.72947">
        <ele>2.5406494</ele>
        <time>2009-09-30T15:48:49Z</time>
      </trkpt>
      <trkpt lat="47.51103" lon="-2.72972">
        <ele>3.5019531</ele>
        <time>2009-09-30T15:48:58Z</time>
      </trkpt>
      <trkpt lat="47.51086" lon="-2.72987">
        <ele>2.0600586</ele>
        <time>2009-09-30T15:49:03Z</time>
      </trkpt>
      <trkpt lat="47.51073" lon="-2.72993">
        <ele>1.5793457</ele>
        <time>2009-09-30T15:49:06Z</time>
      </trkpt>
      <trkpt lat="47.51069" lon="-2.73014">
        <ele>1.5793457</ele>
        <time>2009-09-30T15:49:10Z</time>
      </trkpt>
      <trkpt lat="47.51073" lon="-2.7304">
        <ele>1.5793457</ele>
        <time>2009-09-30T15:49:14Z</time>
      </trkpt>
      <trkpt lat="47.51076" lon="-2.73111">
        <ele>2.0600586</ele>
        <time>2009-09-30T15:49:24Z</time>
      </trkpt>
      <trkpt lat="47.51079" lon="-2.73182">
        <ele>2.0600586</ele>
        <time>2009-09-30T15:49:34Z</time>
      </trkpt>
      <trkpt lat="47.5108" lon="-2.73231">
        <ele>2.0600586</ele>
        <time>2009-09-30T15:49:41Z</time>
      </trkpt>
      <trkpt lat="47.51083" lon="-2.73297">
        <ele>3.0212402</ele>
        <time>2009-09-30T15:49:50Z</time>
      </trkpt>
      <trkpt lat="47.51083" lon="-2.73382">
        <ele>3.0212402</ele>
        <time>2009-09-30T15:50:02Z</time>
      </trkpt>
      <trkpt lat="47.51098" lon="-2.73401">
        <ele>1.5793457</ele>
        <time>2009-09-30T15:50:07Z</time>
      </trkpt>
      <trkpt lat="47.51108" lon="-2.73399">
        <ele>1.5793457</ele>
        <time>2009-09-30T15:50:09Z</time>
      </trkpt>
      <trkpt lat="47.51125" lon="-2.7341">
        <ele>2.5406494</ele>
        <time>2009-09-30T15:50:13Z</time>
      </trkpt>
      <trkpt lat="47.51128" lon="-2.73425">
        <ele>3.0212402</ele>
        <time>2009-09-30T15:50:15Z</time>
      </trkpt>
      <trkpt lat="47.51129" lon="-2.73525">
        <ele>3.982666</ele>
        <time>2009-09-30T15:50:27Z</time>
      </trkpt>
      <trkpt lat="47.5113" lon="-2.73607">
        <ele>5.4245605</ele>
        <time>2009-09-30T15:50:37Z</time>
      </trkpt>
      <trkpt lat="47.51131" lon="-2.73686">
        <ele>6.8664551</ele>
        <time>2009-09-30T15:50:47Z</time>
      </trkpt>
      <trkpt lat="47.51131" lon="-2.73758">
        <ele>7.347168</ele>
        <time>2009-09-30T15:50:56Z</time>
      </trkpt>
      <trkpt lat="47.51129" lon="-2.7386">
        <ele>5.4245605</ele>
        <time>2009-09-30T15:51:07Z</time>
      </trkpt>
      <trkpt lat="47.51128" lon="-2.73948">
        <ele>3.0212402</ele>
        <time>2009-09-30T15:51:15Z</time>
      </trkpt>
      <trkpt lat="47.51126" lon="-2.74081">
        <ele>0.618042</ele>
        <time>2009-09-30T15:51:26Z</time>
      </trkpt>
      <trkpt lat="47.51123" lon="-2.7423">
        <ele>-0.3433838</ele>
        <time>2009-09-30T15:51:39Z</time>
      </trkpt>
      <trkpt lat="47.5112" lon="-2.74372">
        <ele>0.1374512</ele>
        <time>2009-09-30T15:51:52Z</time>
      </trkpt>
      <trkpt lat="47.51115" lon="-2.74479">
        <ele>0.1374512</ele>
        <time>2009-09-30T15:52:04Z</time>
      </trkpt>
      <trkpt lat="47.51112" lon="-2.74544">
        <ele>-0.3433838</ele>
        <time>2009-09-30T15:52:13Z</time>
      </trkpt>
      <trkpt lat="47.51112" lon="-2.74552">
        <ele>-0.3433838</ele>
        <time>2009-09-30T15:52:14Z</time>
      </trkpt>
      <trkpt lat="47.51099" lon="-2.74649">
        <ele>-2.7467041</ele>
        <time>2009-09-30T15:52:25Z</time>
      </trkpt>
      <trkpt lat="47.5108" lon="-2.74731">
        <ele>-2.7467041</ele>
        <time>2009-09-30T15:52:33Z</time>
      </trkpt>
      <trkpt lat="47.51055" lon="-2.74794">
        <ele>-0.8240967</ele>
        <time>2009-09-30T15:52:41Z</time>
      </trkpt>
      <trkpt lat="47.51039" lon="-2.74831">
        <ele>0.618042</ele>
        <time>2009-09-30T15:52:47Z</time>
      </trkpt>
      <trkpt lat="47.51024" lon="-2.74899">
        <ele>0.1374512</ele>
        <time>2009-09-30T15:52:58Z</time>
      </trkpt>
      <trkpt lat="47.5102" lon="-2.74917">
        <ele>-0.8240967</ele>
        <time>2009-09-30T15:53:04Z</time>
      </trkpt>
      <trkpt lat="47.51015" lon="-2.74942">
        <ele>-1.7852783</ele>
        <time>2009-09-30T15:53:10Z</time>
      </trkpt>
      <trkpt lat="47.51007" lon="-2.74987">
        <ele>-3.2272949</ele>
        <time>2009-09-30T15:53:18Z</time>
      </trkpt>
      <trkpt lat="47.51008" lon="-2.75016">
        <ele>-3.7078857</ele>
        <time>2009-09-30T15:53:25Z</time>
      </trkpt>
      <trkpt lat="47.51003" lon="-2.75027">
        <ele>-4.1885986</ele>
        <time>2009-09-30T15:53:30Z</time>
      </trkpt>
      <trkpt lat="47.50997" lon="-2.75032">
        <ele>-4.1885986</ele>
        <time>2009-09-30T15:53:32Z</time>
      </trkpt>
      <trkpt lat="47.50972" lon="-2.75057">
        <ele>-4.6693115</ele>
        <time>2009-09-30T15:53:39Z</time>
      </trkpt>
      <trkpt lat="47.50948" lon="-2.75079">
        <ele>-5.1499023</ele>
        <time>2009-09-30T15:53:44Z</time>
      </trkpt>
      <trkpt lat="47.50926" lon="-2.75095">
        <ele>-4.6693115</ele>
        <time>2009-09-30T15:53:48Z</time>
      </trkpt>
      <trkpt lat="47.50921" lon="-2.75123">
        <ele>-4.1885986</ele>
        <time>2009-09-30T15:53:52Z</time>
      </trkpt>
      <trkpt lat="47.50921" lon="-2.75137">
        <ele>-4.1885986</ele>
        <time>2009-09-30T15:53:54Z</time>
      </trkpt>
      <trkpt lat="47.50918" lon="-2.75183">
        <ele>-4.6693115</ele>
        <time>2009-09-30T15:54:00Z</time>
      </trkpt>
      <trkpt lat="47.5092" lon="-2.75208">
        <ele>-4.6693115</ele>
        <time>2009-09-30T15:54:03Z</time>
      </trkpt>
      <trkpt lat="47.50937" lon="-2.7525">
        <ele>-4.1885986</ele>
        <time>2009-09-30T15:54:09Z</time>
      </trkpt>
      <trkpt lat="47.50956" lon="-2.75296">
        <ele>-3.7078857</ele>
        <time>2009-09-30T15:54:17Z</time>
      </trkpt>
      <trkpt lat="47.50961" lon="-2.75308">
        <ele>-4.1885986</ele>
        <time>2009-09-30T15:54:19Z</time>
      </trkpt>
      <trkpt lat="47.50997" lon="-2.7536">
        <ele>-4.1885986</ele>
        <time>2009-09-30T15:54:28Z</time>
      </trkpt>
      <trkpt lat="47.51041" lon="-2.75427">
        <ele>-5.6304932</ele>
        <time>2009-09-30T15:54:40Z</time>
      </trkpt>
      <trkpt lat="47.51065" lon="-2.7547">
        <ele>-5.6304932</ele>
        <time>2009-09-30T15:54:48Z</time>
      </trkpt>
      <trkpt lat="47.51072" lon="-2.75533">
        <ele>-6.5919189</ele>
        <time>2009-09-30T15:54:57Z</time>
      </trkpt>
      <trkpt lat="47.51074" lon="-2.75561">
        <ele>-7.0725098</ele>
        <time>2009-09-30T15:55:04Z</time>
      </trkpt>
      <trkpt lat="47.51076" lon="-2.75572">
        <ele>-6.5919189</ele>
        <time>2009-09-30T15:55:31Z</time>
      </trkpt>
      <trkpt lat="47.51081" lon="-2.75588">
        <ele>-6.5919189</ele>
        <time>2009-09-30T15:55:34Z</time>
      </trkpt>
      <trkpt lat="47.51101" lon="-2.75631">
        <ele>-6.1112061</ele>
        <time>2009-09-30T15:55:41Z</time>
      </trkpt>
      <trkpt lat="47.51152" lon="-2.75708">
        <ele>-5.6304932</ele>
        <time>2009-09-30T15:55:55Z</time>
      </trkpt>
      <trkpt lat="47.5119" lon="-2.75766">
        <ele>-5.1499023</ele>
        <time>2009-09-30T15:56:05Z</time>
      </trkpt>
      <trkpt lat="47.512" lon="-2.75784">
        <ele>-5.1499023</ele>
        <time>2009-09-30T15:56:08Z</time>
      </trkpt>
      <trkpt lat="47.51209" lon="-2.75803">
        <ele>-5.6304932</ele>
        <time>2009-09-30T15:56:11Z</time>
      </trkpt>
      <trkpt lat="47.51229" lon="-2.75869">
        <ele>-5.1499023</ele>
        <time>2009-09-30T15:56:21Z</time>
      </trkpt>
      <trkpt lat="47.51236" lon="-2.7589">
        <ele>-5.1499023</ele>
        <time>2009-09-30T15:56:24Z</time>
      </trkpt>
      <trkpt lat="47.51261" lon="-2.75953">
        <ele>-4.6693115</ele>
        <time>2009-09-30T15:56:34Z</time>
      </trkpt>
      <trkpt lat="47.5128" lon="-2.76008">
        <ele>-4.1885986</ele>
        <time>2009-09-30T15:56:43Z</time>
      </trkpt>
      <trkpt lat="47.51288" lon="-2.76033">
        <ele>-4.6693115</ele>
        <time>2009-09-30T15:56:47Z</time>
      </trkpt>
      <trkpt lat="47.51301" lon="-2.76056">
        <ele>-4.6693115</ele>
        <time>2009-09-30T15:56:51Z</time>
      </trkpt>
      <trkpt lat="47.51328" lon="-2.76106">
        <ele>-3.2272949</ele>
        <time>2009-09-30T15:57:00Z</time>
      </trkpt>
      <trkpt lat="47.51361" lon="-2.76141">
        <ele>-2.7467041</ele>
        <time>2009-09-30T15:57:08Z</time>
      </trkpt>
      <trkpt lat="47.51381" lon="-2.76159">
        <ele>-2.7467041</ele>
        <time>2009-09-30T15:57:13Z</time>
      </trkpt>
      <trkpt lat="47.51407" lon="-2.76169">
        <ele>-4.6693115</ele>
        <time>2009-09-30T15:57:19Z</time>
      </trkpt>
      <trkpt lat="47.5144" lon="-2.76176">
        <ele>-5.1499023</ele>
        <time>2009-09-30T15:57:25Z</time>
      </trkpt>
      <trkpt lat="47.51479" lon="-2.76201">
        <ele>-3.7078857</ele>
        <time>2009-09-30T15:57:33Z</time>
      </trkpt>
      <trkpt lat="47.51517" lon="-2.76219">
        <ele>-4.1885986</ele>
        <time>2009-09-30T15:57:40Z</time>
      </trkpt>
      <trkpt lat="47.5154" lon="-2.76243">
        <ele>-3.7078857</ele>
        <time>2009-09-30T15:57:45Z</time>
      </trkpt>
      <trkpt lat="47.51548" lon="-2.76257">
        <ele>-3.7078857</ele>
        <time>2009-09-30T15:57:47Z</time>
      </trkpt>
      <trkpt lat="47.5156" lon="-2.76286">
        <ele>-4.6693115</ele>
        <time>2009-09-30T15:57:51Z</time>
      </trkpt>
      <trkpt lat="47.51574" lon="-2.76336">
        <ele>-4.1885986</ele>
        <time>2009-09-30T15:57:57Z</time>
      </trkpt>
      <trkpt lat="47.51583" lon="-2.7641">
        <ele>-4.6693115</ele>
        <time>2009-09-30T15:58:05Z</time>
      </trkpt>
      <trkpt lat="47.51587" lon="-2.76464">
        <ele>-5.1499023</ele>
        <time>2009-09-30T15:58:11Z</time>
      </trkpt>
      <trkpt lat="47.51598" lon="-2.76493">
        <ele>-5.1499023</ele>
        <time>2009-09-30T15:58:15Z</time>
      </trkpt>
      <trkpt lat="47.51615" lon="-2.76496">
        <ele>-4.1885986</ele>
        <time>2009-09-30T15:58:18Z</time>
      </trkpt>
      <trkpt lat="47.51626" lon="-2.76496">
        <ele>-4.1885986</ele>
        <time>2009-09-30T15:58:20Z</time>
      </trkpt>
      <trkpt lat="47.51649" lon="-2.76499">
        <ele>-4.1885986</ele>
        <time>2009-09-30T15:58:24Z</time>
      </trkpt>
      <trkpt lat="47.51675" lon="-2.76504">
        <ele>-5.6304932</ele>
        <time>2009-09-30T15:58:29Z</time>
      </trkpt>
      <trkpt lat="47.51688" lon="-2.76507">
        <ele>-6.1112061</ele>
        <time>2009-09-30T15:58:32Z</time>
      </trkpt>
      <trkpt lat="47.51716" lon="-2.76511">
        <ele>-5.6304932</ele>
        <time>2009-09-30T15:58:40Z</time>
      </trkpt>
      <trkpt lat="47.51718" lon="-2.76513">
        <ele>-4.6693115</ele>
        <time>2009-09-30T15:58:46Z</time>
      </trkpt>
      <trkpt lat="47.51722" lon="-2.76517">
        <ele>-4.1885986</ele>
        <time>2009-09-30T15:58:55Z</time>
      </trkpt>
      <trkpt lat="47.51723" lon="-2.76518">
        <ele>-4.1885986</ele>
        <time>2009-09-30T15:59:03Z</time>
      </trkpt>
      <trkpt lat="47.51722" lon="-2.76519">
        <ele>-4.1885986</ele>
        <time>2009-09-30T15:59:05Z</time>
      </trkpt>
      <trkpt lat="47.51713" lon="-2.76527">
        <ele>-3.2272949</ele>
        <time>2009-09-30T15:59:11Z</time>
      </trkpt>
      <trkpt lat="47.51709" lon="-2.76545">
        <ele>-3.2272949</ele>
        <time>2009-09-30T15:59:16Z</time>
      </trkpt>
      <trkpt lat="47.51706" lon="-2.76555">
        <ele>-2.2659912</ele>
        <time>2009-09-30T15:59:18Z</time>
      </trkpt>
      <trkpt lat="47.51692" lon="-2.76599">
        <ele>-0.8240967</ele>
        <time>2009-09-30T15:59:26Z</time>
      </trkpt>
      <trkpt lat="47.5169" lon="-2.76605">
        <ele>-0.8240967</ele>
        <time>2009-09-30T15:59:27Z</time>
      </trkpt>
      <trkpt lat="47.51667" lon="-2.76672">
        <ele>-0.3433838</ele>
        <time>2009-09-30T15:59:38Z</time>
      </trkpt>
      <trkpt lat="47.51669" lon="-2.76699">
        <ele>0.1374512</ele>
        <time>2009-09-30T15:59:43Z</time>
      </trkpt>
      <trkpt lat="47.51676" lon="-2.76706">
        <ele>0.1374512</ele>
        <time>2009-09-30T15:59:45Z</time>
      </trkpt>
      <trkpt lat="47.51723" lon="-2.76745">
        <ele>2.0600586</ele>
        <time>2009-09-30T15:59:57Z</time>
      </trkpt>
      <trkpt lat="47.51764" lon="-2.7678">
        <ele>4.9438477</ele>
        <time>2009-09-30T16:00:07Z</time>
      </trkpt>
      <trkpt lat="47.51795" lon="-2.768">
        <ele>7.347168</ele>
        <time>2009-09-30T16:00:14Z</time>
      </trkpt>
      <trkpt lat="47.51825" lon="-2.76812">
        <ele>8.7891846</ele>
        <time>2009-09-30T16:00:20Z</time>
      </trkpt>
      <trkpt lat="47.5186" lon="-2.76823">
        <ele>8.7891846</ele>
        <time>2009-09-30T16:00:27Z</time>
      </trkpt>
      <trkpt lat="47.51886" lon="-2.76821">
        <ele>9.2698975</ele>
        <time>2009-09-30T16:00:32Z</time>
      </trkpt>
      <trkpt lat="47.51895" lon="-2.76819">
        <ele>10.2312012</ele>
        <time>2009-09-30T16:00:34Z</time>
      </trkpt>
      <trkpt lat="47.51928" lon="-2.76806">
        <ele>12.1538086</ele>
        <time>2009-09-30T16:00:40Z</time>
      </trkpt>
      <trkpt lat="47.51955" lon="-2.76789">
        <ele>12.1538086</ele>
        <time>2009-09-30T16:00:45Z</time>
      </trkpt>
      <trkpt lat="47.51986" lon="-2.7677">
        <ele>10.2312012</ele>
        <time>2009-09-30T16:00:51Z</time>
      </trkpt>
      <trkpt lat="47.51992" lon="-2.76767">
        <ele>9.7506104</ele>
        <time>2009-09-30T16:00:52Z</time>
      </trkpt>
      <trkpt lat="47.52047" lon="-2.76758">
        <ele>8.7891846</ele>
        <time>2009-09-30T16:01:02Z</time>
      </trkpt>
      <trkpt lat="47.52087" lon="-2.76756">
        <ele>9.2698975</ele>
        <time>2009-09-30T16:01:09Z</time>
      </trkpt>
      <trkpt lat="47.52117" lon="-2.76753">
        <ele>9.2698975</ele>
        <time>2009-09-30T16:01:16Z</time>
      </trkpt>
      <trkpt lat="47.52123" lon="-2.76752">
        <ele>9.2698975</ele>
        <time>2009-09-30T16:01:18Z</time>
      </trkpt>
      <trkpt lat="47.52129" lon="-2.76739">
        <ele>8.3085938</ele>
        <time>2009-09-30T16:01:23Z</time>
      </trkpt>
      <trkpt lat="47.5214" lon="-2.76722">
        <ele>5.9052734</ele>
        <time>2009-09-30T16:01:28Z</time>
      </trkpt>
      <trkpt lat="47.5215" lon="-2.76724">
        <ele>5.9052734</ele>
        <time>2009-09-30T16:01:31Z</time>
      </trkpt>
      <trkpt lat="47.52154" lon="-2.76727">
        <ele>5.4245605</ele>
        <time>2009-09-30T16:01:37Z</time>
      </trkpt>
      <trkpt lat="47.52154" lon="-2.76727">
        <ele>4.9438477</ele>
        <time>2009-09-30T16:02:13Z</time>
      </trkpt>
      <trkpt lat="47.52153" lon="-2.7673">
        <ele>4.4632568</ele>
        <time>2009-09-30T16:02:40Z</time>
      </trkpt>
      <trkpt lat="47.52153" lon="-2.7673">
        <ele>4.9438477</ele>
        <time>2009-09-30T16:05:13Z</time>
      </trkpt>
    </trkseg>
  </trk>
</gpx>